[[{"header":{"parameterUnit":"m.s-1","parameterCategory":1,"la1":30.6,"la2":29.2853,"lo1":-89.7004,"lo2":-87.6739,"dy":0.0162,"dx":0.0183,"nx":112,"ny":82,"refTime":"2023-09-17T00:00:00:Z","depth":0,"parameterNumber":2,"parameterNumberName":"U-component_of_WINDS"},"data":[0.0,0.0,0.0,0.0,0.0,0.0,0.0,0.0,0.0,0.0,0.0,0.0,0.0,0.0,0.0,0.0,0.0,0.0,0.0,0.0,0.0,0.0,0.0,0.0,0.0,0.0,0.0,0.0,0.0,0.0,0.0,0.0,0.0,0.0,0.0,0.0,0.0,0.0,0.0,0.0,0.0,0.0,0.0,0.0,0.0,0.0,0.0,0.0,0.0,0.0,0.0,0.0,0.0,0.0,0.0,0.0,0.0,0.0,0.0,0.0,0.0,0.0,0.0,0.0,0.0,0.0,0.0,0.0,0.0,0.0,0.0,0.0,0.0,0.0,0.0,0.0,0.0,0.0,0.0,0.0,0.0,0.0,0.0,0.0,0.0,0.0,0.0,0.0,0.0,0.0,-0.8804,-0.8804,-0.8804,-0.8804,-0.8804,-0.8804,-0.8209,-0.6858,0.0,0.0,0.0,0.0,0.0,0.0,0.0,0.0,0.0,0.0,0.0,0.0,0.0,0.0,0.0,0.0,0.0,0.0,0.0,0.0,0.0,0.0,0.0,0.0,0.0,0.0,0.0,0.0,0.0,0.0,0.0,0.0,0.0,0.0,0.0,0.0,0.0,0.0,0.0,0.0,0.0,0.0,0.0,0.0,0.0,0.0,0.0,0.0,0.0,0.0,0.0,0.0,0.0,0.0,0.0,0.0,0.0,0.0,0.0,0.0,0.0,0.0,0.0,0.0,0.0,0.0,0.0,0.0,0.0,0.0,0.0,0.0,0.0,0.0,0.0,0.0,0.0,0.0,0.0,0.0,0.0,0.0,0.0,0.0,0.0,0.0,0.0,0.0,0.0,0.0,0.0,0.0,0.0,0.0,0.0,0.0,0.0,0.0,0.0,0.0,0.0,0.0,0.0,0.0,-0.8804,-0.8804,-0.8804,-0.8804,-0.8804,-0.8804,-0.8427,-0.7589,0.0,0.0,0.0,0.0,0.0,0.0,0.0,0.0,0.0,0.0,0.0,0.0,0.0,0.0,0.0,0.0,0.0,0.0,0.0,0.0,0.0,0.0,0.0,0.0,0.0,0.0,0.0,0.0,0.0,0.0,0.0,0.0,0.0,0.0,0.0,0.0,0.0,0.0,0.0,0.0,0.0,0.0,0.0,0.0,0.0,0.0,0.0,0.0,0.0,0.0,0.0,0.0,0.0,0.0,0.0,0.0,0.0,0.0,0.0,0.0,0.0,0.0,0.0,0.0,0.0,0.0,0.0,0.0,0.0,0.0,0.0,0.0,0.0,0.0,0.0,0.0,0.0,0.0,0.0,0.0,0.0,0.0,0.0,0.0,0.0,0.0,0.0,0.0,0.0,0.0,0.0,0.0,0.0,0.0,0.0,0.0,0.0,0.0,0.0,0.0,0.0,0.0,0.0,-0.8804,-0.8804,-0.8804,-0.8804,-0.8804,-0.8804,-0.8804,-0.848,-0.775,-0.7375,0.0,0.0,0.0,0.0,0.0,0.0,0.0,0.0,0.0,0.0,0.0,0.0,0.0,0.0,0.0,0.0,0.0,0.0,0.0,0.0,0.0,0.0,0.0,0.0,0.0,0.0,0.0,0.0,0.0,0.0,0.0,0.0,0.0,0.0,0.0,0.0,0.0,0.0,0.0,0.0,0.0,0.0,0.0,0.0,0.0,0.0,0.0,0.0,0.0,0.0,0.0,0.0,0.0,0.0,0.0,0.0,0.0,0.0,0.0,0.0,0.0,0.0,0.0,0.0,0.0,0.0,0.0,0.0,0.0,0.0,0.0,0.0,0.0,0.0,0.0,0.0,0.0,0.0,0.0,0.0,0.0,0.0,0.0,0.0,0.0,0.0,0.0,0.0,0.0,0.0,0.0,0.0,0.0,0.0,0.0,0.0,0.0,0.0,0.0,0.0,0.0,0.0,-0.8804,-0.8804,-0.8804,-0.8804,-0.8804,-0.8804,-0.8804,-0.8566,-0.7996,-0.7643,0.0,0.0,0.0,0.0,0.0,0.0,0.0,0.0,0.0,0.0,0.0,0.0,0.0,0.0,0.0,0.0,0.0,0.0,0.0,0.0,0.0,0.0,0.0,0.0,0.0,0.0,0.0,0.0,0.0,0.0,0.0,0.0,0.0,0.0,0.0,0.0,0.0,0.0,0.0,0.0,0.0,0.0,0.0,0.0,0.0,0.0,0.0,0.0,0.0,0.0,0.0,0.0,0.0,0.0,0.0,0.0,0.0,0.0,0.0,0.0,0.0,0.0,0.0,0.0,0.0,0.0,0.0,0.0,0.0,0.0,0.0,0.0,0.0,0.0,0.0,0.0,0.0,0.0,0.0,0.0,0.0,0.0,0.0,0.0,0.0,0.0,0.0,0.0,0.0,0.0,0.0,0.0,0.0,0.0,0.0,0.0,0.0,0.0,0.0,0.0,0.0,0.0,-0.8804,-0.8804,-0.8804,-0.8804,-0.8804,-0.8804,-0.8804,-0.8785,-0.8725,-0.7423,0.0,0.0,0.0,0.0,0.0,0.0,0.0,0.0,0.0,0.0,0.0,0.0,0.0,0.0,0.0,0.0,0.0,0.0,0.0,0.0,0.0,0.0,0.0,0.0,0.0,0.0,0.0,0.0,0.0,0.0,0.0,0.0,0.0,0.0,0.0,0.0,0.0,0.0,0.0,0.0,0.0,0.0,0.0,0.0,0.0,0.0,0.0,0.0,0.0,0.0,0.0,0.0,0.0,0.0,0.0,0.0,0.0,0.0,0.0,0.0,0.0,0.0,0.0,0.0,0.0,0.0,0.0,0.0,0.0,0.0,0.0,0.0,0.0,0.0,0.0,0.0,0.0,0.0,0.0,0.0,0.0,0.0,0.0,0.0,0.0,0.0,0.0,0.0,0.0,0.0,0.0,0.0,0.0,0.0,0.0,0.0,0.0,0.0,0.0,0.0,0.0,0.0,-0.8804,-0.8878,-0.9031,-0.8891,-0.8878,-0.9038,-0.9051,-0.8971,-0.8818,0.0,0.0,0.0,0.0,0.0,0.0,0.0,0.0,0.0,0.0,0.0,0.0,0.0,0.0,0.0,0.0,0.0,0.0,0.0,0.0,0.0,0.0,0.0,0.0,0.0,0.0,0.0,0.0,0.0,0.0,0.0,0.0,0.0,0.0,0.0,0.0,0.0,0.0,0.0,0.0,0.0,0.0,0.0,0.0,0.0,0.0,0.0,0.0,0.0,0.0,0.0,0.0,0.0,0.0,0.0,0.0,0.0,0.0,0.0,0.0,0.0,0.0,0.0,0.0,0.0,0.0,0.0,0.0,0.0,0.0,0.0,0.0,0.0,0.0,0.0,0.0,0.0,0.0,0.0,0.0,0.0,0.0,0.0,0.0,0.0,0.0,0.0,0.0,0.0,0.0,0.0,0.0,0.0,0.0,0.0,0.0,0.0,0.0,0.0,0.0,0.0,0.0,-0.8904,-0.8918,-0.9031,-0.9317,-0.9205,-0.9165,-0.9337,-0.9351,-0.9271,-0.9098,0.0,0.0,0.0,0.0,0.0,0.0,0.0,0.0,0.0,0.0,0.0,0.0,0.0,0.0,0.0,0.0,0.0,0.0,0.0,0.0,0.0,0.0,0.0,0.0,0.0,0.0,0.0,0.0,0.0,0.0,0.0,0.0,0.0,0.0,0.0,0.0,0.0,0.0,0.0,0.0,0.0,0.0,0.0,0.0,0.0,0.0,0.0,0.0,0.0,0.0,0.0,0.0,0.0,0.0,0.0,0.0,0.0,0.0,0.0,0.0,0.0,0.0,0.0,0.0,0.0,0.0,0.0,0.0,0.0,0.0,0.0,0.0,0.0,0.0,0.0,0.0,0.0,0.0,0.0,0.0,0.0,0.0,0.0,0.0,0.0,0.0,0.0,0.0,0.0,0.0,0.0,0.0,0.0,0.0,0.0,0.0,0.0,0.0,0.0,0.0,0.0,0.0,-0.9178,-0.9217,-0.9331,-0.9682,-0.9715,-0.9715,-0.9715,-0.9715,-0.9715,0.0,0.0,0.0,0.0,0.0,0.0,0.0,0.0,0.0,0.0,0.0,0.0,0.0,0.0,0.0,0.0,0.0,0.0,0.0,0.0,0.0,0.0,0.0,0.0,0.0,0.0,0.0,0.0,0.0,0.0,0.0,0.0,0.0,0.0,0.0,0.0,0.0,0.0,0.0,0.0,0.0,0.0,0.0,0.0,0.0,0.0,0.0,0.0,0.0,0.0,0.0,0.0,0.0,0.0,0.0,0.0,0.0,0.0,0.0,0.0,0.0,0.0,0.0,0.0,0.0,0.0,0.0,0.0,0.0,0.0,0.0,0.0,0.0,0.0,0.0,0.0,0.0,0.0,0.0,0.0,0.0,0.0,0.0,0.0,0.0,0.0,0.0,0.0,0.0,0.0,0.0,0.0,0.0,0.0,0.0,0.0,0.0,0.0,0.0,0.0,0.0,0.0,0.0,-1.0361,-0.991,-0.9891,-1.0725,-1.0144,-0.9766,-0.9973,-0.9987,-0.99,-0.9699,0.0,0.0,0.0,0.0,0.0,0.0,0.0,0.0,0.0,0.0,0.0,0.0,0.0,0.0,0.0,0.0,0.0,0.0,0.0,0.0,0.0,0.0,0.0,0.0,0.0,0.0,0.0,0.0,0.0,0.0,0.0,0.0,0.0,0.0,0.0,0.0,0.0,0.0,0.0,0.0,0.0,0.0,0.0,0.0,0.0,0.0,0.0,0.0,0.0,0.0,0.0,0.0,0.0,0.0,0.0,0.0,0.0,0.0,0.0,0.0,0.0,0.0,0.0,0.0,0.0,0.0,0.0,0.0,0.0,0.0,0.0,0.0,0.0,0.0,0.0,0.0,0.0,0.0,0.0,0.0,0.0,0.0,0.0,0.0,0.0,0.0,0.0,0.0,0.0,0.0,0.0,0.0,0.0,0.0,0.0,0.0,0.0,0.0,0.0,0.0,0.0,0.0,-1.1524,-1.085,-1.0651,-1.1406,-1.0634,-1.0131,-1.0281,-1.0294,-1.0221,-1.0077,0.0,0.0,0.0,0.0,0.0,0.0,0.0,0.0,0.0,0.0,0.0,0.0,0.0,0.0,0.0,0.0,0.0,0.0,0.0,0.0,0.0,0.0,0.0,0.0,0.0,0.0,0.0,0.0,0.0,0.0,0.0,0.0,0.0,0.0,0.0,0.0,0.0,0.0,0.0,0.0,0.0,0.0,0.0,0.0,0.0,0.0,0.0,0.0,0.0,0.0,0.0,0.0,0.0,0.0,0.0,0.0,0.0,0.0,0.0,0.0,0.0,0.0,0.0,0.0,0.0,0.0,0.0,0.0,0.0,0.0,0.0,0.0,0.0,0.0,0.0,0.0,0.0,0.0,0.0,0.0,0.0,0.0,0.0,0.0,0.0,0.0,0.0,0.0,0.0,0.0,0.0,0.0,0.0,0.0,0.0,0.0,0.0,0.0,0.0,0.0,0.0,0.0,-1.2705,-1.1976,-1.1578,-1.1897,-1.1202,-1.0681,-1.0624,-1.0593,-1.0593,-1.0593,0.0,0.0,0.0,0.0,0.0,0.0,0.0,0.0,0.0,0.0,0.0,0.0,0.0,0.0,0.0,0.0,0.0,0.0,0.0,0.0,0.0,0.0,0.0,0.0,0.0,0.0,0.0,0.0,0.0,0.0,0.0,0.0,0.0,0.0,0.0,0.0,0.0,0.0,0.0,0.0,0.0,0.0,0.0,0.0,0.0,0.0,0.0,0.0,0.0,0.0,0.0,0.0,0.0,0.0,0.0,0.0,0.0,0.0,0.0,0.0,-1.2124,-1.1614,0.0,0.0,0.0,0.0,0.0,0.0,0.0,0.0,0.0,0.0,0.0,0.0,0.0,0.0,0.0,0.0,0.0,0.0,0.0,0.0,0.0,0.0,0.0,0.0,0.0,0.0,0.0,0.0,0.0,0.0,0.0,0.0,0.0,0.0,0.0,0.0,0.0,0.0,0.0,0.0,-1.3797,-1.3126,-1.2676,-1.2757,-1.202,-1.1288,-1.0649,-1.0593,-1.0593,-1.0593,-1.0533,0.0,0.0,0.0,0.0,0.0,0.0,0.0,0.0,0.0,0.0,0.0,0.0,0.0,0.0,0.0,0.0,0.0,0.0,0.0,0.0,0.0,0.0,0.0,0.0,0.0,0.0,0.0,0.0,0.0,0.0,0.0,0.0,0.0,0.0,0.0,0.0,0.0,0.0,0.0,0.0,0.0,0.0,0.0,0.0,0.0,0.0,0.0,0.0,0.0,0.0,0.0,0.0,0.0,0.0,0.0,0.0,0.0,0.0,0.0,-1.3565,-1.2593,0.0,0.0,0.0,0.0,0.0,0.0,0.0,0.0,0.0,0.0,0.0,0.0,0.0,0.0,0.0,0.0,0.0,0.0,0.0,0.0,0.0,0.0,0.0,0.0,0.0,0.0,0.0,0.0,0.0,0.0,0.0,0.0,0.0,0.0,0.0,0.0,0.0,0.0,0.0,0.0,-1.4748,-1.4055,-1.3433,-1.3039,-1.2297,-1.1469,-1.0688,-1.0593,-1.0593,-1.0593,-1.0593,0.0,0.0,0.0,0.0,0.0,0.0,0.0,0.0,0.0,0.0,0.0,0.0,0.0,0.0,0.0,0.0,0.0,0.0,0.0,0.0,0.0,0.0,0.0,0.0,0.0,0.0,0.0,0.0,0.0,0.0,0.0,0.0,0.0,0.0,0.0,0.0,0.0,0.0,0.0,0.0,0.0,0.0,0.0,0.0,0.0,0.0,0.0,0.0,0.0,0.0,0.0,0.0,0.0,-1.7539,-1.79,-1.8232,-1.8232,-1.8232,-1.8081,-1.5371,-1.4023,-1.3681,-1.3136,0.0,0.0,0.0,0.0,0.0,0.0,0.0,0.0,0.0,0.0,0.0,0.0,0.0,0.0,0.0,0.0,0.0,0.0,0.0,0.0,0.0,0.0,-1.3977,-1.4113,-1.4448,-1.4509,-1.3788,0.0,0.0,0.0,0.0,0.0,0.0,0.0,0.0,0.0,0.0,0.0,-1.5644,-1.5061,-1.433,-1.3529,-1.2695,-1.1859,-1.0984,-1.0762,-1.0646,-1.0593,-1.0593,-1.0593,0.0,0.0,0.0,0.0,0.0,0.0,0.0,0.0,0.0,0.0,0.0,0.0,0.0,0.0,0.0,0.0,0.0,0.0,0.0,0.0,0.0,0.0,0.0,0.0,0.0,0.0,0.0,0.0,0.0,0.0,0.0,0.0,-1.9623,-1.9698,0.0,0.0,0.0,0.0,0.0,0.0,0.0,0.0,0.0,0.0,0.0,0.0,0.0,-1.8592,-1.8252,-1.859,-1.8838,-1.8955,-1.9014,-1.9072,-1.9121,-1.9121,-1.9121,-1.9102,-1.8679,0.0,-1.6232,-1.6138,0.0,0.0,0.0,0.0,0.0,0.0,0.0,0.0,0.0,0.0,0.0,0.0,0.0,0.0,0.0,0.0,0.0,0.0,0.0,0.0,0.0,0.0,-1.5442,-1.6116,-1.6322,-1.6341,-1.6227,-1.5664,-1.5168,-1.5168,-1.5832,-1.6239,0.0,0.0,0.0,0.0,0.0,0.0,-1.6531,-1.6427,-1.6062,-1.5264,-1.4355,-1.3363,-1.2275,-1.1418,-1.0861,-1.0606,-1.0593,-1.0593,-1.0593,-1.0593,0.0,0.0,0.0,0.0,0.0,0.0,0.0,0.0,0.0,0.0,0.0,0.0,0.0,0.0,0.0,0.0,0.0,0.0,0.0,0.0,0.0,0.0,0.0,0.0,0.0,0.0,0.0,0.0,0.0,-2.02,-2.0627,-2.0352,-2.084,-2.1091,0.0,0.0,0.0,0.0,0.0,0.0,0.0,0.0,0.0,-2.2089,-2.1889,-2.18,-2.1792,-2.1601,-2.1459,-2.1333,-2.1333,-2.1133,-2.0752,-2.0752,-2.0752,-2.0752,-2.0752,-2.0039,-1.8809,-1.7842,-1.708,-1.6463,0.0,0.0,0.0,0.0,-1.5263,-1.5387,-1.4733,-1.5047,-1.5537,-1.4427,0.0,0.0,0.0,0.0,0.0,0.0,0.0,-1.5735,-1.6087,-1.6372,-1.6649,-1.6993,-1.7275,-1.7418,-1.7418,-1.7167,-1.6751,-1.6287,-1.6465,-1.6638,-1.6475,-1.657,0.0,0.0,0.0,-1.6697,-1.6697,-1.6697,-1.6392,-1.5588,-1.5127,-1.4277,-1.2803,-1.2131,-1.1586,-1.1075,-1.0774,-1.074,-1.1035,-1.0889,-1.0942,0.0,0.0,0.0,0.0,0.0,0.0,0.0,0.0,0.0,0.0,0.0,0.0,0.0,0.0,0.0,0.0,0.0,0.0,0.0,0.0,0.0,0.0,0.0,0.0,0.0,0.0,0.0,0.0,-2.0991,-2.1493,-2.0968,-2.1983,-2.241,0.0,0.0,0.0,0.0,0.0,0.0,-2.3954,-2.4393,-2.4773,-2.5045,-2.465,-2.4492,-2.4684,-2.4271,-2.3822,-2.3385,-2.3385,-2.2981,-2.2207,-2.2207,-2.2207,-2.2207,-2.2207,-2.1768,-2.0977,-1.9326,-1.835,-1.7842,-1.751,-1.7282,-1.7184,-1.7184,-1.7353,-1.7444,-1.659,-1.6907,-1.7436,-1.5911,-1.6057,-1.6738,-1.6019,0.0,0.0,0.0,0.0,-1.7058,-1.7165,-1.7383,-1.7539,-1.7539,-1.7783,-1.8008,-1.8008,-1.8008,-1.7822,-1.7155,-1.7028,-1.6989,-1.6882,-1.696,0.0,-1.6882,-1.696,-1.7028,-1.7028,-1.7028,-1.6783,-1.6202,-1.5922,-1.512,-1.351,-1.2902,-1.2269,-1.145,-1.1022,-1.0975,-1.1375,-1.1223,-1.1243,-1.153,0.0,0.0,0.0,0.0,0.0,0.0,0.0,0.0,0.0,0.0,0.0,0.0,0.0,0.0,0.0,0.0,0.0,0.0,0.0,0.0,0.0,0.0,0.0,0.0,0.0,0.0,0.0,0.0,0.0,-2.1506,-2.2912,0.0,0.0,0.0,0.0,-2.3866,-2.4833,-2.5686,-2.6298,-2.6361,-2.6171,-2.5756,-2.6146,-2.615,-2.5735,-2.6127,-2.5768,-2.4682,-2.4682,-2.4118,-2.3033,-2.3033,-2.3033,-2.3033,-2.3033,-2.2779,-2.2314,-2.0977,-1.9979,-1.9189,-1.917,-1.8906,-1.85,-1.85,-1.8266,-1.8037,-1.8339,-1.8484,-1.8529,-1.8405,-1.793,-1.7275,-1.6792,-1.6989,0.0,0.0,-1.7949,-1.8037,-1.8403,-1.8227,-1.7978,-1.7978,-1.7998,-1.8008,-1.8008,-1.8008,-1.7998,-1.7949,-1.7949,-1.7822,-1.7422,0.0,-1.7812,-1.7412,-1.7686,-1.7949,-1.7949,-1.7949,-1.7915,-1.7872,-1.7083,-1.6007,-1.4721,-1.3761,-1.2707,-1.1477,-1.1362,-1.1362,-1.1389,-1.1375,-1.1543,-1.1873,-1.157,0.0,0.0,0.0,0.0,0.0,0.0,0.0,0.0,0.0,0.0,0.0,0.0,0.0,0.0,0.0,0.0,0.0,0.0,0.0,0.0,0.0,0.0,0.0,0.0,0.0,0.0,0.0,0.0,-2.4117,-2.5297,0.0,-2.5272,-2.5468,-2.577,-2.6088,-2.6791,-2.762,-2.8561,-2.8938,-2.9212,-2.9398,-2.9581,-2.9567,-2.9415,-2.9242,-2.8756,-2.7996,-2.7611,-2.7046,-2.6302,-2.6302,-2.6302,-2.6281,-2.5937,-2.5326,-2.443,-2.3617,-2.2211,-2.0518,-2.0225,-2.0019,-1.9873,-1.9873,-1.9961,-1.9991,-1.9563,-1.9639,-1.9785,-1.9238,-1.8857,-1.8574,-1.8418,-1.8486,-1.8584,-1.8412,-1.8383,-1.8354,-1.8227,-1.8125,-1.8008,-1.8008,-1.8008,-1.8008,-1.8008,-1.8008,-1.8008,-1.8008,-1.8008,-1.7959,-1.7812,-1.791,-1.7959,-1.7812,-1.791,-1.8008,-1.8008,-1.8008,-1.8008,-1.8008,-1.7681,-1.7083,-1.6016,-1.5428,-1.4488,-1.2969,-1.2566,-1.2247,-1.1971,-1.181,-1.185,-1.2144,-1.2044,-1.2044,0.0,0.0,0.0,0.0,0.0,0.0,0.0,0.0,0.0,0.0,0.0,0.0,0.0,0.0,0.0,0.0,0.0,0.0,0.0,0.0,0.0,0.0,0.0,0.0,0.0,-2.4255,-2.5787,-2.6126,-2.7494,-2.8185,-2.7607,-2.7745,-2.797,-2.8122,-2.88,-2.9541,-3.0294,-3.0683,-3.1035,-3.1386,-3.1386,-3.1386,-3.1386,-3.1047,-3.0507,-2.9803,-2.9404,-2.8818,-2.8081,-2.7678,-2.7414,-2.7194,-2.6444,-2.5623,-2.4718,-2.4376,-2.3287,-2.1804,-2.1553,-2.1348,-2.1221,-2.1221,-2.1318,-2.1348,-2.0576,-2.0352,-2.0254,-1.9687,-1.9404,-1.9287,-1.9287,-1.9287,-1.9258,-1.9075,-1.8929,-1.8828,-1.8656,-1.8545,-1.8408,-1.8252,-1.8188,-1.8188,-1.8188,-1.8188,-1.8188,-1.8188,-1.8105,-1.8008,-1.8008,-1.8008,-1.8008,-1.8008,-1.8008,-1.8008,-1.8008,-1.8008,-1.8008,-1.8008,-1.8008,-1.7613,-1.6671,-1.6392,-1.5515,-1.3803,-1.3377,-1.2918,-1.2321,-1.2118,-1.2104,-1.2298,-1.2305,-1.2305,-1.2305,0.0,0.0,0.0,0.0,0.0,0.0,0.0,0.0,0.0,0.0,0.0,0.0,0.0,0.0,0.0,0.0,0.0,0.0,0.0,0.0,0.0,0.0,0.0,-2.4205,-2.6013,-2.7406,-2.7457,-2.9365,-3.003,-2.8411,-2.9704,-3.0432,-2.993,-3.0859,-3.1461,-3.1486,-3.1486,-3.1486,-3.1486,-3.1486,-3.1486,-3.1486,-3.1461,-3.0931,-2.9929,-2.9893,-2.9319,-2.8179,-2.7029,-2.6241,-2.5708,-2.4519,-2.3713,-2.3276,-2.3266,-2.3222,-2.3135,-2.3091,-2.2847,-2.2529,-2.2529,-2.2266,-2.1846,-2.1366,-2.0644,-1.9951,-1.9941,-1.9658,-1.9326,-1.9326,-1.9326,-1.9404,-1.9805,-1.9619,-1.9394,-1.9795,-1.959,-1.918,-1.8724,-1.8617,-1.8617,-1.8617,-1.8617,-1.8617,-1.8617,-1.8295,-1.8037,-1.8018,-1.8018,-1.8027,-1.8027,-1.8037,0.0,-1.8047,-1.8047,-1.8047,-1.8037,-1.8037,-1.7676,-1.6706,-1.6645,-1.5842,-1.3882,-1.3745,-1.331,-1.2335,-1.2305,-1.2305,-1.2305,-1.2305,-1.2305,-1.2305,0.0,0.0,0.0,0.0,0.0,0.0,0.0,0.0,0.0,0.0,0.0,0.0,0.0,0.0,0.0,0.0,0.0,0.0,0.0,0.0,0.0,-2.6267,-2.7571,-2.7055,-2.8549,-3.0143,-3.1348,-3.165,-3.175,-3.1712,-3.1386,-3.1449,-3.2127,-3.2495,-3.2955,-3.3759,-3.3809,-3.3809,-3.3809,-3.3809,-3.3809,-3.3809,-3.3018,-3.2677,-3.2748,-3.1943,-3.1378,-3.1058,-3.0749,-3.0278,-2.9761,-2.9059,-2.8179,-2.7277,-2.6873,-2.5775,-2.4253,-2.342,-2.3023,-2.2925,-2.2925,-2.2705,-2.2275,-2.1855,-2.1338,-2.0781,-2.0488,-2.0341,-2.0253,-2.0253,-2.0253,-2.0176,-1.9971,-1.9824,-1.9697,-1.9512,-1.9375,-1.9258,-1.9141,-1.9111,-1.9111,-1.9111,-1.9111,-1.9111,-1.9111,-1.9014,-1.874,-1.8115,-1.8227,-1.8432,-1.8432,-1.873,-1.8936,-1.8936,-1.8936,-1.8818,-1.8461,-1.875,-1.8576,-1.7695,-1.789,-1.713,-1.4931,-1.4772,-1.4027,-1.2372,-1.2305,-1.2305,-1.2305,-1.2305,-1.2305,0.0,0.0,0.0,0.0,0.0,0.0,0.0,0.0,0.0,0.0,0.0,0.0,0.0,0.0,0.0,0.0,0.0,0.0,0.0,0.0,0.0,0.0,-2.8624,-3.0168,-3.0796,-3.1323,-3.2089,-3.3282,-3.3319,-3.3395,-3.3734,-3.3169,-3.3056,-3.3721,-3.3771,-3.4048,-3.4688,-3.468,-3.468,-3.468,-3.468,-3.4568,-3.4374,-3.3746,-3.347,-3.3545,-3.2893,-3.2441,-3.2173,-3.1685,-3.1043,-3.0294,-2.9499,-2.8639,-2.7859,-2.7569,-2.6408,-2.4745,0.0,0.0,0.0,0.0,-2.2828,-2.248,-2.2236,-2.1865,-2.1465,-2.1201,-2.0996,-2.084,-2.084,-2.0713,-2.0546,-2.0254,-2.0185,-2.0127,-1.992,-1.9862,-1.9813,-1.959,-1.9551,-1.9551,-1.9551,-1.9551,-1.9551,-1.9551,-1.9551,0.0,-1.8662,-1.875,-1.887,-1.887,-1.9131,-1.9287,-1.9287,-1.9287,-1.9189,-1.8936,-1.9131,-1.9082,-1.8584,-1.8769,0.0,0.0,0.0,-1.4735,-1.2755,-1.2685,0.0,0.0,0.0,-1.2685,-1.2685,-1.2552,0.0,0.0,-1.2285,-1.2211,0.0,0.0,0.0,0.0,0.0,0.0,0.0,0.0,0.0,0.0,0.0,0.0,0.0,0.0,0.0,0.0,-3.0984,-3.2478,-3.4525,-3.4022,-3.3633,-3.4123,-3.455,-3.4768,-3.4768,-3.4763,-3.4751,-3.4768,-3.4768,-3.4839,-3.4901,-3.4901,0.0,0.0,0.0,-3.4675,-3.4186,-3.4048,-3.3746,-3.3257,-3.3174,-3.2767,-3.216,-3.1047,-2.9971,-2.8911,-2.776,-2.7037,-2.6561,-2.6561,-2.5852,-2.4787,-2.466,-2.4006,-2.3091,-2.3091,-2.2857,-2.2578,-2.2529,0.0,0.0,-2.1885,-2.1553,-2.1142,-2.1239,-2.0957,-2.0625,-2.0723,-2.0683,-2.0625,-2.0723,-2.0674,-2.0517,-2.0137,-2.0019,-1.999,-1.999,-1.999,-1.999,-1.999,-1.999,-1.9873,-1.9492,-1.9394,-1.9355,-1.9355,-1.9394,-1.9434,-1.9434,-1.9434,-1.9414,-1.9365,-1.9404,0.0,-1.9297,-1.9336,-1.896,-1.7971,-1.6728,-1.525,-1.3437,-1.3246,-1.3213,-1.3213,-1.3213,-1.3213,-1.3213,-1.2971,-1.2837,-1.2831,-1.2529,-1.2338,0.0,0.0,0.0,0.0,0.0,0.0,0.0,0.0,0.0,0.0,0.0,0.0,0.0,0.0,0.0,-3.0846,-3.2767,-3.4342,-3.5219,-3.5579,-3.5814,-3.5915,-3.5592,-3.5345,-3.5345,-3.4944,-3.4856,-3.5307,-3.5345,-3.5579,-3.6065,-3.6091,-3.6091,-3.6091,-3.6091,-3.604,-3.5927,-3.5002,-3.4512,-3.4399,-3.3508,0.0,-3.2202,-3.1531,-3.0563,-2.9445,-2.8769,-2.79,-2.697,-2.697,-2.6136,-2.4702,-2.38,-2.3299,-2.3091,-2.3091,-2.3042,-2.2925,-2.2627,-2.2236,-2.1885,-2.1885,-2.1348,-2.0869,-2.1543,-2.1201,0.0,-2.1435,-2.1153,-2.0772,-2.1486,-2.1143,-2.0674,-2.0869,-2.0703,-2.0478,-2.0478,-2.0478,-2.0478,-2.0478,-2.0478,-2.0449,-2.037,-2.0019,-1.9795,-1.9795,-2.0088,-2.0351,-2.0351,-2.0351,-2.0185,-1.9824,-2.0107,-2.0077,-1.9346,-1.96,-1.922,-1.7989,-1.613,-1.491,-1.4499,-1.3666,-1.3213,-1.3213,-1.3213,-1.3213,-1.3213,-1.3153,-1.312,-1.3113,-1.2844,-1.2569,0.0,0.0,0.0,0.0,0.0,0.0,0.0,0.0,0.0,0.0,0.0,-2.7535,-2.8019,0.0,-3.1549,-3.3194,-3.4638,-3.583,-3.6659,-3.6772,-3.6719,-3.6443,-3.6119,-3.5956,-3.5956,-3.5705,-3.5655,-3.5931,-3.5956,-3.6069,-3.6392,-3.6405,-3.6405,-3.6405,-3.6405,-3.6279,-3.5956,-3.514,-3.4247,-3.3407,-3.2543,-3.1542,-3.0383,-3.0122,-2.9519,-2.8628,-2.8165,-2.7622,-2.705,-2.6287,-2.5498,-2.4702,-2.3551,-2.3091,-2.3091,-2.3091,-2.3091,-2.3062,-2.2857,-2.2685,-2.251,-2.251,-2.207,-2.1621,-2.207,-2.1738,-2.1359,-2.1758,-2.1572,-2.1368,-2.1768,-2.1603,-2.123,-2.119,-2.1064,-2.084,-2.0654,-2.0605,-2.0605,-2.0605,-2.0605,-2.0605,-2.0605,-2.0419,-2.0244,-2.0244,-2.0458,-2.0605,-2.0605,-2.0605,-2.0517,-2.0264,-2.0478,-2.0429,-1.9999,-2.0117,-1.9755,-1.8543,-1.7501,-1.6632,-1.6079,-1.5017,-1.4434,-1.4434,-1.392,-1.3647,-1.3647,-1.346,-1.3387,-1.3387,-1.3267,-1.3039,0.0,0.0,0.0,0.0,0.0,0.0,0.0,-2.894,-2.9041,-2.944,-2.9742,-3.0198,-3.0954,-3.2064,-3.3483,-3.5345,-3.6257,-3.6998,-3.7889,-3.7626,-3.7149,-3.6631,-3.6468,-3.6405,-3.6405,-3.6405,-3.6405,-3.6405,-3.6405,-3.6405,-3.6405,-3.6405,-3.6405,-3.6405,-3.6405,-3.6157,-3.5658,-3.4865,-3.3838,-3.2596,-3.1492,-3.0324,-2.9071,-2.8757,-2.8277,-2.7646,-2.69,-2.6563,-2.6476,-2.5061,-2.4457,-2.4382,-2.3474,-2.3091,-2.3091,-2.3091,-2.3091,-2.3091,-2.3091,-2.3042,-2.2984,-2.3062,-2.275,-2.2422,-2.2588,-2.2285,-2.1924,-2.209,-2.2012,-2.1924,-2.209,-2.2012,-2.1816,-2.1502,-2.1385,-2.1269,-2.0898,-2.086,-2.086,-2.086,-2.0791,-2.0732,-2.0732,-2.0664,-2.0605,-2.0605,-2.0605,-2.0605,-2.0605,-2.0605,-2.0605,-2.0605,-2.0605,-2.0605,-2.0605,-2.0605,-2.0235,-1.9362,-1.9116,-1.859,-1.7666,-1.6601,-1.5902,-1.5696,-1.4852,-1.4292,-1.4088,-1.3848,-1.3686,-1.3686,-1.3686,-1.35,-2.5217,-2.5869,-2.6811,-2.8693,-2.8861,-2.9584,0.0,-3.2959,-3.1968,-3.2425,-3.2608,-3.2693,-3.281,-3.4098,-3.537,-3.6144,-3.7149,-3.7864,-3.799,-3.7952,-3.7713,-3.7161,-3.6707,-3.6405,-3.6405,-3.6405,-3.6405,-3.6405,-3.6405,-3.6405,-3.6405,-3.6405,-3.6405,-3.6405,-3.6405,-3.638,-3.6317,-3.453,-3.3914,-3.4387,-3.1507,-3.0434,-3.085,-2.9317,-2.8258,-2.752,-2.5548,-2.4693,-2.4633,-2.3678,-2.3309,-2.3256,-2.3135,-2.3091,-2.3091,-2.3091,-2.3091,-2.3091,-2.3091,-2.2847,-2.2646,-2.2974,-2.2607,-2.21,-2.2799,-2.251,-2.2041,-2.275,-2.2461,-2.206,-2.276,-2.2441,-2.1963,-2.2295,-2.208,-2.1797,-2.1748,-2.1738,-2.1738,-2.1738,-2.1426,-2.1122,-2.1122,-2.083,-2.0605,-2.0605,-2.0605,-2.0605,-2.0605,-2.0605,-2.0605,-2.0605,-2.0605,-2.0605,-2.0605,-2.0605,-2.0566,-2.045,-1.952,-1.8957,-1.8838,-1.7698,-1.6683,-1.5737,-1.5579,-1.5054,-1.4088,-1.4055,-1.4041,-1.4041,-1.4041,-1.3741,-2.6572,-2.7784,-2.9071,-2.9909,-3.1659,-3.3661,-3.5444,-3.5437,-3.5115,-3.5338,-3.5224,-3.495,-3.4571,-3.5341,-3.6307,-3.7174,-3.7701,-3.8228,-3.8894,-3.8417,-3.7688,-3.6835,-3.6232,-3.6006,-3.638,-3.6405,-3.6405,-3.6405,-3.6405,-3.6405,-3.6405,-3.6405,-3.6405,-3.6405,-3.6405,-3.6013,-3.5223,-3.4079,-3.2921,-3.1786,-2.9836,-2.8769,-2.8375,-2.7364,-2.6654,-2.6101,-2.5177,-2.4512,-2.4023,-2.3662,-2.3369,-2.3091,-2.3091,-2.3091,-2.3091,-2.3091,-2.3091,-2.3091,-2.3091,-2.2984,-2.2867,-2.3042,-2.2857,-2.2643,-2.2984,-2.2847,-2.2685,-2.3003,-2.2847,-2.2695,-2.3003,-2.2838,-2.2598,-2.2529,-2.2373,-2.2187,-2.1934,-2.1885,-2.1885,-2.1885,-2.1738,-2.1611,-2.1611,-2.1455,-2.1378,-2.1378,-2.0928,-2.0693,-2.0918,-2.0723,-2.0605,-2.0605,-2.0605,-2.0605,-2.0605,-2.0605,-2.0605,-2.0605,-2.0167,-1.9638,-1.9045,-1.7908,-1.6805,-1.5737,-1.5095,-1.4531,-1.4088,-1.4088,-1.4088,-1.4088,-1.4088,-1.3955,-2.7525,-2.9146,-3.0911,-3.1465,-3.4068,-3.6671,-3.7404,-3.7397,-3.7307,-3.7563,-3.6871,-3.6082,-3.5592,-3.5994,-3.6669,-3.7425,-3.7939,-3.8479,-3.9132,-3.8391,-3.7374,-3.6307,-3.5483,-3.5253,-3.5688,-3.5818,-3.5968,-3.6119,-3.6132,-3.6194,-3.6405,-3.6405,-3.6405,-3.6405,-3.6405,-3.5918,-3.4981,-3.4138,-3.273,-3.0721,-2.9172,-2.787,-2.6893,-2.6074,-2.5557,-2.5244,-2.5174,-2.4763,-2.4131,-2.4014,-2.3779,-2.3452,-2.3452,-2.3374,-2.3276,-2.3276,-2.3198,-2.3091,-2.3091,-2.3091,-2.3091,-2.3091,-2.3091,-2.3091,-2.3091,-2.3091,-2.3091,-2.3091,-2.3091,-2.3091,-2.3091,-2.3091,-2.3023,-2.2711,-2.2685,-2.2607,-2.2295,-2.2236,-2.2236,-2.2236,-2.2139,-2.206,-2.206,-2.1963,-2.1924,-2.2041,-2.1416,-2.1045,-2.1377,-2.1025,-2.084,-2.0957,-2.086,-2.084,-2.0957,-2.086,-2.0801,-2.0957,-2.086,-2.03,-1.9199,-1.8386,-1.7229,-1.5745,-1.4936,-1.4412,-1.4088,-1.4088,-1.4088,-1.4088,-1.4088,-1.4088,-2.7764,-2.949,-3.1929,-3.3873,-3.5462,-3.715,-3.9694,-3.9036,-3.8062,-3.8724,-3.7077,-3.5516,-3.5495,-3.5994,-3.6417,-3.6455,-3.7825,-3.8668,-3.814,-3.7563,-3.6797,-3.5658,-3.4613,-3.396,-3.3972,-3.4462,-3.4956,-3.5483,-3.552,-3.5805,-3.638,-3.6405,-3.6405,-3.6405,-3.6405,-3.6358,-3.6358,-3.5005,-3.404,-3.3362,-3.0417,-2.8691,-2.8105,-2.6445,-2.5684,-2.5645,-2.5254,-2.5096,-2.5047,-2.457,-2.4385,-2.4375,-2.4375,-2.4131,-2.3769,-2.3769,-2.3496,-2.3091,-2.3091,-2.3091,-2.3091,-2.3091,-2.3091,-2.3091,-2.3091,-2.3091,-2.3091,-2.3091,-2.3091,-2.3091,-2.3091,-2.3091,-2.3091,-2.3081,-2.3081,-2.3071,-2.3062,-2.3052,-2.3052,-2.3052,-2.273,-2.249,-2.249,-2.2158,-2.2021,-2.2432,-2.2129,-2.1846,-2.1865,-2.1484,-2.1377,-2.1797,-2.1465,-2.1387,-2.1807,-2.1455,-2.1396,-2.1816,-2.1445,-2.07,-1.9648,-1.9557,-1.8299,-1.5745,-1.5662,-1.5137,-1.4088,-1.4088,-1.4088,-1.4088,-1.4088,-1.4088,-3.0432,-3.2482,-3.4532,-3.6043,-3.8093,-4.0119,-4.1437,-4.1602,-4.0903,-3.8852,-3.7533,-3.6064,-3.3748,-3.3483,-3.3972,-3.509,-3.6056,-3.6973,-3.7877,-3.7525,-3.6508,-3.4675,-3.4449,-3.3859,-3.2378,-3.3407,-3.4562,-3.5433,-3.5495,-3.578,-3.638,-3.6405,-3.6013,-3.5126,-3.5078,-3.4203,-3.2381,-3.1887,-3.0997,-2.9625,-2.8044,-2.7031,-2.6503,-2.5937,-2.5693,-2.5674,-2.5576,-2.5342,-2.5106,-2.4912,-2.4678,-2.4414,-2.4414,-2.4336,-2.4209,-2.4209,-2.3935,-2.3525,-2.3198,-2.3091,-2.3091,-2.3091,-2.3091,-2.3091,-2.3091,-2.3091,-2.3091,-2.3091,-2.3091,-2.3091,-2.3091,-2.3091,-2.3091,-2.3091,-2.3091,-2.3091,-2.3091,-2.3091,-2.3091,-2.3091,-2.2984,-2.2886,-2.2886,-2.2812,-2.2721,-2.2867,-2.2568,-2.2197,-2.1924,-2.1758,-2.1719,-2.1865,-2.1758,-2.1728,-2.1875,-2.1748,-2.1728,-2.1875,-2.1748,-2.1139,-2.0047,-1.9049,-1.7886,-1.6475,-1.5268,-1.455,-1.4369,-1.4182,-1.4088,-1.4088,-1.4088,-1.4088,-3.2931,-3.4861,-3.6611,-3.8392,-4.0292,-4.1946,-4.2551,-4.2505,-4.1492,-3.8514,-3.6946,-3.5211,-3.2196,-3.1637,-3.2051,-3.3332,-3.4161,-3.5165,-3.6634,-3.6358,-3.5554,-3.4336,-3.4161,-3.3646,-3.2403,-3.3269,-3.4198,-3.4856,-3.527,-3.5658,-3.6056,-3.5806,-3.5271,-3.4434,-3.392,-3.2805,-3.1019,-3.1019,-3.0065,-2.8165,-2.7119,-2.6309,-2.5693,-2.5693,-2.5693,-2.5693,-2.5693,-2.5528,-2.5303,-2.5303,-2.5146,-2.4836,-2.4836,-2.4795,-2.4648,-2.4648,-2.4385,-2.3955,-2.3516,-2.3227,-2.3091,-2.3091,-2.3091,-2.3091,-2.3091,-2.3091,-2.3091,-2.3091,-2.3091,-2.3091,-2.3091,-2.3091,-2.3091,-2.3091,-2.3091,-2.3091,-2.3091,-2.3091,-2.3091,-2.3091,-2.3091,-2.3091,-2.3091,-2.3091,-2.3091,-2.3091,-2.2867,-2.2637,-2.2373,-2.2207,-2.2168,-2.2314,-2.2197,-2.2168,-2.2324,-2.2197,-2.2178,-2.2324,-2.2197,-2.161,-2.0498,-1.9119,-1.7879,-1.6807,-1.5222,-1.4442,-1.4522,-1.4335,-1.4188,-1.4088,-1.4088,-1.4088,-3.5115,-3.6611,-3.8227,-4.0801,-4.1931,-4.2545,-4.3065,-4.1836,-3.9931,-3.7678,-3.533,-3.3014,-3.0819,-3.0444,-3.0658,-3.1286,-3.234,-3.3483,-3.4675,-3.4374,-3.4211,-3.4655,-3.3872,-3.342,-3.3859,-3.3972,-3.3997,-3.3846,-3.479,-3.5415,-3.544,-3.4703,-3.4276,-3.4178,-3.2894,-3.218,-3.2079,-3.2056,-3.0989,-2.8935,-2.7582,-2.6562,-2.5723,-2.5703,-2.5693,-2.5693,-2.5693,-2.5693,-2.5693,-2.5693,-2.5693,-2.5693,-2.5693,-2.5478,-2.5145,-2.5145,-2.4824,-2.4394,-2.3994,-2.3574,-2.3159,-2.3159,-2.3159,-2.3159,-2.3159,-2.3159,-2.3159,-2.3159,-2.3159,-2.3159,-2.3159,-2.3159,-2.3149,-2.314,-2.313,-2.312,-2.3101,-2.3091,-2.3091,-2.3091,-2.3091,-2.3091,-2.3091,-2.3091,-2.3091,-2.3091,-2.3091,-2.3091,-2.3091,-2.275,-2.2695,-2.3052,-2.2783,-2.2705,-2.3062,-2.273,-2.2672,-2.2984,-2.2721,-2.2007,-2.0882,-1.9719,-1.8406,-1.6859,-1.5627,-1.483,-1.4563,-1.4536,-1.4382,-1.4108,-1.4095,-1.4088,-3.712,-3.8975,-4.0651,-4.1856,-4.2276,-4.2321,-4.1953,-4.0739,-3.8743,-3.5419,-3.3168,-3.1023,-2.86,-2.8134,-2.885,-3.1035,-3.234,-3.3884,-3.6232,-3.6081,-3.5642,-3.532,-3.5441,-3.5135,-3.401,-3.5014,-3.4997,-3.3136,-3.3644,-3.4198,-3.4655,-3.3494,-3.2392,-3.1389,-3.0979,-3.0317,-2.9303,-2.903,-2.8612,-2.804,-2.7048,-2.6435,-2.6211,-2.584,-2.5693,-2.5693,-2.5693,-2.5693,-2.5693,-2.5693,-2.5693,-2.5693,-2.5693,-2.5615,-2.5566,-2.5566,-2.5283,-2.493,-2.4822,-2.4453,-2.4092,-2.4092,-2.4092,-2.4092,-2.4092,-2.4092,-2.4092,-2.4092,-2.4092,-2.4092,-2.4092,-2.4092,-2.4014,-2.3701,-2.3623,-2.3535,-2.3169,-2.3091,-2.3091,-2.3091,-2.3091,-2.3091,-2.3091,-2.3091,-2.3091,-2.3091,-2.3091,-2.3091,-2.3091,-2.3003,-2.2974,-2.3081,-2.3003,-2.2984,-2.3081,-2.3003,-2.2615,-2.1791,-2.2528,-2.2023,-1.9934,-1.9368,-1.8604,-1.7468,-1.585,-1.5075,-1.517,-1.473,-1.4482,-1.4402,-1.4188,-1.4088,-3.917,-4.0778,-4.2006,-4.2626,-4.2357,-4.163,-4.0321,-3.8759,-3.6485,-3.2513,-3.0658,-2.9093,-2.6972,-2.6788,-2.7618,-2.9616,-3.0896,-3.2516,-3.5027,-3.5328,-3.5441,-3.5855,-3.6169,-3.6141,-3.5403,-3.5462,-3.5052,-3.3887,-3.3838,-3.3655,-3.3177,-3.2018,-3.1081,-3.0317,-2.9713,-2.9059,-2.8291,-2.8057,-2.7851,-2.7708,-2.7178,-2.6758,-2.6387,-2.6133,-2.5869,-2.5693,-2.5693,-2.5693,-2.5693,-2.5693,-2.5693,-2.5703,-2.5947,-2.5908,-2.5732,-2.6113,-2.6025,-2.5644,-2.5644,-2.5488,-2.5185,-2.4609,-2.4414,-2.4414,-2.4414,-2.4414,-2.4414,-2.4414,-2.4414,-2.4414,-2.4414,-2.4414,-2.4307,-2.3896,-2.3789,-2.3672,-2.3188,-2.3091,-2.3091,-2.3091,-2.3091,-2.3091,-2.3091,-2.3091,-2.3091,-2.3091,-2.3091,-2.3091,-2.3091,-2.3091,-2.3091,-2.3091,-2.3091,-2.3091,-2.3091,-2.3091,-2.2589,-2.1391,-2.1943,-2.1445,-1.9579,-1.8854,-1.8216,-1.7731,-1.6146,-1.5297,-1.5204,-1.4877,-1.4583,-1.4322,-1.4162,-1.4088,-4.1033,-4.2036,-4.265,-4.309,-4.2222,-4.0696,-3.8413,-3.6343,-3.3762,-2.9618,-2.8131,-2.7202,-2.5836,-2.6047,-2.6813,-2.8109,-2.9214,-3.0721,-3.3081,-3.3759,-3.4625,-3.6317,-3.6518,-3.6681,-3.7036,-3.5503,-3.4574,-3.4781,-3.4216,-3.3119,-3.1429,-3.0498,-3.0016,-3.0016,-2.89,-2.8291,-2.8291,-2.8291,-2.8105,-2.7796,-2.7748,-2.7246,-2.6465,-2.6406,-2.6152,-2.5693,-2.5693,-2.5693,-2.5693,-2.5693,-2.5693,-2.5732,-2.6221,-2.6123,-2.5791,-2.6641,-2.667,-2.6299,-2.6299,-2.6299,-2.6113,-2.4961,-2.459,-2.459,-2.459,-2.459,-2.459,-2.459,-2.459,-2.459,-2.459,-2.459,-2.4482,-2.4062,-2.3955,-2.3838,-2.3354,-2.3266,-2.3247,-2.3188,-2.3179,-2.3179,-2.3179,-2.313,-2.3091,-2.3091,-2.3091,-2.3091,-2.3091,-2.3091,-2.3091,-2.3091,-2.3091,-2.3091,-2.3091,-2.3091,-2.2536,-2.1159,-2.1203,-2.0612,-1.9077,-1.8187,-1.7638,-1.7451,-1.6339,-1.5578,-1.5122,-1.5042,-1.4747,-1.4202,-1.4162,-1.4122,-4.1841,-4.2671,-4.306,-4.2626,-4.1549,-3.9735,-3.6549,-3.4317,-3.1861,-2.8187,-2.6485,-2.5669,-2.56,-2.5686,-2.6578,-2.9089,-3.0043,-3.1521,-3.4643,-3.4756,-3.519,-3.6847,-3.7048,-3.6945,-3.6581,-3.5649,-3.444,-3.2942,-3.1677,-3.0833,-3.0553,-2.9315,-2.8654,-2.8654,-2.8398,-2.8291,-2.8291,-2.8291,-2.8252,-2.8174,-2.7885,-2.7402,-2.6894,-2.6543,-2.6152,-2.5693,-2.5693,-2.5693,-2.5693,-2.5693,-2.5693,-2.5732,-2.6221,-2.6123,-2.5752,-2.6309,-2.6221,-2.5801,-2.5801,-2.5801,-2.5762,-2.5538,-2.546,-2.546,-2.546,-2.546,-2.546,-2.546,-2.546,-2.546,-2.546,-2.546,-2.5343,-2.4951,-2.4891,-2.4727,-2.4287,-2.4153,-2.4092,-2.374,-2.3682,-2.3682,-2.3682,-2.3379,-2.3091,-2.3091,-2.3091,-2.3091,-2.3091,-2.3091,-2.3091,-2.3091,-2.3091,-2.3091,-2.3091,-2.3091,-2.2183,-1.9943,-2.0755,-1.9835,-1.656,-1.7264,-1.7178,-1.6157,-1.592,-1.5731,-1.5678,-1.5197,-1.4955,-1.4854,-1.4556,-1.4315,-4.2051,-4.2836,-4.314,-4.256,-4.0883,-3.8362,-3.4589,-3.1931,-2.9271,-2.5739,-2.4542,-2.4243,-2.4702,-2.5222,-2.6138,-2.7819,-2.9001,-3.0555,-3.3043,-3.3658,-3.4474,-3.6132,-3.6584,-3.6807,-3.6784,-3.4927,-3.346,-3.2825,-3.061,-2.926,-2.926,-2.8654,-2.8291,-2.8291,-2.8291,-2.8291,-2.8291,-2.8291,-2.8291,-2.8291,-2.7861,-2.7432,-2.7002,-2.6582,-2.6152,-2.5693,-2.5693,-2.582,-2.6074,-2.6074,-2.6211,-2.6426,-2.6631,-2.6592,-2.6455,-2.6894,-2.6924,-2.6709,-2.6484,-2.6396,-2.6278,-2.583,-2.5693,-2.5693,-2.5693,-2.5693,-2.5693,-2.5693,-2.5693,-2.5693,-2.5693,-2.5693,-2.5577,-2.5223,-2.4893,-2.4668,-2.4463,-2.4414,-2.4355,-2.415,-2.4111,-2.4111,-2.4111,-2.376,-2.3477,-2.3477,-2.3247,-2.3091,-2.3091,-2.3091,-2.3091,-2.3091,-2.3091,-2.3091,-2.3091,-2.3091,-2.2094,-1.9633,-2.0034,-1.8977,-1.592,-1.6386,-1.6433,-1.5825,-1.5784,-1.5752,-1.5605,-1.5324,-1.5156,-1.5008,-1.4861,-1.4676,-4.1826,-4.2626,-4.297,-4.2351,-4.0069,-3.693,-3.2959,-2.9895,-2.6965,-2.376,-2.3108,-2.3283,-2.3891,-2.4782,-2.5649,-2.6386,-2.7657,-2.9202,-3.0972,-3.219,-3.3508,-3.5132,-3.5709,-3.614,-3.6562,-3.3723,-3.2042,-3.2542,-2.9918,-2.8291,-2.8291,-2.8291,-2.8291,-2.8291,-2.8291,-2.8291,-2.8291,-2.8203,-2.8154,-2.8154,-2.7822,-2.7393,-2.6875,-2.6631,-2.6289,-2.583,-2.583,-2.6123,-2.6523,-2.6523,-2.6719,-2.7021,-2.7119,-2.71,-2.707,-2.751,-2.766,-2.7461,-2.7031,-2.6875,-2.6758,-2.5937,-2.5693,-2.5693,-2.5693,-2.5693,-2.5693,-2.5693,-2.5693,-2.5693,-2.5693,-2.5693,-2.5596,-2.5293,-2.4951,-2.4631,-2.458,-2.4629,-2.4668,-2.458,-2.456,-2.456,-2.456,-2.4199,-2.3896,-2.3799,-2.3496,-2.3198,-2.311,-2.3091,-2.3003,-2.2721,-2.296,-2.3091,-2.3091,-2.3091,-2.2094,-1.9633,-1.9497,-1.8395,-1.592,-1.5784,-1.5784,-1.5784,-1.5784,-1.5718,-1.5491,-1.5424,-1.5284,-1.5102,-1.5102,-1.5068,-4.1115,-4.1991,-4.2336,-4.1677,-3.8988,-3.5598,-3.2159,-2.8798,-2.5765,-2.3576,-2.3108,-2.3283,-2.3891,-2.4494,-2.5234,-2.6323,0.0,-2.8197,-3.0382,-3.1612,-3.2918,-3.46,-3.4661,-3.4605,-3.4652,-3.2123,-3.0484,-3.0578,-2.9185,-2.8291,-2.8291,-2.8291,-2.8291,-2.8291,-2.8291,-2.8291,-2.8291,-2.792,-2.7777,-2.7777,-2.7738,-2.7236,-2.6455,-2.6797,-2.6728,-2.6328,-2.6328,-2.6572,-2.6953,-2.6953,-2.6982,-2.7051,-2.7451,-2.7363,-2.707,-2.751,-2.7412,-2.7021,-2.6592,-2.6445,-2.6367,-2.584,-2.5693,-2.5693,-2.5693,-2.5693,-2.5693,-2.5693,-2.5693,-2.5693,-2.5693,-2.5693,-2.5674,-2.5635,-2.5596,-2.546,-2.5098,-2.5322,-2.5498,-2.5088,-2.5057,-2.5057,-2.5057,-2.4648,-2.4228,-2.3848,-2.375,-2.3584,-2.3149,-2.3091,-2.2677,-2.1569,-2.2448,-2.3091,-2.3091,-2.3091,-2.2094,-1.9633,-1.9497,-1.8395,-1.592,-1.5784,-1.5784,-1.5784,-1.5784,-1.5764,-1.5744,-1.5524,-1.5384,-1.5357,-1.5357,-1.5217,-3.9125,-4.0651,-4.1557,-4.0457,-3.7638,-3.438,-3.1373,-2.8056,-2.5126,-2.3457,-2.3108,-2.317,-2.3409,-2.4186,-2.4938,-2.5398,0.0,0.0,-2.8888,-3.0055,-3.1499,-3.3495,-3.3511,-3.3624,-3.4326,-3.1887,-2.9964,-2.9154,-2.8601,-2.8291,-2.8291,-2.8291,-2.8291,-2.8291,-2.8047,-2.792,-2.792,-2.749,-2.7402,-2.7718,-2.7402,-2.7226,-2.7158,-2.706,-2.6924,-2.6768,-2.6768,-2.7012,-2.7402,-2.7402,-2.7549,-2.7773,-2.7695,-2.7611,-2.7432,-2.765,-2.7559,-2.7344,-2.6914,-2.6768,-2.665,-2.5908,-2.5693,-2.5693,-2.5693,-2.5693,-2.5693,-2.5693,-2.5693,-2.5693,-2.5693,-2.5693,-2.5693,-2.5693,-2.5693,-2.5635,-2.5508,-2.5605,-2.5635,-2.5508,-2.5469,-2.5469,-2.5469,-2.4883,-2.4365,-2.4199,-2.373,-2.3286,-2.312,-2.2492,-2.1845,-2.1337,-2.1712,-2.2031,-2.2031,-2.1355,-2.0539,-1.9534,-1.8818,-1.763,-1.5872,-1.5784,-1.5784,-1.5784,-1.5784,-1.5784,-1.5784,-1.5712,-1.5658,-1.5658,-1.5658,-1.5591,-3.6806,-3.8861,-4.0232,-3.911,-3.6109,-3.2882,-3.0544,-2.7195,-2.4309,-2.3291,-2.3108,-2.3108,-2.3108,-2.4036,-2.4788,0.0,0.0,-2.6499,-2.7684,-2.8446,-2.9613,-3.164,-3.1501,-3.1641,-3.2713,-3.092,-2.9303,-2.8398,-2.8291,-2.8291,-2.8291,-2.8291,-2.8291,-2.8291,-2.8008,-2.7845,-2.7718,-2.7363,-2.7236,-2.7285,-2.7236,-2.7236,-2.7285,-2.7226,-2.7207,-2.7207,-2.7207,-2.7451,-2.7851,-2.7851,-2.8027,-2.8252,-2.7885,-2.7447,-2.7032,-2.6969,-2.6651,-2.6218,-2.5745,-2.5605,-2.5544,-2.5199,-2.4815,-2.4658,-2.5479,-2.5693,-2.5693,-2.5693,-2.5693,-2.5693,-2.5693,-2.5693,-2.5693,-2.5693,-2.5693,-2.5693,-2.5693,-2.5693,-2.5586,-2.5177,-2.543,-2.5586,-2.5177,-2.4919,-2.4766,-2.4629,-2.3657,-2.2923,-2.2799,-2.1607,-2.0612,-2.026,-2.026,-2.0395,-2.0755,-1.9988,-1.936,-1.8993,-1.8187,-1.7131,-1.5825,-1.5784,-1.5784,-1.5784,-1.5784,-1.5784,-1.5784,-1.5784,-1.5784,-1.5784,-1.5784,-1.5784,-3.4369,-3.6432,-3.8257,-3.7599,-3.4346,-3.097,-2.961,-2.6113,-2.3108,-2.3108,-2.3108,-2.3108,-2.3108,-2.4036,-2.4788,-2.4788,-2.4935,0.0,-2.7099,-2.6928,-2.7229,-2.8751,-2.8221,-2.8105,-2.8968,-2.8589,-2.8291,-2.8291,-2.8291,-2.8291,-2.8291,-2.8291,-2.8291,-2.8291,-2.8291,-2.8086,-2.7718,-2.7718,-2.7236,-2.6406,-2.7307,-2.7217,-2.6426,-2.7275,-2.7708,-2.7708,-2.7708,-2.79,-2.8281,-2.8281,-2.8291,-2.8252,-2.7885,-2.6831,-2.5556,-2.5174,-2.4132,-2.2911,-2.2501,-2.2376,-2.2525,-2.3418,-2.2818,-2.2257,-2.4913,-2.5693,-2.5693,-2.5693,-2.5693,-2.5693,-2.5693,-2.5693,-2.5693,-2.5693,-2.5693,-2.5693,-2.5693,-2.5693,-2.5333,-2.3989,-2.4815,-2.5274,-2.3949,-2.4805,-2.5528,-2.5127,-2.3673,-2.2451,-2.207,-2.0554,-1.9039,-1.787,-1.7731,-1.8234,-1.9405,-1.9497,-1.8993,-1.7777,-1.7692,-1.7131,-1.5825,-1.5784,-1.5784,-1.5784,-1.5784,-1.5784,-1.5784,-1.5784,-1.5784,-1.5784,-1.5784,-1.5784,-3.0849,-3.2094,-3.3013,-3.2698,-3.0259,-2.7839,-2.7308,-2.5045,-2.3108,-2.3108,-2.3108,-2.3108,-2.3108,-2.4036,-2.4913,-2.5297,-2.5376,0.0,-2.6178,-2.6059,-2.6505,-2.8017,-2.895,-2.9207,-2.8555,-2.839,-2.8291,-2.8291,-2.8291,-2.8291,-2.8291,-2.8291,-2.8291,-2.8291,-2.8018,-2.7656,-2.7226,-2.7217,-2.708,-2.6826,-2.7393,-2.7676,-2.7695,-2.7969,-2.8096,-2.8096,-2.8096,-2.8164,-2.8291,-2.8291,-2.8125,-2.7818,-2.6915,-2.5968,-2.4957,-2.4198,-2.3446,-2.2699,-2.2388,-2.2316,-2.231,-2.2333,-2.2055,-2.1853,-2.2717,-2.2976,-2.3176,-2.4097,-2.4971,-2.5693,-2.5693,-2.502,-2.4559,-2.5479,-2.4304,-2.3484,-2.5274,-2.4971,-2.4196,-2.3791,-2.4048,-2.4205,-2.3791,-2.377,-2.3793,-2.3703,-2.3001,-2.1981,-2.0738,-1.9381,-1.8347,-1.7761,-1.6897,-1.6897,-1.8133,-1.749,-1.7171,-1.7692,-1.6897,-1.6197,-1.5825,-1.5784,-1.5784,-1.5784,-1.5784,-1.5784,-1.5784,-1.5784,-1.5784,-1.5784,-1.5784,-1.5784,0.0,-2.8792,-2.946,-2.9341,-2.764,-2.5985,-2.5851,-2.44,-2.3108,-2.3108,-2.3108,-2.317,-2.3396,-2.3864,-2.4435,-2.4997,-2.4613,-2.4488,-2.5117,-2.4741,-2.5019,-2.6649,-2.8146,-2.8712,-2.7908,-2.8105,-2.8291,-2.8291,-2.8291,-2.8291,-2.8291,-2.8291,-2.8291,-2.8291,-2.8037,-2.7695,-2.7266,-2.7412,-2.7334,-2.7021,-2.7617,-2.7959,-2.8057,-2.8223,-2.8291,-2.8291,-2.7726,-2.7447,0.0,-2.6834,-2.6461,-2.6142,-2.5351,-2.4289,-2.3174,-2.2419,-2.1585,-2.0734,-2.0579,-2.0502,-2.0576,-2.0806,-2.1245,-2.1499,-2.0479,-2.0888,-2.1853,-2.2717,-2.3534,-2.4196,-2.4196,-2.3583,-2.3176,-2.3998,-2.2918,-2.2156,-2.384,-2.3534,-2.2767,-2.2265,-2.2567,-2.2776,-2.2265,-2.2369,-2.251,-2.251,-2.175,-2.0798,-1.975,-1.836,-1.7337,-1.7191,-1.636,-1.6103,-1.6897,-1.6251,-1.6157,-1.6943,-1.6251,-1.5784,-1.5784,-1.5784,-1.5784,-1.5784,-1.5784,-1.5784,-1.5784,-1.5784,-1.5784,-1.5784,-1.5784,-1.5784,0.0,-2.6194,-2.7183,-2.7151,-2.6124,-2.5116,-2.5048,-2.4039,0.0,-2.3108,-2.3108,-2.3253,-2.3798,-2.3591,-2.3501,-2.4046,-2.2988,-2.2583,-2.3951,-2.3319,-2.3281,-2.492,-2.6269,-2.708,-2.7021,-2.7793,-2.8291,-2.8291,-2.8291,-2.8281,-2.8252,-2.8271,-2.8262,-2.8203,-2.8232,-2.8057,-2.7718,-2.8057,-2.7851,-2.707,-2.7785,-2.797,-2.761,-2.7839,-2.796,-2.7897,-2.6545,-2.5936,-2.5818,-2.4378,-2.375,-2.37,-2.3286,-2.2119,-2.0623,-2.0163,-1.8968,-1.7609,-1.7589,-1.7582,-1.7786,-1.9065,-2.0333,-2.0939,-1.8349,-1.9517,-2.1702,-2.16,-2.16,-2.1702,-2.1702,-2.1651,-2.16,-2.1702,-2.155,-2.1448,-2.1651,-2.16,-2.1143,-1.9826,-2.0641,-2.1143,-1.9834,-2.0684,-2.155,-2.155,-2.0222,-1.9164,-1.9018,-1.7464,-1.6286,-1.6246,-1.5999,-1.5784,-1.5784,-1.5784,-1.5784,-1.5784,-1.5784,-1.5784,-1.5784,-1.5784,-1.5784,-1.5784,-1.5784,-1.5784,-1.5784,-1.5784,-1.5784,-1.5784,-1.5784,-1.5784,-2.181,0.0,-2.2614,-2.3405,-2.3,-2.2604,0.0,0.0,0.0,0.0,0.0,-2.3045,-2.2874,-2.3099,-2.3382,-2.3608,-2.327,-2.3158,-2.3591,-2.4135,-2.4666,-2.5067,-2.6797,-2.7734,-2.708,-2.7793,-2.8291,-2.8291,-2.8291,-2.8154,-2.7885,-2.8115,-2.7988,-2.7334,-2.7637,-2.7826,-2.7718,-2.7816,-2.7767,-2.7519,-2.6924,-2.6553,-2.647,-2.5344,-2.4884,-2.4829,-2.4488,-2.4322,-2.4322,-2.3933,-2.361,-2.3269,-2.2345,-2.1393,-2.0389,-1.9317,-1.8455,-1.7903,-1.7662,-1.7582,-1.7635,-1.7989,-1.8297,-1.8447,-1.7786,-1.9517,-2.1499,-2.0385,-2.0896,-2.1702,-2.1702,-2.0888,-2.0392,-2.1448,-2.0076,-1.9161,-2.1245,-2.0837,-1.9981,-1.9679,-1.9878,-1.9981,-1.9679,-1.9878,-2.0084,-2.0084,-1.9766,-1.8979,-1.7458,-1.688,-1.6433,-1.5979,-1.5872,-1.5784,-1.5784,-1.5784,-1.5784,-1.5784,-1.5784,-1.5784,-1.5784,-1.5784,-1.5784,-1.5784,-1.5784,-1.5784,-1.5784,-1.5784,-1.5784,-1.5784,-1.5784,-1.5784,-2.0758,-2.0759,-2.094,-2.1789,-2.1949,-2.2083,-2.2907,0.0,0.0,0.0,0.0,-2.2615,-2.282,-2.2443,-2.2299,-2.3029,-2.2666,-2.2585,-2.3235,-2.4173,-2.499,-2.5596,-2.6875,-2.7676,-2.7607,-2.8018,-2.8291,-2.8291,-2.8291,-2.8105,-2.7738,-2.7933,-2.7695,-2.7041,-2.706,-2.7327,-2.7718,-2.7718,-2.7429,-2.6956,-2.6389,-2.5709,-2.4986,-2.4043,-2.3665,-2.3758,-2.2927,-2.2672,-2.275,-2.1879,-2.1432,-2.117,-2.0426,-1.9868,-1.9285,-1.855,-1.8096,-1.7809,-1.7642,-1.7582,-1.7582,-1.7582,-1.7582,-1.7582,-1.7582,-1.8655,-1.9672,-1.8909,-1.9213,-1.9819,-1.9819,-1.9265,-1.8857,-1.962,-1.8769,-1.8167,-1.9502,-1.9338,-1.884,-1.8684,-1.8655,-1.8655,-1.8655,-1.8655,-1.8655,-1.8655,-1.8655,-1.8282,-1.725,-1.6994,-1.674,-1.6279,-1.6112,-1.5979,-1.5791,-1.5784,-1.5784,-1.5784,-1.5784,-1.5784,-1.5784,-1.5784,-1.5784,-1.5784,-1.5784,-1.5784,-1.5784,-1.5784,-1.5784,-1.5784,-1.5784,-1.5784,-2.0687,-2.0754,-2.0943,-2.1481,-2.197,-2.2431,-2.2982,0.0,0.0,0.0,0.0,-2.2186,-2.2768,-2.1754,-2.1183,-2.2309,-2.193,-2.1912,-2.312,-2.4131,-2.5107,-2.6162,-2.6836,-2.7441,-2.8037,-2.8164,-2.8193,-2.8193,-2.8135,-2.791,-2.7542,-2.7581,-2.7282,-2.6521,-2.6222,-2.6365,-2.686,-2.7145,-2.6723,-2.5674,-2.5456,-2.4679,-2.3397,-2.2883,-2.2773,-2.2927,-2.1476,-2.0984,-2.1042,-1.9516,-1.8925,-1.8891,-1.8604,-1.831,-1.7995,-1.8042,-1.7923,-1.7655,-1.7655,-1.7622,-1.7582,-1.7582,-1.7582,-1.7582,-1.7582,-1.7582,-1.7582,-1.7582,-1.7582,-1.7582,-1.7582,-1.7582,-1.7582,-1.7582,-1.7782,-1.7903,-1.7642,-1.7789,-1.7896,-1.7629,-1.7582,-1.7582,-1.7582,-1.7582,-1.7582,-1.7582,-1.7582,-1.7569,-1.7522,-1.7353,-1.7072,-1.668,-1.642,-1.6152,-1.5804,-1.5784,-1.5784,-1.5784,-1.5784,-1.5784,-1.5784,-1.5784,-1.5784,-1.5784,-1.5784,-1.5784,-1.5784,-1.5784,-1.5784,-1.5784,-1.5784,-1.5784,-2.0555,-2.1031,-2.1493,-2.2046,-2.2246,-2.2431,-2.2982,0.0,0.0,0.0,0.0,0.0,-2.1198,-2.1376,-2.1631,-2.1481,-2.2232,-2.3184,-2.4092,-2.5293,-2.6025,-2.581,-2.7168,-2.7861,-2.7275,-2.7549,-2.7816,-2.7816,-2.7422,-2.7031,-2.6611,-2.6924,-2.6222,-2.4258,-2.4496,-2.4128,-2.3168,-2.4532,-2.4783,-2.3813,-2.2482,-2.1771,-2.1549,-1.9986,-1.9278,-1.9334,-1.9268,-1.9278,-1.9312,-1.8995,-1.8925,-1.8891,-1.8604,-1.831,-1.8022,-1.833,-1.823,-1.7922,-1.7922,-1.7802,-1.7582,-1.7582,-1.7582,-1.7582,-1.7582,-1.7582,-1.7582,-1.7582,-1.7582,-1.7582,-1.7582,-1.7582,-1.7582,-1.7582,-1.7615,-1.7642,-1.7595,-1.7622,-1.7642,-1.7595,-1.7582,-1.7582,-1.7582,-1.7582,-1.7582,-1.7582,-1.7582,-1.7548,-1.73,-1.7233,-1.6991,-1.64,-1.6299,-1.6152,-1.5804,-1.5784,-1.5784,-1.5784,-1.5784,-1.5784,-1.5784,-1.5784,-1.5784,-1.5784,-1.5784,-1.5784,-1.5784,-1.5784,-1.5784,-1.5784,-1.5784,-1.5784,-2.0541,-2.1094,-2.1619,-2.2171,-2.2506,-2.2882,-2.3446,-2.3164,0.0,0.0,0.0,0.0,-2.0982,-2.1077,-2.143,-2.2112,-2.2959,-2.3721,-2.4336,-2.4941,-2.543,-2.5654,-2.6435,-2.6943,-2.7012,-2.7197,-2.7314,-2.7314,-2.7129,-2.6836,-2.6406,-2.5869,-2.4965,-2.3759,-2.3193,-2.2205,-2.0841,-2.18,-2.2156,-2.1915,-2.1207,-2.0454,-1.9702,-1.87,-1.8337,-1.849,-1.8464,-1.8544,-1.8677,-1.8517,-1.8395,-1.8362,-1.8116,-1.7916,-1.7809,-1.7949,-1.8016,-1.7969,-1.7856,-1.7809,-1.7802,-1.7635,-1.7582,-1.7582,-1.7582,-1.7582,-1.7582,-1.7582,-1.7582,-1.7582,-1.7582,-1.7582,-1.7582,-1.7582,-1.7709,-1.7789,-1.7615,-1.7716,-1.7782,-1.7615,-1.7582,-1.7582,-1.7582,-1.7582,-1.7582,-1.7582,-1.7582,-1.7535,-1.7454,-1.7434,-1.7273,-1.6844,-1.66,-1.6386,-1.6092,-1.5919,-1.5784,-1.5784,-1.5784,-1.5784,-1.5784,-1.5784,-1.5784,-1.5784,-1.5784,-1.5784,-1.5784,-1.5784,-1.5784,-1.5784,-1.5784,-1.5784,-2.0729,-2.1282,-2.182,-2.2343,0.0,-2.3296,-2.4029,-2.3401,-2.2765,0.0,0.0,-2.1058,-2.1065,-2.0989,-2.1378,-2.2721,-2.3525,-2.4043,-2.4375,-2.4687,-2.5127,-2.5762,-2.5927,-2.6249,-2.6953,-2.6924,-2.6865,-2.6865,-2.6777,-2.6412,-2.5783,-2.4766,-2.3693,-2.2655,-2.1628,-2.0472,-1.9059,-1.9227,-1.9548,-2.0069,-2.0069,-1.9493,-1.8377,-1.8076,-1.8063,-1.827,-1.8062,-1.8176,-1.837,-1.8089,-1.7995,-1.7962,-1.7702,-1.7622,-1.7689,-1.7689,-1.7889,-1.8055,-1.7796,-1.7849,-1.7955,-1.7769,-1.7689,-1.7689,-1.7689,-1.7689,-1.7675,-1.7602,-1.7582,-1.7582,-1.7582,-1.7582,-1.7582,-1.7582,-1.7762,-1.7869,-1.7629,-1.7769,-1.7869,-1.7629,-1.7582,-1.7582,-1.7582,-1.7582,-1.7582,-1.7582,-1.7582,-1.7582,-1.7582,-1.7582,-1.7521,-1.7233,-1.6881,-1.656,-1.6199,-1.5959,-1.5784,-1.5784,-1.5784,-1.5784,-1.5784,-1.5784,-1.5784,-1.5784,-1.5784,-1.5784,-1.5784,-1.5784,-1.5784,-1.5784,-1.5784,-1.5635,-2.1307,-2.1832,-2.2355,-2.2907,-2.307,-2.3396,-2.4474,-2.3871,0.0,-2.3428,0.0,-2.2025,-2.0848,-2.1291,-2.1963,-2.2471,-2.3574,-2.4385,-2.4414,-2.5469,-2.6269,-2.6338,-2.6689,-2.6943,-2.7012,-2.666,-2.6435,-2.6435,-2.6064,-2.5253,-2.3935,-2.3786,-2.2438,-1.959,-1.9431,-1.8731,-1.7387,-1.7079,-1.7383,-1.8178,-1.8178,-1.813,-1.8015,-1.7756,-1.7629,-1.7662,-1.7876,-1.8002,-1.8022,-1.8002,-1.7995,-1.7962,-1.7702,-1.7756,-1.7962,-1.7962,-1.8203,-1.8417,-1.8062,-1.7975,-1.7989,-1.7969,-1.7962,-1.7962,-1.7962,-1.7962,-1.7902,-1.7662,-1.7582,-1.7582,-1.7582,-1.7582,-1.7582,-1.7582,-1.7602,-1.7609,-1.7589,-1.7602,-1.7609,-1.7589,-1.7582,-1.7582,-1.7582,-1.7582,-1.7582,-1.7582,-1.7582,-1.7582,-1.7582,-1.7582,-1.7521,-1.7233,-1.6881,-1.6473,-1.5912,-1.5791,-1.5784,-1.5784,-1.5784,-1.5784,-1.5784,-1.5784,-1.5784,-1.5784,-1.5784,-1.5784,-1.5784,-1.5784,-1.5784,-1.5784,-1.5784,-1.5146,-2.0855,-2.138,-2.1933,-2.2456,-2.2844,0.0,0.0,-2.3477,-2.2853,-2.328,-2.2709,-2.1979,-2.1497,-2.1875,-2.2412,-2.2789,-2.3535,-2.4219,-2.4746,-2.5019,-2.5371,-2.5918,-2.5879,-2.5918,-2.6191,-2.6025,-2.5986,-2.5986,-2.5007,-2.4245,-2.3741,-2.1903,-2.0371,-1.925,-1.8203,-1.7415,-1.6874,-1.676,-1.6874,-1.7163,-1.7402,-1.7488,-1.7488,-1.7555,-1.7482,-1.738,-1.7629,-1.7756,-1.7756,-1.7756,-1.7756,-1.7749,-1.7629,-1.7655,-1.7756,-1.7756,-1.7956,-1.817,-1.7862,-1.8003,-1.8257,-1.7883,-1.7836,-1.7955,-1.7816,-1.7756,-1.7736,-1.7615,-1.7722,-1.7822,-1.7629,-1.7582,-1.7582,-1.7582,-1.7582,-1.7582,-1.7582,-1.7582,-1.7582,-1.7582,-1.7582,-1.7582,-1.7582,-1.7582,-1.7582,-1.7582,-1.7582,-1.7582,-1.7582,-1.7582,-1.7542,-1.7481,-1.6994,-1.654,-1.6139,-1.5939,-1.5784,-1.5784,-1.5784,-1.5784,-1.5784,-1.5784,-1.5784,-1.5784,-1.5784,-1.5784,-1.5784,-1.5784,-1.5784,-1.5784,-1.4997,-1.4364,-2.0842,-2.1455,-2.2038,-2.2149,0.0,0.0,-2.3282,-2.2999,-2.2914,-2.3798,-2.2978,-2.209,-2.209,-2.2207,-2.2451,-2.2828,-2.3418,-2.3994,-2.4626,-2.4521,-2.4639,-2.5206,-2.5049,-2.5039,-2.5488,-2.5527,-2.5324,-2.4918,-2.4061,-2.3153,-2.2173,-2.0148,-1.8797,-1.8303,-1.7158,-1.6567,-1.6567,-1.6473,-1.652,-1.6707,-1.6871,-1.6971,-1.7065,-1.7215,-1.7194,-1.7072,-1.7221,-1.7361,-1.7442,-1.7442,-1.7502,-1.7582,-1.7582,-1.7582,-1.7582,-1.7582,-1.7776,-1.7949,-1.7689,-1.7923,-1.8283,-1.7862,-1.7936,-1.8075,-1.7822,-1.7796,-1.7829,-1.7635,-1.7736,-1.7876,-1.7756,-1.7729,-1.7702,-1.7609,-1.7582,-1.7582,-1.7582,-1.7582,-1.7582,-1.7582,-1.7582,-1.7582,-1.7582,-1.7582,-1.7582,-1.7582,-1.7582,-1.7582,-1.7582,-1.7582,-1.7549,-1.7455,-1.7001,-1.6587,-1.6299,-1.5999,-1.5784,-1.5784,-1.5784,-1.5784,-1.5784,-1.5784,-1.5784,-1.5784,-1.5784,-1.5784,-1.5784,-1.5391,-1.5194,-1.5146,-1.3878,-1.3054,-2.1493,-2.2268,-2.2871,-2.2106,0.0,0.0,-2.1983,-2.2515,-2.3515,-2.505,-2.3856,-2.2519,-2.251,-2.2178,-2.2031,-2.2441,-2.3232,-2.3779,-2.3789,-2.4141,-2.4404,-2.4414,-2.4414,-2.458,-2.5019,-2.5059,-2.4564,-2.3281,-2.3241,-2.1942,-1.886,-1.8697,-1.7969,-1.6328,-1.6321,-1.6321,-1.6321,-1.5979,-1.6119,-1.6693,-1.6406,-1.642,-1.67,-1.6707,-1.6707,-1.67,-1.6707,-1.6874,-1.7199,-1.7206,-1.7373,-1.7582,-1.7582,-1.7582,-1.7582,-1.7582,-1.7776,-1.7942,-1.7689,-1.7789,-1.7995,-1.7989,-1.8243,-1.843,-1.8075,-1.825,-1.8357,-1.7756,-1.7589,-1.7655,-1.7916,-1.7995,-1.7916,-1.7662,-1.7589,-1.7589,-1.7582,-1.7582,-1.7582,-1.7582,-1.7582,-1.7582,-1.7582,-1.7582,-1.7582,-1.7582,-1.7582,-1.7582,-1.7582,-1.7582,-1.7521,-1.7233,-1.6881,-1.6587,-1.6299,-1.5999,-1.5784,-1.5784,-1.5784,-1.5784,-1.5784,-1.5784,-1.5784,-1.5784,-1.5778,-1.5778,-1.5784,-1.4507,-1.3878,-1.383,-1.2528,-1.1214,-2.1702,-2.1397,-2.097,-2.2064,-2.2205,-2.2111,0.0,-2.2503,0.0,-2.3637,-2.3343,-2.2818,-2.2568,-2.2613,-2.2672,-2.2539,-2.2969,-2.3437,-2.375,-2.3633,-2.3695,-2.4346,-2.415,-2.3811,-2.3373,-2.3363,-2.2824,-2.1604,-2.0589,-1.9671,-1.8754,-1.7618,-1.6793,-1.6321,-1.6072,-1.5965,-1.5965,-1.5872,-1.5871,-1.6086,-1.6005,-1.6119,-1.6413,-1.6613,-1.6593,-1.6413,-1.6613,-1.6874,-1.7213,-1.742,-1.7434,-1.7347,-1.7554,-1.7582,-1.7582,-1.7582,-1.7642,-1.7709,-1.7615,-1.7789,-1.7955,-1.7789,-1.7929,-1.8069,-1.7809,-1.7782,-1.7816,-1.7635,-1.7742,-1.7876,-1.7969,-1.8149,-1.8283,-1.7983,-1.7856,-1.7849,-1.7629,-1.7582,-1.7582,-1.7582,-1.7582,-1.7582,-1.7582,-1.7582,-1.7582,-1.7582,-1.7582,-1.7582,-1.7582,-1.7582,-1.7521,-1.7233,-1.6881,-1.6587,-1.6299,-1.5999,-1.5784,-1.5784,-1.5784,-1.5784,-1.5784,-1.5784,-1.5784,-1.5784,-1.4902,-1.4459,-1.4459,-1.3156,-1.2474,-1.2479,-1.1165,-1.0337,-2.095,-2.0804,-2.0537,-2.1508,-2.1814,-2.2017,-2.2409,-2.2757,-2.3024,-2.3095,-2.3101,-2.3066,-2.2812,-2.2789,-2.2818,-2.273,-2.2925,-2.3188,-2.3496,-2.3257,-2.3286,-2.3803,-2.3259,-2.2672,-2.2379,-2.1893,-2.1122,-1.9886,-1.9028,-1.8256,-1.7599,-1.6615,-1.6092,-1.6092,-1.5925,-1.5784,-1.5784,-1.5784,-1.5784,-1.5784,-1.5784,-1.5925,-1.6106,-1.6279,-1.6259,-1.6112,-1.6406,-1.6633,-1.6878,-1.7114,-1.7253,-1.7219,-1.7393,-1.7534,-1.7582,-1.7582,-1.7582,-1.7582,-1.7582,-1.7702,-1.7829,-1.7642,-1.7796,-1.7935,-1.7675,-1.7669,-1.7742,-1.7615,-1.7716,-1.7889,-1.7962,-1.8129,-1.827,-1.8035,-1.7995,-1.7909,-1.7649,-1.7582,-1.7582,-1.7582,-1.7582,-1.7582,-1.7582,-1.7582,-1.7582,-1.7582,-1.7582,-1.7582,-1.7582,-1.7534,-1.7393,-1.7219,-1.678,-1.6466,-1.6286,-1.5999,-1.5784,-1.5784,-1.5784,-1.5784,-1.5784,-1.5784,-1.5581,-1.5051,-1.4268,-1.3632,-1.3102,-1.1799,-1.117,-1.1121,-0.9801,-0.9217,-1.9761,-2.0354,-2.0893,-2.0653,-2.1256,-2.1998,-2.2443,-2.3174,-2.3623,-2.3179,-2.3154,-2.3154,-2.3101,-2.2779,-2.2652,-2.3033,-2.3091,-2.3091,-2.3091,-2.3091,-2.3047,-2.296,-2.1987,-2.1401,-2.1605,-2.0551,-1.9374,-1.8165,-1.807,-1.7428,-1.5886,-1.5784,-1.5784,-1.5784,-1.5784,-1.5784,-1.5784,-1.5784,-1.5784,-1.5784,-1.5784,-1.5784,-1.5784,-1.5784,-1.5784,-1.5798,-1.6146,-1.6259,-1.6259,-1.6573,-1.6854,-1.7125,-1.7146,-1.734,-1.7542,-1.7542,-1.7562,-1.7582,-1.7582,-1.7582,-1.7582,-1.7582,-1.7776,-1.7896,-1.7669,-1.7776,-1.7896,-1.7662,-1.7582,-1.7655,-1.7909,-1.7995,-1.7995,-1.7995,-1.7995,-1.7909,-1.7649,-1.7582,-1.7582,-1.7582,-1.7582,-1.7582,-1.7582,-1.7582,-1.7582,-1.7582,-1.7582,-1.7569,-1.7549,-1.7367,-1.7179,-1.7125,-1.6643,-1.6308,-1.6239,-1.5985,-1.5784,-1.5784,-1.5784,-1.573,-1.5635,-1.5635,-1.5092,-1.392,-1.368,-1.2958,-1.1707,-1.0435,-0.9805,-0.9801,-0.8581,-0.7988,-2.0099,-1.9818,-1.9379,-2.0346,-2.1263,-2.2083,-2.2793,-2.3101,-2.3208,-2.311,-2.3101,-2.3101,-2.3091,-2.3023,-2.2994,-2.3081,-2.3091,-2.3091,-2.3091,-2.3091,-2.2775,-2.18,-2.148,-2.061,-1.8798,-1.8388,-1.7688,-1.6435,-1.634,-1.6177,-1.5832,-1.5784,-1.5784,-1.5784,-1.5784,-1.5784,-1.5784,-1.5784,-1.5784,-1.5784,-1.5784,-1.5784,-1.5784,-1.5784,-1.5784,-1.5798,-1.6146,-1.6139,-1.5965,-1.6493,-1.6607,-1.6536,-1.6714,-1.6981,-1.7293,-1.7293,-1.744,-1.7582,-1.7582,-1.7582,-1.7582,-1.7582,-1.7629,-1.7669,-1.7602,-1.7629,-1.7669,-1.7602,-1.7582,-1.7655,-1.7909,-1.7995,-1.7995,-1.7995,-1.7995,-1.7909,-1.7649,-1.7582,-1.7582,-1.7582,-1.7582,-1.7582,-1.7582,-1.7582,-1.7582,-1.7582,-1.7582,-1.7502,-1.7326,-1.7239,-1.7025,-1.6563,-1.6402,-1.6179,-1.5945,-1.5818,-1.5784,-1.5784,-1.5784,-1.5343,-1.4364,-1.4316,-1.4166,-1.3926,-1.1891,-1.0681,-1.0386,-0.9069,-0.8432,-0.8432,-0.8137,-0.7988,-1.917,-1.913,-1.9259,-2.0544,-2.1551,-2.2305,-2.2744,-2.2955,-2.3091,-2.3091,-2.3091,-2.3091,-2.3091,-2.3091,-2.3091,-2.3091,-2.3091,-2.3091,-2.3091,-2.2589,-2.1987,-2.1382,-2.026,-1.9085,-1.7824,-1.7131,-1.6527,-1.5825,-1.5784,-1.5784,-1.5784,-1.5784,-1.5784,-1.5784,-1.5784,-1.5784,-1.5784,-1.5784,-1.5784,-1.5784,-1.5784,-1.5784,-1.5784,-1.5784,-1.5784,-1.5791,-1.5992,-1.5972,-1.5804,-1.6159,-1.6279,-1.6286,-1.644,-1.668,-1.7005,-1.7146,-1.7206,-1.7201,-1.7482,-1.7548,-1.7454,-1.7535,-1.7582,-1.7582,-1.7582,-1.7582,-1.7582,-1.7582,-1.7582,-1.7615,-1.7782,-1.7822,-1.7822,-1.7822,-1.7889,-1.7909,-1.7649,-1.7582,-1.7582,-1.7582,-1.7582,-1.7582,-1.7582,-1.7582,-1.7535,-1.7447,-1.7427,-1.732,-1.6974,-1.6864,-1.6663,-1.6355,-1.6146,-1.5999,-1.5798,-1.5784,-1.5534,-1.4949,-1.4902,-1.4316,-1.3006,-1.2377,-1.2037,-1.2037,-1.0676,-0.9706,-0.9019,-0.8333,-0.7988,-0.7988,-0.7988,-0.7988,-1.8008,-1.8633,-1.958,-2.081,-2.1709,-2.2334,-2.248,-2.2783,-2.3013,-2.3081,-2.3091,-2.3091,-2.3091,-2.3091,-2.3091,-2.3091,-2.3091,-2.3047,-2.2818,-2.1933,-2.1159,-2.0711,-1.891,-1.7598,-1.7412,-1.6433,-1.5784,-1.5784,-1.5784,-1.5784,-1.5784,-1.5784,-1.5784,-1.5784,-1.5784,-1.5784,-1.5784,-1.5784,-1.5784,-1.5784,-1.5784,-1.5784,-1.5784,-1.5784,-1.5784,-1.5784,-1.5784,-1.5784,-1.5784,-1.5784,-1.5972,-1.6192,-1.6192,-1.6373,-1.666,-1.6958,-1.6924,-1.6774,-1.7261,-1.736,-1.7239,-1.7481,-1.7542,-1.7582,-1.7582,-1.7582,-1.7582,-1.7582,-1.7582,-1.7582,-1.7582,-1.7582,-1.7582,-1.7582,-1.7776,-1.7896,-1.7642,-1.7582,-1.7582,-1.7582,-1.7582,-1.7582,-1.7582,-1.7582,-1.7502,-1.7313,-1.728,-1.7152,-1.6747,-1.65,-1.6306,-1.6206,-1.5979,-1.5784,-1.5784,-1.5581,-1.4997,-1.3974,-1.3686,-1.2958,-1.1604,-1.0583,-0.9903,-0.9657,-0.9657,-0.9118,-0.7988,-0.7988,-0.7988,-0.7988,-0.7988,-0.7988,-1.8008,-1.8633,-1.9512,-2.0458,-2.1035,-2.1561,-2.2344,-2.2559,-2.2705,-2.3023,-2.3091,-2.3091,-2.3091,-2.3091,-2.3091,-2.3091,-2.3091,-2.2721,-2.1712,-2.1382,-2.0531,-1.8411,-1.7917,-1.7271,-1.6157,-1.592,-1.5784,-1.5784,-1.5784,-1.5784,-1.5784,-1.5784,-1.5784,-1.5784,-1.5784,-1.5784,-1.5784,-1.5784,-1.5784,-1.5784,-1.5784,-1.5784,-1.5784,-1.5784,-1.5784,-1.5784,-1.5784,-1.5784,-1.5784,-1.5784,-1.5852,-1.5885,-1.5885,-1.6072,-1.6382,-1.6422,-1.652,-1.6714,-1.6794,-1.6967,-1.7206,-1.7246,-1.7427,-1.7582,-1.7582,-1.7582,-1.7582,-1.7582,-1.7582,-1.7582,-1.7582,-1.7582,-1.7582,-1.7582,-1.7615,-1.7629,-1.7595,-1.7582,-1.7582,-1.7582,-1.7582,-1.7582,-1.7582,-1.7582,-1.7569,-1.7528,-1.7522,-1.7328,-1.6774,-1.6673,-1.6453,-1.5945,-1.5852,-1.5784,-1.5784,-1.4806,-1.407,-1.3926,-1.2818,-1.1604,-1.0293,-1.0096,-0.946,-0.8283,-0.8283,-0.8187,-0.7988,-0.7988,-0.7988,-0.7988,-0.7988,-0.7988,-1.8256,-1.8818,-1.9434,-2.0049,-2.0723,-2.1298,-2.1668,-2.1992,-2.2217,-2.2402,-2.2441,-2.2578,-2.3013,-2.3091,-2.3091,-2.3091,-2.2389,-2.1727,-2.1355,-1.9973,-1.867,-1.7801,-1.7084,-1.6433,-1.5825,-1.5784,-1.5784,-1.5784,-1.5784,-1.5784,-1.5784,-1.5784,-1.5784,-1.5784,-1.5784,-1.5784,-1.5784,-1.5784,-1.5784,-1.5784,-1.5784,-1.5784,-1.5784,-1.5784,-1.5784,-1.5784,-1.5784,-1.5784,-1.5784,-1.5784,-1.5784,-1.5784,-1.5784,-1.5912,-1.6046,-1.6213,-1.6246,-1.6259,-1.6593,-1.6794,-1.6927,-1.7146,-1.7393,-1.7582,-1.7582,-1.7582,-1.7582,-1.7582,-1.7582,-1.7582,-1.7582,-1.7582,-1.7582,-1.7582,-1.7582,-1.7582,-1.7582,-1.7582,-1.7582,-1.7582,-1.7582,-1.7582,-1.7582,-1.7582,-1.7528,-1.742,-1.7393,-1.7179,-1.654,-1.5797,-1.5189,-1.4796,-1.4076,-1.3596,-1.3596,-1.3108,-1.2474,-1.1745,-1.1165,-1.0243,-0.8924,-0.8874,-0.8577,-0.7988,-0.7988,-0.7988,-0.7988,-0.7988,-0.7988,-0.7988,-0.7988,-0.7988,-1.8354,-1.8789,-1.9228,-1.9648,-2.0294,-2.0917,-2.1142,-2.1484,-2.1748,-2.1865,-2.1885,-2.208,-2.2662,-2.2822,-2.2822,-2.2822,-2.1644,-2.0661,-2.0598,-1.8568,-1.7123,-1.7111,-1.6275,-1.5752,-1.5771,-1.5784,-1.5784,-1.5784,-1.5784,-1.5784,-1.5784,-1.5784,-1.5784,-1.5784,-1.5784,-1.5784,-1.5784,-1.5784,-1.5784,-1.5784,-1.5784,-1.5635,-1.5343,-1.5343,-1.5146,-1.4806,-1.5146,-1.5343,-1.5289,-1.4956,-1.5003,-1.5343,-1.5343,-1.5486,-1.5804,-1.6079,-1.6019,-1.5844,-1.6333,-1.658,-1.674,-1.7018,-1.7286,-1.7482,-1.7562,-1.7528,-1.7488,-1.7562,-1.7582,-1.7582,-1.7582,-1.7582,-1.7582,-1.7582,-1.7582,-1.7582,-1.7582,-1.7582,-1.7582,-1.7582,-1.7582,-1.7582,-1.7582,-1.7582,-1.7508,-1.7347,-1.6989,-1.6523,-1.6002,-1.4713,-1.3732,-1.3426,-1.2479,-1.1896,-1.1896,-1.1604,-1.1023,-1.0047,-0.9657,-0.9019,-0.8038,-0.7988,-0.7988,-0.7988,-0.7988,-0.7988,-0.7988,-0.7988,-0.7988,-0.7988,-0.7988,-0.7988,-1.8037,-1.8315,-1.8734,-1.9209,-1.9648,-2.0167,-2.1005,-2.121,-2.1346,-2.1807,-2.1885,-2.1894,-2.1943,-2.1953,-2.1953,-2.1953,-2.1001,-1.9851,-1.8724,-1.7537,-1.6521,-1.5608,-1.5464,-1.5524,-1.5758,-1.5784,-1.5784,-1.5784,-1.5784,-1.5784,-1.5784,-1.5784,-1.5784,-1.5784,-1.5784,-1.5784,-1.5784,-1.5784,-1.5784,-1.5784,-1.5784,-1.5146,-1.4022,-1.4022,-1.3295,-1.2188,-1.3445,-1.4022,-1.3926,-1.2624,-1.2866,-1.4022,-1.4022,-1.4752,-1.5784,-1.5798,-1.5798,-1.5784,-1.5818,-1.6239,-1.6707,-1.6727,-1.6934,-1.7273,-1.7502,-1.744,-1.728,-1.7508,-1.7582,-1.7582,-1.7582,-1.7582,-1.7582,-1.7582,-1.7582,-1.7582,-1.7582,-1.7582,-1.7582,-1.7582,-1.7582,-1.7582,-1.7582,-1.7582,-1.7582,-1.7562,-1.6368,-1.5317,-1.4949,-1.3598,-1.2516,-1.2039,-1.1945,-1.1896,-1.1896,-1.0779,-1.0047,-0.9998,-0.8825,-0.8088,-0.7988,-0.7988,-0.7988,-0.7988,-0.7988,-0.7988,-0.7988,-0.7988,-0.7988,-0.7988,-0.7988,-0.7988,-1.8008,-1.8286,-1.8637,-1.8792,-1.9394,-1.999,-2.0274,-2.0605,-2.085,-2.1045,-2.1075,-2.1075,-2.1075,-2.1504,-2.1658,-2.0913,-1.9662,-1.8448,-1.751,-1.6198,-1.53,-1.5174,-1.5117,-1.5237,-1.5524,-1.5551,-1.5625,-1.5764,-1.5784,-1.5784,-1.5784,-1.5784,-1.5784,-1.5784,-1.5784,-1.5784,-1.5784,-1.4997,-1.4561,-1.4555,-1.3692,-1.306,-1.2624,-1.2624,-1.2334,-1.1896,-1.1556,-1.1843,-1.2576,-1.2091,-1.2188,-1.2624,-1.2624,-1.2915,-1.3307,-1.3307,-1.3836,-1.4561,-1.4561,-1.5396,-1.646,-1.6647,-1.6907,-1.7253,-1.7495,-1.7508,-1.7501,-1.7555,-1.7582,-1.7582,-1.7582,-1.7582,-1.7582,-1.7582,-1.7582,-1.7582,-1.7582,-1.7582,-1.7582,-1.7582,-1.7582,-1.7582,-1.7582,-1.6823,-1.6174,-1.6174,-1.499,-1.3901,-1.3475,-1.2233,-1.1206,-1.0838,-0.9966,-0.9458,-0.9574,-0.9034,-0.8726,-0.8726,-0.8283,-0.7988,-0.7988,-0.7988,-0.7988,-0.7988,-0.7988,-0.7988,-0.7988,-0.7988,-0.7988,-0.7988,-0.7988,-0.7988,-1.8008,0.0,-1.8422,-1.8568,-1.9026,-1.9485,-1.9668,-2.0039,-2.039,-2.039,-2.0507,-2.0605,-2.0605,-2.1085,-2.1101,-1.998,-1.8345,-1.7028,-1.6531,-1.5247,-1.4482,-1.4776,-1.4816,-1.493,-1.5224,-1.5337,-1.5478,-1.5671,-1.5724,-1.5784,-1.5784,-1.5784,-1.5784,-1.5784,-1.5784,-1.5581,-1.5146,-1.4316,-1.368,-1.3199,-1.2334,-1.1702,-1.1268,-1.1268,-1.1023,-1.0534,-0.9702,-1.0047,-1.1219,-1.0779,-1.0877,-1.1268,-1.1268,-1.1507,-1.1896,-1.1896,-1.2479,-1.3247,-1.3247,-1.401,-1.5183,-1.5821,-1.6163,-1.6478,-1.7237,-1.7368,-1.7308,-1.7408,-1.7508,-1.7477,-1.6988,-1.6499,-1.6174,-1.6174,-1.6499,-1.6876,-1.6876,-1.7259,-1.7582,-1.7582,-1.7199,-1.6876,-1.6876,-1.5636,-1.4716,-1.4716,-1.348,-1.2437,-1.2082,-1.0845,-0.9924,-0.9591,-0.8672,-0.8136,-0.8187,-0.8099,-0.7988,-0.7988,-0.7988,-0.7988,-0.7988,-0.7988,-0.7988,-0.7988,-0.7988,-0.7988,-0.7988,-0.7988,-0.7988,-0.7988,-0.7988,-0.7988,0.0,0.0,0.0,-1.8481,-1.8553,-1.8679,-1.9134,-1.9525,-1.9837,-1.9837,-2.0216,-2.0518,-2.0566,-2.0489,-2.0118,-1.9076,-1.7123,-1.5745,-1.5662,-1.4776,-1.4195,-1.4476,-1.4502,-1.4623,-1.4968,-1.5204,-1.5378,-1.5398,-1.5658,-1.5771,-1.5784,-1.5784,-1.5784,-1.5784,-1.5778,-1.5146,-1.3926,-1.3824,-1.3151,-1.1848,-1.1799,-1.1121,-0.9948,-0.9948,-0.9217,-0.7988,-0.7988,-0.8726,-0.985,-0.8531,-0.8775,-0.9948,-0.9948,-1.0681,-1.1799,-1.1799,-1.1799,-1.1848,-1.1848,-1.2173,-1.2833,-1.4281,-1.4648,-1.4853,-1.6593,-1.6846,-1.6666,-1.6972,-1.7251,-1.7134,-1.5683,-1.4341,-1.3318,-1.3318,-1.4341,-1.5364,-1.5364,-1.6446,-1.7477,-1.7529,-1.6333,-1.5364,-1.5364,-1.418,-1.3264,-1.3264,-1.1969,-1.0983,-1.0847,-0.9609,-0.8601,-0.8316,-0.833,-0.8218,-0.8022,-0.8005,-0.8002,-0.7995,-0.7995,-0.7995,-0.7988,-0.7988,-0.7988,-0.7988,-0.7988,-0.7988,-0.7988,-0.7988,-0.7988,-0.7988,-0.7988,-0.7988,-1.8008,0.0,0.0,0.0,0.0,0.0,-1.7759,-1.7744,-1.7949,-1.8745,-1.8512,-1.847,-1.9274,-1.8132,-1.6952,-1.6675,-1.6764,-1.6322,-1.4776,-1.4292,-1.4115,-1.4202,-1.4208,-1.4322,-1.4616,-1.4716,-1.4937,-1.5364,-1.5471,-1.5611,-1.5771,-1.5784,-1.5784,-1.5784,-1.4902,-1.4268,-1.3926,-1.2037,-1.0872,-1.0534,-0.9558,-0.8871,-0.8528,-0.8528,-0.8333,-0.7988,-0.7988,-0.8187,-0.8531,-0.8137,-0.8237,-0.8528,-0.8528,-0.8775,-0.9065,-0.9065,-0.9702,-1.0534,-1.0534,-1.1192,-1.2227,-1.2948,-1.31,-1.318,-1.4121,-1.4167,-1.3975,-1.4287,-1.432,-1.4223,-1.3971,-1.3588,-1.3318,-1.3318,-1.3588,-1.3857,-1.3857,-1.418,-1.4776,-1.5796,-1.4883,-1.3857,-1.3857,-1.2674,-1.1701,-1.1701,-1.0457,-0.9475,-0.9312,-0.8975,-0.8679,-0.8598,-0.8489,-0.8452,-0.852,-0.8425,-0.8316,-0.8214,-0.8208,-0.8157,-0.7995,-0.7988,-0.7988,-0.7988,-0.7988,-0.7988,-0.7988,-0.7988,-0.7988,-0.7988,-0.7988,-0.7988,0.0,0.0,0.0,-1.7134,0.0,0.0,-1.6548,-1.6478,-1.6636,-1.7409,-1.7318,-1.7384,-1.8155,-1.7253,-1.6232,-1.5779,-1.6232,-1.6034,-1.4334,-1.4088,-1.4088,-1.4088,-1.4088,-1.4155,-1.4322,-1.4449,-1.4663,-1.5003,-1.5257,-1.5524,-1.5764,-1.5784,-1.5784,-1.5784,-1.4561,-1.3632,-1.3054,-1.1019,-0.9706,-0.9167,-0.8382,-0.7988,-0.7988,-0.7988,-0.7988,-0.7988,-0.7988,-0.7988,-0.7988,-0.7988,-0.7988,-0.7988,-0.7988,-0.7988,-0.7988,-0.7988,-0.8482,-0.9167,-0.9167,-0.9706,-1.0549,-1.142,-1.1567,-1.1639,-1.263,-1.2776,-1.2674,-1.2888,-1.2518,-1.2187,-1.2346,-1.1914,-1.1483,-1.1483,-1.1914,-1.2403,-1.2403,-1.2403,-1.2832,-1.4234,-1.3372,-1.2403,-1.2403,-1.116,-1.0186,-1.0186,-0.9427,-0.8851,-0.8818,-0.8804,-0.8781,-0.8716,-0.8632,-0.8587,-0.8615,-0.8533,-0.8445,-0.8364,-0.8354,-0.8231,-0.814,-0.8022,-0.7988,-0.7988,-0.7988,-0.7988,-0.7988,-0.7988,-0.7988,-0.7988,-0.7988,-0.7988,0.0,0.0,0.0,-1.5956,-1.5726,0.0,-1.545,-1.5466,-1.5609,-1.5924,-1.6266,-1.6617,-1.6951,-1.6968,-1.6586,-1.561,-1.5516,-1.5179,-1.425,-1.4088,-1.4088,-1.4088,-1.4088,-1.4088,-1.4088,-1.4322,-1.4482,-1.4516,-1.5064,-1.5524,-1.5764,-1.5784,-1.5784,-1.5784,-1.4411,-1.3102,-1.1901,-1.0485,-0.9167,-0.7988,-0.7988,-0.7988,-0.7988,-0.7988,-0.7988,-0.7988,-0.7988,-0.7988,-0.7988,-0.7988,-0.7988,-0.7988,-0.7988,-0.7988,-0.7988,-0.7988,-0.7988,-0.7988,-0.7988,-0.813,-0.85,-0.9766,-1.0054,-1.0197,-1.1575,-1.1948,-1.1904,-1.1953,-1.1329,-1.0708,-1.0841,-0.986,-0.8885,-0.8885,-0.9915,-1.0836,-1.0836,-1.0836,-1.1214,-1.2566,-1.1755,-1.0836,-1.0836,-0.9754,-0.8885,-0.8885,-0.8885,-0.8885,-0.8885,-0.8885,-0.8831,-0.875,-0.8733,-0.8679,-0.8543,-0.8533,-0.8526,-0.8509,-0.8387,-0.8354,-0.8323,-0.814,-0.8008,-0.7988,-0.7988,-0.7988,-0.7988,-0.7988,-0.7988,-0.7988,-0.7988,-0.7998,-1.6225,-1.5932,-1.5948,-1.5983,-1.5387,0.0,-1.4516,-1.4074,-1.3903,-1.46,-1.4296,-1.4191,-1.5139,-1.4743,-1.4247,-1.4042,-1.4248,-1.4328,-1.413,-1.4088,-1.4088,-1.4088,-1.4088,-1.4088,-1.4088,-1.4135,-1.4269,-1.4502,-1.5064,-1.5524,-1.5764,-1.5784,-1.5784,-1.5784,-1.3499,-1.2139,-1.1896,-0.9558,-0.8237,-0.7988,-0.7988,-0.7988,-0.7988,-0.7988,-0.7988,-0.7988,-0.7988,-0.7988,-0.7988,-0.7988,-0.7988,-0.7988,-0.7988,-0.7988,-0.7988,-0.7988,-0.7988,-0.7988,-0.7988,-0.8008,-0.8156,-0.858,-0.8581,-0.8546,-0.9242,-0.9135,-0.8926,-0.9186,-0.9195,-0.9169,-0.9277,-0.9099,-0.8885,-0.8885,-0.9099,-0.9316,-0.9316,-0.9316,-0.9427,-0.9699,-0.9537,-0.9316,-0.9316,-0.9103,-0.8885,-0.8885,-0.8885,-0.8885,-0.8885,-0.8885,-0.8871,-0.8841,-0.8841,-0.8828,-0.8797,-0.8849,-0.8798,-0.8672,-0.8638,-0.852,-0.8333,-0.8241,-0.8167,-0.7992,-0.7988,-0.7988,-0.7988,-0.7988,-0.7988,-0.7988,-0.7988,-0.8106,-1.5036,-1.4806,-1.4843,-1.5013,-1.458,0.0,0.0,-1.3425,-1.3167,-1.3702,-1.3361,-1.3214,-1.386,-1.3795,-1.36,-1.36,-1.3895,-1.4088,-1.4088,-1.4088,-1.4088,-1.4088,-1.4088,-1.4088,-1.4088,-1.4088,-1.4208,-1.4496,-1.493,-1.5304,-1.5598,-1.5752,-1.5486,-1.4848,-1.2915,-1.1604,-1.0974,-0.897,-0.7988,-0.7988,-0.7988,-0.7988,-0.7988,-0.7988,-0.7988,-0.7988,-0.7988,-0.7988,-0.7988,-0.7988,-0.7988,-0.7988,-0.7988,-0.7988,-0.7988,-0.7988,-0.7988,-0.7988,-0.7988,-0.7988,-0.8002,-0.813,-0.8102,-0.8032,-0.8258,-0.8167,-0.8052,-0.8397,-0.8537,-0.8632,-0.8784,-0.8824,-0.8865,-0.879,-0.8828,-0.8885,-0.8885,-0.8885,-0.8885,-0.8885,-0.8885,-0.8885,-0.8885,-0.8885,-0.8885,-0.8885,-0.8885,-0.8885,-0.8885,-0.8885,-0.8885,-0.8885,-0.8885,-0.8885,-0.8885,-0.8885,-0.8851,-0.8828,-0.8754,-0.8645,-0.8496,-0.8418,-0.8306,-0.8157,-0.8153,-0.8116,-0.7988,-0.7988,-0.7988,-0.7992,-0.8119,-0.8197,-1.3899,-1.3686,-1.3746,-1.4028,-1.3908,-1.3673,0.0,0.0,0.0,-1.3173,-1.3013,-1.2951,-1.3166,-1.3407,-1.3547,-1.3373,-1.3734,-1.3941,-1.3768,-1.3841,-1.3961,-1.4075,-1.4088,-1.4088,-1.4088,-1.4088,-1.4208,-1.4496,-1.4743,-1.503,-1.5378,-1.5618,-1.5136,-1.392,-1.2624,-1.1312,-0.9998,-0.8676,-0.7988,-0.7988,-0.7988,-0.7988,-0.7988,-0.7988,-0.7988,-0.7988,-0.7988,-0.7988,-0.7988,-0.7988,-0.7988,-0.7988,-0.7988,-0.7988,-0.7988,-0.7988,-0.7988,-0.7988,-0.7988,-0.7988,-0.7988,-0.7988,-0.8008,-0.8029,-0.7998,-0.8012,-0.8133,-0.8374,-0.8442,-0.8476,-0.8628,-0.8781,-0.8807,-0.874,-0.8828,-0.8885,-0.8885,-0.8885,-0.8885,-0.8885,-0.8885,-0.8885,-0.8885,-0.8885,-0.8885,-0.8885,-0.8885,-0.8885,-0.8885,-0.8885,-0.8885,-0.8885,-0.8885,-0.8885,-0.8885,-0.8885,-0.8885,-0.8885,-0.8821,-0.8743,-0.8713,-0.8564,-0.8428,-0.8364,-0.8364,-0.8248,-0.8073,-0.8073,-0.8059,-0.8039,-0.8211,-0.835,-1.4308,-1.4035,-1.4048,-1.4082,-1.4062,-1.3968,-1.366,0.0,-1.344,-1.326,0.0,-1.3166,-1.32,0.0,0.0,-1.2585,-1.3114,-1.3373,-1.2619,-1.2973,-1.35,-1.4028,-1.4088,-1.4088,-1.4088,-1.4088,-1.4208,-1.4496,-1.4549,-1.481,-1.5364,-1.5431,-1.4984,-1.392,-1.2624,-1.1312,-0.9998,-0.8676,-0.7988,-0.7988,-0.7988,-0.7988,-0.7988,-0.7988,-0.7988,-0.7988,-0.7988,-0.7988,-0.7988,-0.7988,-0.7988,-0.7988,-0.7988,-0.7988,-0.7988,-0.7988,-0.7988,-0.7988,-0.7988,-0.7988,-0.7988,-0.7988,-0.8133,-0.8218,-0.8029,-0.8136,-0.8252,-0.8337,-0.8347,-0.8378,-0.8472,-0.8621,-0.873,-0.8713,-0.8828,-0.8885,-0.8885,-0.8885,-0.8885,-0.8885,-0.8885,-0.8885,-0.8885,-0.8885,-0.8885,-0.8885,-0.8885,-0.8885,-0.8885,-0.8885,-0.8885,-0.8885,-0.8885,-0.8885,-0.8885,-0.8885,-0.8885,-0.8885,-0.8868,-0.8797,-0.8716,-0.8564,-0.8476,-0.8459,-0.8459,-0.8448,-0.8431,-0.8431,-0.8367,-0.8245,-0.8313,-0.8411,-1.4208,-1.4088,-1.4088,-1.4088,-1.4088,-1.4055,-1.3928,-1.3726,-1.3567,-1.3447,0.0,0.0,0.0,0.0,0.0,0.0,-1.3353,-1.3473,-1.3094,-1.3153,-1.33,-1.3547,-1.3728,-1.3901,-1.4068,-1.4088,-1.4135,-1.4262,-1.4429,-1.4623,-1.4877,-1.4404,-1.3628,-1.2543,-1.1317,-1.0078,-0.8871,-0.8283,-0.7988,-0.7988,-0.7988,-0.7988,-0.7988,-0.7988,-0.7988,-0.7988,-0.7988,-0.7988,-0.7988,-0.7988,-0.7988,-0.7988,-0.7988,-0.7988,-0.7988,-0.7988,-0.7988,-0.7988,-0.7988,-0.7988,-0.7988,-0.7988,-0.8032,-0.8126,-0.8008,-0.8035,-0.8153,-0.8245,-0.8323,-0.8337,-0.8343,-0.8533,-0.8686,-0.8601,-0.8764,-0.8885,-0.8885,-0.8885,-0.8885,-0.8885,-0.8885,-0.8885,-0.8885,-0.8885,-0.8885,-0.8885,-0.8885,-0.8885,-0.8885,-0.8885,-0.8885,-0.8885,-0.8885,-0.8885,-0.8885,-0.8885,-0.8885,-0.8885,-0.8885,-0.8854,-0.879,-0.8781,-0.8706,-0.8615,-0.8615,-0.857,-0.8482,-0.8482,-0.8499,-0.8526,-0.8526,-0.8591,-1.4208,-1.4269,-1.4309,-1.4222,-1.4208,-1.4182,-1.4108,-1.3921,-1.3726,-1.3726,-1.3594,0.0,0.0,0.0,-1.3646,0.0,0.0,-1.34,-1.3154,-1.3046,-1.3026,-1.3193,-1.336,-1.3607,-1.3828,-1.3848,-1.3881,-1.3961,-1.4162,-1.4349,-1.4466,-1.359,-1.2603,-1.1539,-1.0373,-0.9231,-0.7988,-0.7988,-0.7988,-0.7988,-0.7988,-0.7988,-0.7988,-0.7988,-0.7988,-0.7988,-0.7988,-0.7988,-0.7988,-0.7988,-0.7988,-0.7988,-0.7988,-0.7988,-0.7988,-0.7988,-0.7988,-0.7988,-0.7988,-0.7988,-0.7988,-0.7988,-0.7988,-0.7988,-0.7988,-0.7988,-0.8012,-0.8177,-0.8208,-0.8218,-0.831,-0.8459,-0.8628,-0.856,-0.8747,-0.8885,-0.8885,-0.8885,-0.8885,-0.8885,-0.8885,-0.8885,-0.8885,-0.8885,-0.8885,-0.8885,-0.8885,-0.8885,-0.8885,-0.8885,-0.8885,-0.8885,-0.8885,-0.8885,-0.8885,-0.8885,-0.8885,-0.8885,-0.8885,-0.8885,-0.8885,-0.8885,-0.8831,-0.8774,-0.8774,-0.8716,-0.8608,-0.8608,-0.8665,-0.8771,-0.873,-0.8733,-1.4502,-1.4716,-1.4914,-1.4583,-1.4502,-1.4436,-1.4155,-1.4082,-1.4075,-1.4075,-1.4068,-1.4055,-1.4055,-1.4068,0.0,0.0,0.0,0.0,0.0,-1.2164,-1.2552,-1.314,-1.322,-1.3227,-1.324,-1.324,-1.3353,-1.3593,-1.3626,-1.388,-1.4489,-1.3442,-1.2417,-1.1534,-1.0373,-0.9231,-0.7988,-0.7988,-0.7988,-0.7988,-0.7988,-0.7988,-0.7988,-0.7988,-0.7988,-0.7988,-0.7988,-0.7988,-0.7988,-0.7988,-0.7988,-0.7988,-0.7988,-0.7988,-0.7988,-0.7988,-0.7988,-0.7988,-0.7988,-0.7988,-0.7988,-0.7988,-0.7988,-0.7988,-0.7988,-0.7988,-0.7992,-0.7995,-0.7995,-0.8032,-0.8231,-0.8381,-0.8526,-0.8669,-0.8825,-0.8885,-0.8885,-0.8885,-0.8885,-0.8885,-0.8885,-0.8885,-0.8885,-0.8885,-0.8885,-0.8885,-0.8885,-0.8885,-0.8885,-0.8885,-0.8885,-0.8885,-0.8885,-0.8885,-0.8885,-0.8885,-0.8885,-0.8885,-0.8885,-0.8885,-0.8885,-0.8885,-0.8881,-0.8875,-0.8875,-0.8871,-0.8868,-0.8868,-0.8871,-0.8871,-0.8777,-0.8791,-1.4522,-1.4456,-1.4402,-1.4496,-1.4376,-1.4255,-1.4349,-1.4222,-1.4088,-1.4088,-1.4088,-1.4088,-1.4088,-1.4088,0.0,0.0,0.0,0.0,0.0,-1.2703,-1.271,-1.2918,-1.2945,-1.3025,-1.3186,-1.3213,-1.3327,-1.358,-1.36,-1.3773,-1.4215,-1.2458,-1.1391,-1.123,-0.9457,-0.8317,-0.7988,-0.7988,-0.7988,-0.7988,-0.7988,-0.7988,-0.7988,-0.7988,-0.7988,-0.7988,-0.7988,-0.7988,-0.7988,-0.7988,-0.7988,-0.7988,-0.7988,-0.7988,-0.7988,-0.7988,-0.7988,-0.7988,-0.7988,-0.7988,-0.7988,-0.7988,-0.7988,-0.7988,-0.7988,-0.7988,-0.7988,-0.7988,-0.7988,-0.8025,-0.8231,-0.8377,-0.852,-0.8672,-0.8828,-0.8885,-0.8885,-0.8885,-0.8885,-0.8885,-0.8885,-0.8885,-0.8885,-0.8885,-0.8885,-0.8885,-0.8885,-0.8885,-0.8885,-0.8885,-0.8885,-0.8885,-0.8885,-0.8885,-0.8885,-0.8885,-0.8885,-0.8885,-0.8885,-0.8885,-0.8885,-0.8885,-0.8885,-0.8885,-0.8885,-0.8885,-0.8885,-0.8885,-0.8885,-0.8881,-0.8831,-0.8834,-1.483,-1.477,-1.4703,-1.4683,-1.4536,-1.4396,-1.4376,-1.4222,-1.4088,-1.4088,-1.4088,-1.4088,-1.4088,-1.3737,0.0,0.0,0.0,0.0,0.0,-1.2408,-1.215,-1.1697,-1.1966,-1.2434,-1.2987,-1.2629,-1.2654,-1.342,-1.3447,-1.3667,-1.4068,-1.2019,-1.091,-1.1079,-0.8954,-0.7885,-0.7988,-0.7988,-0.7988,-0.7988,-0.7988,-0.7988,-0.7988,-0.7988,-0.7988,-0.7988,-0.7988,-0.7988,-0.7988,-0.7988,-0.7988,-0.7988,-0.7988,-0.7988,-0.7988,-0.7988,-0.7988,-0.7988,-0.7988,-0.7988,-0.7988,-0.7988,-0.7988,-0.7988,-0.7988,-0.7988,-0.7988,-0.7988,-0.8029,-0.8157,-0.8306,-0.8455,-0.8601,-0.8757,-0.8811,-0.8885,-0.8885,-0.8885,-0.8885,-0.8885,-0.8885,-0.8885,-0.8885,-0.8885,-0.8885,-0.8885,-0.8885,-0.8885,-0.8885,-0.8885,-0.8885,-0.8885,-0.8885,-0.8885,-0.8885,-0.8885,-0.8885,-0.8885,-0.8885,-0.8885,-0.8885,-0.8885,-0.8905,-0.9015,-0.8908,-0.8908,-0.9015,-0.8908,-0.8885,-0.8885,-0.8885,-0.8885]},{"header":{"parameterUnit":"m.s-1","parameterCategory":1,"la1":30.6,"la2":29.2853,"lo1":-89.7004,"lo2":-87.6739,"dy":0.0162,"dx":0.0183,"nx":112,"ny":82,"refTime":"2023-09-17T00:00:00:Z","depth":0,"parameterNumber":3,"parameterNumberName":"V-component_of_WINDS"},"data":[0.0,0.0,0.0,0.0,0.0,0.0,0.0,0.0,0.0,0.0,0.0,0.0,0.0,0.0,0.0,0.0,0.0,0.0,0.0,0.0,0.0,0.0,0.0,0.0,0.0,0.0,0.0,0.0,0.0,0.0,0.0,0.0,0.0,0.0,0.0,0.0,0.0,0.0,0.0,0.0,0.0,0.0,0.0,0.0,0.0,0.0,0.0,0.0,0.0,0.0,0.0,0.0,0.0,0.0,0.0,0.0,0.0,0.0,0.0,0.0,0.0,0.0,0.0,0.0,0.0,0.0,0.0,0.0,0.0,0.0,0.0,0.0,0.0,0.0,0.0,0.0,0.0,0.0,0.0,0.0,0.0,0.0,0.0,0.0,0.0,0.0,0.0,0.0,0.0,0.0,2.419,2.419,2.419,2.419,2.419,2.419,2.4357,2.4731,0.0,0.0,0.0,0.0,0.0,0.0,0.0,0.0,0.0,0.0,0.0,0.0,0.0,0.0,0.0,0.0,0.0,0.0,0.0,0.0,0.0,0.0,0.0,0.0,0.0,0.0,0.0,0.0,0.0,0.0,0.0,0.0,0.0,0.0,0.0,0.0,0.0,0.0,0.0,0.0,0.0,0.0,0.0,0.0,0.0,0.0,0.0,0.0,0.0,0.0,0.0,0.0,0.0,0.0,0.0,0.0,0.0,0.0,0.0,0.0,0.0,0.0,0.0,0.0,0.0,0.0,0.0,0.0,0.0,0.0,0.0,0.0,0.0,0.0,0.0,0.0,0.0,0.0,0.0,0.0,0.0,0.0,0.0,0.0,0.0,0.0,0.0,0.0,0.0,0.0,0.0,0.0,0.0,0.0,0.0,0.0,0.0,0.0,0.0,0.0,0.0,0.0,0.0,0.0,2.419,2.419,2.419,2.419,2.419,2.419,2.4303,2.4537,0.0,0.0,0.0,0.0,0.0,0.0,0.0,0.0,0.0,0.0,0.0,0.0,0.0,0.0,0.0,0.0,0.0,0.0,0.0,0.0,0.0,0.0,0.0,0.0,0.0,0.0,0.0,0.0,0.0,0.0,0.0,0.0,0.0,0.0,0.0,0.0,0.0,0.0,0.0,0.0,0.0,0.0,0.0,0.0,0.0,0.0,0.0,0.0,0.0,0.0,0.0,0.0,0.0,0.0,0.0,0.0,0.0,0.0,0.0,0.0,0.0,0.0,0.0,0.0,0.0,0.0,0.0,0.0,0.0,0.0,0.0,0.0,0.0,0.0,0.0,0.0,0.0,0.0,0.0,0.0,0.0,0.0,0.0,0.0,0.0,0.0,0.0,0.0,0.0,0.0,0.0,0.0,0.0,0.0,0.0,0.0,0.0,0.0,0.0,0.0,0.0,0.0,0.0,2.419,2.419,2.419,2.419,2.419,2.419,2.419,2.4284,2.4486,2.4602,0.0,0.0,0.0,0.0,0.0,0.0,0.0,0.0,0.0,0.0,0.0,0.0,0.0,0.0,0.0,0.0,0.0,0.0,0.0,0.0,0.0,0.0,0.0,0.0,0.0,0.0,0.0,0.0,0.0,0.0,0.0,0.0,0.0,0.0,0.0,0.0,0.0,0.0,0.0,0.0,0.0,0.0,0.0,0.0,0.0,0.0,0.0,0.0,0.0,0.0,0.0,0.0,0.0,0.0,0.0,0.0,0.0,0.0,0.0,0.0,0.0,0.0,0.0,0.0,0.0,0.0,0.0,0.0,0.0,0.0,0.0,0.0,0.0,0.0,0.0,0.0,0.0,0.0,0.0,0.0,0.0,0.0,0.0,0.0,0.0,0.0,0.0,0.0,0.0,0.0,0.0,0.0,0.0,0.0,0.0,0.0,0.0,0.0,0.0,0.0,0.0,0.0,2.419,2.419,2.419,2.419,2.419,2.419,2.419,2.4275,2.4428,2.452,0.0,0.0,0.0,0.0,0.0,0.0,0.0,0.0,0.0,0.0,0.0,0.0,0.0,0.0,0.0,0.0,0.0,0.0,0.0,0.0,0.0,0.0,0.0,0.0,0.0,0.0,0.0,0.0,0.0,0.0,0.0,0.0,0.0,0.0,0.0,0.0,0.0,0.0,0.0,0.0,0.0,0.0,0.0,0.0,0.0,0.0,0.0,0.0,0.0,0.0,0.0,0.0,0.0,0.0,0.0,0.0,0.0,0.0,0.0,0.0,0.0,0.0,0.0,0.0,0.0,0.0,0.0,0.0,0.0,0.0,0.0,0.0,0.0,0.0,0.0,0.0,0.0,0.0,0.0,0.0,0.0,0.0,0.0,0.0,0.0,0.0,0.0,0.0,0.0,0.0,0.0,0.0,0.0,0.0,0.0,0.0,0.0,0.0,0.0,0.0,0.0,0.0,2.419,2.419,2.419,2.419,2.419,2.419,2.419,2.4218,2.4218,2.4567,0.0,0.0,0.0,0.0,0.0,0.0,0.0,0.0,0.0,0.0,0.0,0.0,0.0,0.0,0.0,0.0,0.0,0.0,0.0,0.0,0.0,0.0,0.0,0.0,0.0,0.0,0.0,0.0,0.0,0.0,0.0,0.0,0.0,0.0,0.0,0.0,0.0,0.0,0.0,0.0,0.0,0.0,0.0,0.0,0.0,0.0,0.0,0.0,0.0,0.0,0.0,0.0,0.0,0.0,0.0,0.0,0.0,0.0,0.0,0.0,0.0,0.0,0.0,0.0,0.0,0.0,0.0,0.0,0.0,0.0,0.0,0.0,0.0,0.0,0.0,0.0,0.0,0.0,0.0,0.0,0.0,0.0,0.0,0.0,0.0,0.0,0.0,0.0,0.0,0.0,0.0,0.0,0.0,0.0,0.0,0.0,0.0,0.0,0.0,0.0,0.0,0.0,2.419,2.4392,2.4897,2.4511,2.4392,2.4915,2.4952,2.4732,2.4226,0.0,0.0,0.0,0.0,0.0,0.0,0.0,0.0,0.0,0.0,0.0,0.0,0.0,0.0,0.0,0.0,0.0,0.0,0.0,0.0,0.0,0.0,0.0,0.0,0.0,0.0,0.0,0.0,0.0,0.0,0.0,0.0,0.0,0.0,0.0,0.0,0.0,0.0,0.0,0.0,0.0,0.0,0.0,0.0,0.0,0.0,0.0,0.0,0.0,0.0,0.0,0.0,0.0,0.0,0.0,0.0,0.0,0.0,0.0,0.0,0.0,0.0,0.0,0.0,0.0,0.0,0.0,0.0,0.0,0.0,0.0,0.0,0.0,0.0,0.0,0.0,0.0,0.0,0.0,0.0,0.0,0.0,0.0,0.0,0.0,0.0,0.0,0.0,0.0,0.0,0.0,0.0,0.0,0.0,0.0,0.0,0.0,0.0,0.0,0.0,0.0,0.0,2.4548,2.4585,2.4897,2.5686,2.5291,2.5181,2.5742,2.5778,2.5558,2.4997,0.0,0.0,0.0,0.0,0.0,0.0,0.0,0.0,0.0,0.0,0.0,0.0,0.0,0.0,0.0,0.0,0.0,0.0,0.0,0.0,0.0,0.0,0.0,0.0,0.0,0.0,0.0,0.0,0.0,0.0,0.0,0.0,0.0,0.0,0.0,0.0,0.0,0.0,0.0,0.0,0.0,0.0,0.0,0.0,0.0,0.0,0.0,0.0,0.0,0.0,0.0,0.0,0.0,0.0,0.0,0.0,0.0,0.0,0.0,0.0,0.0,0.0,0.0,0.0,0.0,0.0,0.0,0.0,0.0,0.0,0.0,0.0,0.0,0.0,0.0,0.0,0.0,0.0,0.0,0.0,0.0,0.0,0.0,0.0,0.0,0.0,0.0,0.0,0.0,0.0,0.0,0.0,0.0,0.0,0.0,0.0,0.0,0.0,0.0,0.0,0.0,0.0,2.5301,2.5411,2.5723,2.651,2.6602,2.6602,2.6602,2.6602,2.6602,0.0,0.0,0.0,0.0,0.0,0.0,0.0,0.0,0.0,0.0,0.0,0.0,0.0,0.0,0.0,0.0,0.0,0.0,0.0,0.0,0.0,0.0,0.0,0.0,0.0,0.0,0.0,0.0,0.0,0.0,0.0,0.0,0.0,0.0,0.0,0.0,0.0,0.0,0.0,0.0,0.0,0.0,0.0,0.0,0.0,0.0,0.0,0.0,0.0,0.0,0.0,0.0,0.0,0.0,0.0,0.0,0.0,0.0,0.0,0.0,0.0,0.0,0.0,0.0,0.0,0.0,0.0,0.0,0.0,0.0,0.0,0.0,0.0,0.0,0.0,0.0,0.0,0.0,0.0,0.0,0.0,0.0,0.0,0.0,0.0,0.0,0.0,0.0,0.0,0.0,0.0,0.0,0.0,0.0,0.0,0.0,0.0,0.0,0.0,0.0,0.0,0.0,0.0,2.5726,2.6071,2.6454,2.6969,2.6775,2.6833,2.7402,2.7438,2.72,2.6649,0.0,0.0,0.0,0.0,0.0,0.0,0.0,0.0,0.0,0.0,0.0,0.0,0.0,0.0,0.0,0.0,0.0,0.0,0.0,0.0,0.0,0.0,0.0,0.0,0.0,0.0,0.0,0.0,0.0,0.0,0.0,0.0,0.0,0.0,0.0,0.0,0.0,0.0,0.0,0.0,0.0,0.0,0.0,0.0,0.0,0.0,0.0,0.0,0.0,0.0,0.0,0.0,0.0,0.0,0.0,0.0,0.0,0.0,0.0,0.0,0.0,0.0,0.0,0.0,0.0,0.0,0.0,0.0,0.0,0.0,0.0,0.0,0.0,0.0,0.0,0.0,0.0,0.0,0.0,0.0,0.0,0.0,0.0,0.0,0.0,0.0,0.0,0.0,0.0,0.0,0.0,0.0,0.0,0.0,0.0,0.0,0.0,0.0,0.0,0.0,0.0,0.0,2.619,2.6603,2.704,2.7621,2.7613,2.7739,2.8246,2.8282,2.8081,2.7592,0.0,0.0,0.0,0.0,0.0,0.0,0.0,0.0,0.0,0.0,0.0,0.0,0.0,0.0,0.0,0.0,0.0,0.0,0.0,0.0,0.0,0.0,0.0,0.0,0.0,0.0,0.0,0.0,0.0,0.0,0.0,0.0,0.0,0.0,0.0,0.0,0.0,0.0,0.0,0.0,0.0,0.0,0.0,0.0,0.0,0.0,0.0,0.0,0.0,0.0,0.0,0.0,0.0,0.0,0.0,0.0,0.0,0.0,0.0,0.0,0.0,0.0,0.0,0.0,0.0,0.0,0.0,0.0,0.0,0.0,0.0,0.0,0.0,0.0,0.0,0.0,0.0,0.0,0.0,0.0,0.0,0.0,0.0,0.0,0.0,0.0,0.0,0.0,0.0,0.0,0.0,0.0,0.0,0.0,0.0,0.0,0.0,0.0,0.0,0.0,0.0,0.0,2.6637,2.7058,2.7527,2.8283,2.8713,2.8952,2.8994,2.9005,2.9005,2.9005,0.0,0.0,0.0,0.0,0.0,0.0,0.0,0.0,0.0,0.0,0.0,0.0,0.0,0.0,0.0,0.0,0.0,0.0,0.0,0.0,0.0,0.0,0.0,0.0,0.0,0.0,0.0,0.0,0.0,0.0,0.0,0.0,0.0,0.0,0.0,0.0,0.0,0.0,0.0,0.0,0.0,0.0,0.0,0.0,0.0,0.0,0.0,0.0,0.0,0.0,0.0,0.0,0.0,0.0,0.0,0.0,0.0,0.0,0.0,0.0,2.4857,2.5121,0.0,0.0,0.0,0.0,0.0,0.0,0.0,0.0,0.0,0.0,0.0,0.0,0.0,0.0,0.0,0.0,0.0,0.0,0.0,0.0,0.0,0.0,0.0,0.0,0.0,0.0,0.0,0.0,0.0,0.0,0.0,0.0,0.0,0.0,0.0,0.0,0.0,0.0,0.0,0.0,2.7078,2.7518,2.7814,2.7992,2.8316,2.8658,2.8964,2.9005,2.9005,2.9005,2.884,0.0,0.0,0.0,0.0,0.0,0.0,0.0,0.0,0.0,0.0,0.0,0.0,0.0,0.0,0.0,0.0,0.0,0.0,0.0,0.0,0.0,0.0,0.0,0.0,0.0,0.0,0.0,0.0,0.0,0.0,0.0,0.0,0.0,0.0,0.0,0.0,0.0,0.0,0.0,0.0,0.0,0.0,0.0,0.0,0.0,0.0,0.0,0.0,0.0,0.0,0.0,0.0,0.0,0.0,0.0,0.0,0.0,0.0,0.0,2.5989,2.5257,0.0,0.0,0.0,0.0,0.0,0.0,0.0,0.0,0.0,0.0,0.0,0.0,0.0,0.0,0.0,0.0,0.0,0.0,0.0,0.0,0.0,0.0,0.0,0.0,0.0,0.0,0.0,0.0,0.0,0.0,0.0,0.0,0.0,0.0,0.0,0.0,0.0,0.0,0.0,0.0,2.6951,2.7363,2.7695,2.7883,2.8197,2.8565,2.897,2.9005,2.9005,2.9005,2.9005,0.0,0.0,0.0,0.0,0.0,0.0,0.0,0.0,0.0,0.0,0.0,0.0,0.0,0.0,0.0,0.0,0.0,0.0,0.0,0.0,0.0,0.0,0.0,0.0,0.0,0.0,0.0,0.0,0.0,0.0,0.0,0.0,0.0,0.0,0.0,0.0,0.0,0.0,0.0,0.0,0.0,0.0,0.0,0.0,0.0,0.0,0.0,0.0,0.0,0.0,0.0,0.0,0.0,3.0378,3.1004,3.1579,3.1579,3.1579,3.1396,2.7946,2.6167,2.573,2.599,0.0,0.0,0.0,0.0,0.0,0.0,0.0,0.0,0.0,0.0,0.0,0.0,0.0,0.0,0.0,0.0,0.0,0.0,0.0,0.0,0.0,0.0,2.9059,2.9015,2.946,2.9583,2.8348,0.0,0.0,0.0,0.0,0.0,0.0,0.0,0.0,0.0,0.0,0.0,2.7097,2.7381,2.7749,2.8126,2.8513,2.8807,2.9089,2.9172,2.9152,2.9005,2.9005,2.9005,0.0,0.0,0.0,0.0,0.0,0.0,0.0,0.0,0.0,0.0,0.0,0.0,0.0,0.0,0.0,0.0,0.0,0.0,0.0,0.0,0.0,0.0,0.0,0.0,0.0,0.0,0.0,0.0,0.0,0.0,0.0,0.0,2.3385,2.3475,0.0,0.0,0.0,0.0,0.0,0.0,0.0,0.0,0.0,0.0,0.0,0.0,0.0,3.0045,3.1297,3.2117,3.2628,3.2831,3.2933,3.3034,3.3119,3.3119,3.3119,3.3085,3.2517,0.0,2.8472,2.8524,0.0,0.0,0.0,0.0,0.0,0.0,0.0,0.0,0.0,0.0,0.0,0.0,0.0,0.0,0.0,0.0,0.0,0.0,0.0,0.0,0.0,0.0,2.935,2.9074,2.9071,2.9105,2.8901,2.9076,2.9294,2.9294,2.9008,2.8557,0.0,0.0,0.0,0.0,0.0,0.0,2.8705,2.8742,2.8903,2.9244,2.9679,2.984,2.9543,2.9843,2.9739,2.9042,2.9005,2.9005,2.9005,2.9005,0.0,0.0,0.0,0.0,0.0,0.0,0.0,0.0,0.0,0.0,0.0,0.0,0.0,0.0,0.0,0.0,0.0,0.0,0.0,0.0,0.0,0.0,0.0,0.0,0.0,0.0,0.0,0.0,0.0,2.4073,2.4582,2.4201,2.4837,2.5136,0.0,0.0,0.0,0.0,0.0,0.0,0.0,0.0,0.0,2.938,2.999,3.0776,3.1782,3.2405,3.3362,3.4642,3.4642,3.5084,3.5943,3.5943,3.5943,3.5943,3.5943,3.4709,3.2577,3.0903,2.9583,2.8587,0.0,0.0,0.0,0.0,2.8781,2.9092,2.8837,2.9137,2.9609,2.9579,0.0,0.0,0.0,0.0,0.0,0.0,0.0,2.9438,2.9247,2.9535,2.9806,2.9656,2.9922,3.0245,3.0245,3.0343,3.0219,2.9382,2.9102,2.8891,2.8535,2.8773,0.0,0.0,0.0,2.8993,2.8993,2.8993,2.9121,2.9471,2.9689,2.9933,3.0254,3.0025,2.9988,3.0326,2.95,2.9409,3.032,2.9916,3.0063,0.0,0.0,0.0,0.0,0.0,0.0,0.0,0.0,0.0,0.0,0.0,0.0,0.0,0.0,0.0,0.0,0.0,0.0,0.0,0.0,0.0,0.0,0.0,0.0,0.0,0.0,0.0,0.0,2.5016,2.5615,2.4933,2.6198,2.6707,0.0,0.0,0.0,0.0,0.0,0.0,2.8547,2.9071,2.972,3.0585,3.1129,3.1847,3.2756,3.333,3.4581,3.6443,3.6443,3.7136,3.8464,3.8464,3.8464,3.8464,3.8464,3.7702,3.6242,3.3474,3.1782,3.0903,3.0328,3.0008,2.9839,2.9839,3.0057,3.0366,3.024,3.0422,3.0662,3.0647,3.004,2.9285,2.935,0.0,0.0,0.0,0.0,2.9619,2.9805,3.0108,3.0378,3.0378,3.0801,3.119,3.119,3.119,3.0869,2.9788,2.9568,2.9501,2.9314,2.945,0.0,2.9314,2.945,2.9568,2.9568,2.9568,2.9663,2.9918,3.0024,3.0326,3.0885,3.0488,3.0559,3.1353,3.0283,3.0155,3.136,3.0834,3.0889,3.1678,0.0,0.0,0.0,0.0,0.0,0.0,0.0,0.0,0.0,0.0,0.0,0.0,0.0,0.0,0.0,0.0,0.0,0.0,0.0,0.0,0.0,0.0,0.0,0.0,0.0,0.0,0.0,0.0,0.0,2.563,2.7305,0.0,0.0,0.0,0.0,2.8442,2.9594,3.0612,3.1271,3.1346,3.196,3.3264,3.4074,3.5099,3.6414,3.7141,3.7935,3.8743,3.8743,3.9166,3.9994,3.9994,3.9994,3.9994,3.9994,3.9554,3.865,3.6332,3.4518,3.3237,3.3203,3.2747,3.2124,3.2124,3.1718,3.1241,3.1924,3.2178,3.2175,3.2201,3.1213,2.9922,2.9231,2.9501,0.0,0.0,3.1089,3.1241,3.1955,3.165,3.114,3.114,3.1173,3.119,3.119,3.119,3.1173,3.1089,3.1089,3.0869,3.0176,0.0,3.0852,3.0159,3.0632,3.1089,3.1089,3.1089,3.1108,3.1111,3.1462,3.1586,3.1301,3.1649,3.1751,3.1427,3.1323,3.1323,3.1397,3.136,3.1715,3.2509,3.1788,0.0,0.0,0.0,0.0,0.0,0.0,0.0,0.0,0.0,0.0,0.0,0.0,0.0,0.0,0.0,0.0,0.0,0.0,0.0,0.0,0.0,0.0,0.0,0.0,0.0,0.0,0.0,0.0,2.8742,3.0148,0.0,3.0118,3.0285,3.0644,3.1091,3.1928,3.2916,3.4038,3.4487,3.5123,3.5982,3.6286,3.6675,3.7146,3.701,3.7561,3.8711,3.8266,3.8715,3.9928,3.9928,3.9928,3.9895,3.9467,3.9374,3.9478,3.8258,3.6874,3.5537,3.503,3.4675,3.4421,3.4421,3.4573,3.4714,3.3969,3.4015,3.4269,3.3322,3.2662,3.2171,3.1901,3.2019,3.2188,3.1972,3.1921,3.187,3.165,3.1393,3.119,3.119,3.119,3.119,3.119,3.119,3.119,3.119,3.119,3.1106,3.0852,3.1021,3.1106,3.0852,3.1021,3.119,3.119,3.119,3.119,3.119,3.1332,3.1462,3.1603,3.1285,3.1517,3.2508,3.1597,3.1596,3.2889,3.2449,3.2559,3.3366,3.3091,3.3091,0.0,0.0,0.0,0.0,0.0,0.0,0.0,0.0,0.0,0.0,0.0,0.0,0.0,0.0,0.0,0.0,0.0,0.0,0.0,0.0,0.0,0.0,0.0,0.0,0.0,2.8906,3.0731,3.1135,3.2766,3.3589,3.2901,3.3066,3.3259,3.3514,3.4322,3.5205,3.6103,3.6567,3.6985,3.7404,3.7404,3.7404,3.7404,3.7,3.7422,3.8579,3.8147,3.8592,3.9826,4.0084,4.0075,3.9847,3.967,3.9741,3.9943,3.9488,3.8757,3.7862,3.733,3.6975,3.6755,3.6755,3.6924,3.6975,3.5729,3.525,3.5081,3.41,3.3609,3.3406,3.3406,3.3406,3.3355,3.3123,3.2869,3.2611,3.2395,3.2121,3.1884,3.1613,3.1582,3.1582,3.1582,3.1582,3.1582,3.1582,3.136,3.119,3.119,3.119,3.119,3.119,3.119,3.119,3.119,3.119,3.119,3.119,3.119,3.137,3.1771,3.1321,3.1635,3.3118,3.2195,3.2276,3.3738,3.3293,3.3256,3.3788,3.3807,3.3807,3.3807,0.0,0.0,0.0,0.0,0.0,0.0,0.0,0.0,0.0,0.0,0.0,0.0,0.0,0.0,0.0,0.0,0.0,0.0,0.0,0.0,0.0,0.0,0.0,2.8846,3.1001,3.2662,3.2721,3.4996,3.5789,3.3858,3.54,3.6267,3.5669,3.6776,3.7494,3.7524,3.7524,3.7524,3.7524,3.7524,3.7524,3.7524,3.7494,3.7857,3.8654,3.8608,3.8997,3.978,4.0547,4.0504,3.9872,4.0705,4.0661,4.0011,3.9995,4.002,4.007,4.0096,3.9673,3.9022,3.9022,3.8565,3.7838,3.71,3.5847,3.4556,3.4539,3.4049,3.3474,3.3474,3.3474,3.3609,3.4303,3.3981,3.3592,3.4286,3.3931,3.322,3.2513,3.2327,3.2327,3.2327,3.2327,3.2327,3.2327,3.1769,3.1241,3.1207,3.1207,3.1224,3.1224,3.1241,0.0,3.1258,3.1258,3.1258,3.1241,3.1241,3.1402,3.1752,3.1806,3.2214,3.3105,3.3184,3.3361,3.3775,3.3807,3.3807,3.3807,3.3807,3.3807,3.3807,0.0,0.0,0.0,0.0,0.0,0.0,0.0,0.0,0.0,0.0,0.0,0.0,0.0,0.0,0.0,0.0,0.0,0.0,0.0,0.0,0.0,3.1374,3.2931,3.2243,3.4023,3.5923,3.736,3.7719,3.7838,3.7793,3.7404,3.7479,3.8287,3.8641,3.9275,4.0232,4.0292,4.0292,4.0292,4.0292,4.0292,4.0292,3.9349,3.9202,3.9904,3.8922,3.8576,3.8784,3.9005,3.8754,3.8092,3.787,3.7995,3.8241,3.7762,3.8213,3.9289,3.9859,3.9977,3.9808,3.9808,3.9326,3.8582,3.7855,3.6958,3.6084,3.5487,3.5143,3.4991,3.4991,3.4991,3.4945,3.459,3.4336,3.4117,3.3795,3.3558,3.3355,3.3152,3.3102,3.3102,3.3102,3.3102,3.3102,3.3102,3.2933,3.2459,3.1376,3.165,3.2005,3.2005,3.2442,3.2797,3.2797,3.2797,3.2594,3.2056,3.2476,3.2418,3.1436,3.1864,3.2301,3.2668,3.2697,3.3045,3.3762,3.3807,3.3807,3.3807,3.3807,3.3807,0.0,0.0,0.0,0.0,0.0,0.0,0.0,0.0,0.0,0.0,0.0,0.0,0.0,0.0,0.0,0.0,0.0,0.0,0.0,0.0,0.0,0.0,3.4113,3.5953,3.6701,3.733,3.8242,3.9664,3.9709,3.9798,4.0202,3.9529,3.9394,4.0187,4.0247,4.0576,4.1339,4.1422,4.1422,4.1422,4.1422,4.1287,4.0965,4.0217,3.9888,3.9978,3.92,3.8661,3.8427,3.878,3.8421,3.7494,3.7503,3.7577,3.7649,3.7257,3.7803,3.8935,0.0,0.0,0.0,0.0,3.9639,3.8937,3.8514,3.7872,3.7178,3.6721,3.6366,3.6096,3.6096,3.5876,3.5498,3.5081,3.4962,3.4861,3.4416,3.4315,3.423,3.3931,3.3863,3.3863,3.3863,3.3863,3.3863,3.3863,3.3863,0.0,3.2324,3.2476,3.2767,3.2767,3.3136,3.3406,3.3406,3.3406,3.3237,3.2797,3.3136,3.3051,3.2188,3.251,0.0,0.0,0.0,3.3888,3.4807,3.4853,0.0,0.0,0.0,3.4853,3.4853,3.4486,0.0,0.0,3.3752,3.355,0.0,0.0,0.0,0.0,0.0,0.0,0.0,0.0,0.0,0.0,0.0,0.0,0.0,0.0,0.0,0.0,3.6926,3.8706,4.1145,4.0546,4.0083,4.0666,4.1175,4.1527,4.1527,4.1429,4.1414,4.1527,4.1527,4.1519,4.1594,4.1594,0.0,0.0,0.0,4.1324,4.0741,4.0576,4.0217,3.9634,3.9448,3.905,3.8412,3.9118,3.8795,3.7762,3.8472,3.8435,3.7934,3.7934,3.8327,3.8908,3.8989,3.9463,4.0096,4.0096,3.969,3.9106,3.9022,0.0,0.0,3.7905,3.733,3.6711,3.688,3.6299,3.5633,3.5802,3.5735,3.5633,3.5802,3.5718,3.5447,3.4878,3.4675,3.4624,3.4624,3.4624,3.4624,3.4624,3.4624,3.4421,3.3761,3.3592,3.3525,3.3525,3.3592,3.366,3.366,3.366,3.3626,3.3541,3.3609,0.0,3.3423,3.3491,3.3683,3.4066,3.4585,3.5283,3.6179,3.627,3.6303,3.6303,3.6303,3.6303,3.6303,3.5518,3.5151,3.5133,3.4307,3.3899,0.0,0.0,0.0,0.0,0.0,0.0,0.0,0.0,0.0,0.0,0.0,0.0,0.0,0.0,0.0,3.6761,3.905,4.1018,4.2066,4.2402,4.2587,4.2707,4.2417,4.2216,4.2216,4.1737,4.1632,4.2171,4.2216,4.2402,4.2886,4.2916,4.2916,4.2916,4.2916,4.2856,4.2722,4.1713,4.113,4.0995,3.9933,0.0,3.8377,3.7996,3.808,3.846,3.8091,3.8225,3.8697,3.8697,3.8748,3.8962,3.961,3.9952,4.0096,4.0096,4.0011,3.9808,3.9191,3.8514,3.7905,3.7905,3.6975,3.6056,3.7313,3.6721,0.0,3.7127,3.6546,3.5887,3.7121,3.6529,3.5718,3.6237,3.5859,3.538,3.538,3.538,3.538,3.538,3.538,3.5329,3.5194,3.4675,3.4286,3.4286,3.4793,3.516,3.516,3.516,3.4962,3.4336,3.4827,3.4687,3.3508,3.3947,3.4231,3.4101,3.4889,3.5449,3.5661,3.6072,3.6303,3.6303,3.6303,3.6303,3.6303,3.6138,3.6046,3.6028,3.5169,3.4417,0.0,0.0,0.0,0.0,0.0,0.0,0.0,0.0,0.0,0.0,0.0,3.1885,3.3244,0.0,3.7599,3.9559,4.128,4.2701,4.3688,4.3823,4.3663,4.3334,4.3045,4.2851,4.2851,4.2551,4.2491,4.2821,4.2851,4.2985,4.3275,4.329,4.329,4.329,4.329,4.314,4.2851,4.1878,4.1452,4.1532,4.0548,3.9922,3.9685,3.9344,3.9262,3.9313,3.8588,3.8547,3.8902,3.8881,3.889,3.8962,3.9782,4.0096,4.0096,4.0096,4.0096,4.0045,3.969,3.9292,3.8988,3.8988,3.8227,3.7449,3.8227,3.7652,3.6901,3.7686,3.7364,3.6918,3.7702,3.7324,3.6772,3.6795,3.6485,3.6096,3.5684,3.56,3.56,3.56,3.56,3.56,3.56,3.5278,3.5064,3.5064,3.5346,3.56,3.56,3.56,3.5447,3.5098,3.538,3.5295,3.4551,3.4844,3.5095,3.5244,3.5685,3.6077,3.6327,3.6821,3.7116,3.7116,3.7354,3.7496,3.7496,3.7107,3.6905,3.6905,3.645,3.5826,0.0,0.0,0.0,0.0,0.0,0.0,0.0,2.6987,2.8352,3.1433,3.2959,3.4435,3.6645,3.8212,3.9903,4.2216,4.321,4.4092,4.5155,4.484,4.4272,4.3559,4.3364,4.329,4.329,4.329,4.329,4.329,4.329,4.329,4.329,4.329,4.329,4.329,4.329,4.309,4.259,4.2107,4.1787,4.1627,4.132,4.1074,4.0944,4.0974,4.0856,4.0603,3.9881,3.9567,3.9531,3.9243,3.9139,3.9209,3.985,4.0096,4.0096,4.0096,4.0096,4.0096,4.0096,4.0011,3.991,4.0045,3.9503,3.8836,3.9123,3.8599,3.7973,3.8261,3.8125,3.7973,3.8261,3.8125,3.7787,3.7337,3.7134,3.684,3.6197,3.6039,3.6039,3.6039,3.5921,3.5819,3.5819,3.5701,3.56,3.56,3.56,3.56,3.56,3.56,3.56,3.56,3.56,3.56,3.56,3.56,3.5766,3.6224,3.6333,3.6583,3.7038,3.7506,3.7807,3.7893,3.8316,3.8611,3.8707,3.8046,3.7731,3.7731,3.7731,3.7217,2.1207,2.1707,2.2498,2.4023,2.4217,2.5268,0.0,3.169,3.2744,3.4924,3.7101,3.8704,3.9014,4.0636,4.2246,4.3075,4.4272,4.5125,4.5274,4.5229,4.4945,4.4287,4.3648,4.329,4.329,4.329,4.329,4.329,4.329,4.329,4.329,4.329,4.329,4.329,4.329,4.326,4.3185,4.341,4.2827,4.1438,4.2385,4.2082,4.0754,4.0912,4.1698,4.2887,4.2206,4.192,4.1819,4.05,3.9969,3.9978,4.007,4.0096,4.0096,4.0096,4.0096,4.0096,4.0096,3.9673,3.9225,3.9893,3.9157,3.8278,3.9588,3.8988,3.8176,3.9503,3.8903,3.821,3.952,3.887,3.8041,3.8616,3.8244,3.7753,3.7669,3.7652,3.7652,3.7652,3.711,3.6677,3.6677,3.6079,3.56,3.56,3.56,3.56,3.56,3.56,3.56,3.56,3.56,3.56,3.56,3.56,3.5622,3.5689,3.6139,3.6416,3.6478,3.7001,3.747,3.7876,3.7963,3.8216,3.8707,3.8615,3.8579,3.8579,3.8579,3.7753,2.2297,2.3314,2.4393,2.5096,2.6565,2.8433,3.0675,3.233,3.3984,3.6196,3.8189,3.9853,4.0927,4.2117,4.3269,4.4302,4.493,4.5559,4.6352,4.5783,4.4915,4.3898,4.318,4.291,4.326,4.329,4.329,4.329,4.329,4.329,4.329,4.329,4.329,4.329,4.329,4.3591,4.4182,4.3914,4.3986,4.4357,4.4026,4.3776,4.359,4.3264,4.3178,4.3332,4.3063,4.2455,4.161,4.0984,4.0476,4.0096,4.0096,4.0096,4.0096,4.0096,4.0096,4.0096,4.0096,3.991,3.9706,4.0011,3.969,3.9317,3.991,3.9673,3.9292,3.9943,3.9673,3.9309,3.9943,3.9656,3.914,3.9022,3.8751,3.843,3.799,3.7905,3.7905,3.7905,3.7652,3.7432,3.7432,3.7161,3.6935,3.6935,3.6157,3.5752,3.6231,3.5893,3.56,3.56,3.56,3.56,3.56,3.56,3.56,3.56,3.5827,3.6075,3.6392,3.6921,3.7415,3.7876,3.82,3.8481,3.8707,3.8707,3.8707,3.8707,3.8707,3.834,2.3045,2.4456,2.5937,2.6402,2.8586,3.0771,3.1386,3.3305,3.548,3.7318,3.911,4.0783,4.2136,4.2895,4.3604,4.4601,4.5214,4.5858,4.6636,4.5753,4.4541,4.3269,4.2381,4.2013,4.2438,4.2686,4.2865,4.3045,4.306,4.3135,4.329,4.329,4.329,4.329,4.329,4.3669,4.4373,4.4189,4.4638,4.5761,4.5028,4.4929,4.5316,4.4823,4.4265,4.3724,4.3494,4.2784,4.1796,4.1593,4.1187,4.0722,4.0722,4.0587,4.0417,4.0417,4.0282,4.0096,4.0096,4.0096,4.0096,4.0096,4.0096,4.0096,4.0096,4.0096,4.0096,4.0096,4.0096,4.0096,4.0096,4.0096,3.9977,3.9436,3.9292,3.9157,3.8616,3.8514,3.8514,3.8514,3.8345,3.821,3.821,3.8041,3.7973,3.8176,3.7094,3.6451,3.7026,3.6417,3.6005,3.6208,3.6039,3.6005,3.6208,3.6039,3.6028,3.6208,3.6039,3.6156,3.6686,3.7079,3.748,3.7894,3.8283,3.8546,3.8707,3.8707,3.8707,3.8707,3.8707,3.8707,2.3246,2.4745,2.6851,2.8423,2.969,3.1173,3.3307,3.6005,3.8228,3.8809,4.0729,4.2327,4.2396,4.2895,4.3305,4.3349,4.4979,4.6082,4.5454,4.4766,4.3853,4.259,4.125,4.0472,4.0487,4.107,4.1752,4.2381,4.2425,4.2671,4.326,4.329,4.329,4.329,4.329,4.3329,4.3329,4.4305,4.4462,4.3873,4.4883,4.5036,4.4436,4.456,4.4598,4.453,4.3741,4.3358,4.3274,4.2557,4.2236,4.2219,4.2219,4.1796,4.117,4.117,4.0696,4.0096,4.0096,4.0096,4.0096,4.0096,4.0096,4.0096,4.0096,4.0096,4.0096,4.0096,4.0096,4.0096,4.0096,4.0096,4.0096,4.0079,4.0079,4.0062,4.0045,4.0028,4.0028,4.0028,3.9469,3.8954,3.8954,3.8379,3.8142,3.8853,3.8328,3.7838,3.7872,3.7212,3.7026,3.7753,3.7178,3.7043,3.777,3.7161,3.706,3.7787,3.7144,3.6962,3.7443,3.7469,3.7622,3.7894,3.7929,3.8183,3.8707,3.8707,3.8707,3.8707,3.8707,3.8707,2.5536,2.7256,2.8976,3.0244,3.1964,3.359,3.4693,3.6005,3.7235,3.8097,3.8529,3.8928,3.9602,3.9903,4.0487,4.1818,4.297,4.4062,4.514,4.4721,4.3509,4.1324,4.1055,4.0352,3.8586,3.9813,4.119,4.2321,4.2396,4.2641,4.326,4.329,4.3591,4.4259,4.4297,4.4878,4.6138,4.6504,4.661,4.6502,4.5877,4.5211,4.4548,4.4587,4.4615,4.4581,4.4299,4.3893,4.3375,4.3149,4.2743,4.2286,4.2286,4.2151,4.1931,4.1931,4.1457,4.0747,4.0282,4.0096,4.0096,4.0096,4.0096,4.0096,4.0096,4.0096,4.0096,4.0096,4.0096,4.0096,4.0096,4.0096,4.0096,4.0096,4.0096,4.0096,4.0096,4.0096,4.0096,4.0096,3.991,3.974,3.974,3.9512,3.9453,3.9706,3.9089,3.8447,3.7973,3.7686,3.7618,3.7872,3.7686,3.7635,3.7889,3.7669,3.7635,3.7889,3.7669,3.7746,3.8204,3.8101,3.8467,3.941,3.8761,3.8786,3.9478,3.8964,3.8707,3.8707,3.8707,3.8707,2.7632,2.9252,3.0721,3.2215,3.3809,3.5119,3.5705,3.6303,3.6871,3.7437,3.7189,3.7024,3.7614,3.7704,3.8197,3.9723,4.0711,4.1908,4.3658,4.3329,4.2372,4.092,4.0711,4.0098,3.8616,3.9649,4.0756,4.1632,4.2126,4.259,4.297,4.3533,4.4143,4.4774,4.5116,4.5885,4.7088,4.7088,4.7078,4.6991,4.6385,4.5568,4.4615,4.4615,4.4615,4.4615,4.4615,4.4327,4.3826,4.3826,4.3555,4.3125,4.3125,4.2946,4.2692,4.2692,4.2236,4.1491,4.073,4.0333,4.0096,4.0096,4.0096,4.0096,4.0096,4.0096,4.0096,4.0096,4.0096,4.0096,4.0096,4.0096,4.0096,4.0096,4.0096,4.0096,4.0096,4.0096,4.0096,4.0096,4.0096,4.0096,4.0096,4.0096,4.0096,4.0096,3.9706,3.9208,3.8751,3.8464,3.8396,3.865,3.8447,3.8396,3.8667,3.8447,3.8413,3.8667,3.8447,3.8489,3.896,3.9091,3.9459,4.0202,3.9785,3.968,3.99,3.9386,3.8982,3.8707,3.8707,3.8707,2.9465,3.0721,3.2077,3.4236,3.5107,3.5621,3.6216,3.6689,3.6993,3.6784,3.6585,3.6425,3.6324,3.6282,3.6537,3.7285,3.8542,3.9903,4.1324,4.0965,4.0771,4.1392,4.0367,3.9828,4.0352,4.0487,4.0516,4.0516,4.1738,4.2488,4.2518,4.4021,4.4871,4.4946,4.5798,4.6279,4.6349,4.6317,4.6052,4.5529,4.6361,4.6007,4.4666,4.4632,4.4615,4.4615,4.4615,4.4615,4.4615,4.4615,4.4615,4.4615,4.4615,4.413,4.3443,4.3443,4.2997,4.2252,4.1559,4.0832,4.0214,4.0214,4.0214,4.0214,4.0214,4.0214,4.0214,4.0214,4.0214,4.0214,4.0214,4.0214,4.0197,4.018,4.0163,4.0146,4.0113,4.0096,4.0096,4.0096,4.0096,4.0096,4.0096,4.0096,4.0096,4.0096,4.0096,4.0096,4.0096,3.9503,3.9309,4.0028,3.9462,3.9326,4.0045,3.9469,3.9368,4.0112,3.9453,3.9296,3.9795,4.0319,4.0506,4.0329,4.0843,4.0744,4.001,3.9937,3.9515,3.8762,3.8726,3.8707,3.1148,3.2704,3.411,3.5044,3.5395,3.5433,3.5203,3.4641,3.4202,3.4204,3.3096,3.2408,3.3339,3.3529,3.4382,3.6985,3.8542,4.0382,4.318,4.3,4.2476,4.2186,4.2237,4.178,4.0531,4.1728,4.2454,4.2222,4.2965,4.3673,4.4158,4.5264,4.6154,4.6866,4.7138,4.7589,4.8289,4.7723,4.7383,4.7248,4.638,4.5788,4.5399,4.4869,4.4615,4.4615,4.4615,4.4615,4.4615,4.4615,4.4615,4.4615,4.4615,4.4479,4.4282,4.4282,4.3792,4.3071,4.2885,4.2354,4.1728,4.1728,4.1728,4.1728,4.1728,4.1728,4.1728,4.1728,4.1728,4.1728,4.1728,4.1728,4.1593,4.1052,4.0916,4.0764,4.0231,4.0096,4.0096,4.0096,4.0096,4.0096,4.0096,4.0096,4.0096,4.0096,4.0096,4.0096,4.0096,3.9943,3.9893,4.0079,3.9943,3.991,4.0079,3.9943,4.0075,4.0662,4.0124,4.0247,4.1213,4.0835,4.106,4.2043,4.1427,4.1279,4.168,4.0469,3.979,3.957,3.8982,3.8707,3.2867,3.4141,3.5169,3.5768,3.5542,3.5009,3.459,3.3471,3.2421,3.2231,3.1129,3.0524,3.1442,3.1854,3.2841,3.5295,3.6821,3.8751,4.1743,4.2102,4.2237,4.2731,4.3105,4.2976,4.2192,4.321,4.3968,4.4062,4.4198,4.446,4.4939,4.6153,4.707,4.7589,4.8015,4.8482,4.9001,4.8595,4.824,4.7872,4.7073,4.6346,4.5703,4.5263,4.4919,4.4615,4.4615,4.4615,4.4615,4.4615,4.4615,4.4632,4.4942,4.4874,4.4682,4.5343,4.5077,4.4418,4.4418,4.4147,4.3623,4.2625,4.2286,4.2286,4.2286,4.2286,4.2286,4.2286,4.2286,4.2286,4.2286,4.2286,4.21,4.139,4.1204,4.1001,4.0265,4.0096,4.0096,4.0096,4.0096,4.0096,4.0096,4.0096,4.0096,4.0096,4.0096,4.0096,4.0096,4.0096,4.0096,4.0096,4.0096,4.0096,4.0096,4.0096,4.0336,4.0874,4.0625,4.0868,4.175,4.1611,4.1895,4.2674,4.2338,4.2029,4.1772,4.0873,4.0065,3.935,3.8909,3.8707,3.4354,3.5194,3.5708,3.6157,3.5429,3.4451,3.3985,3.258,3.1209,3.067,3.0036,2.9751,3.0383,3.0972,3.1884,3.3499,3.4816,3.6611,3.9424,4.0232,4.1265,4.3185,4.3424,4.3618,4.4137,4.4633,4.516,4.5739,4.5407,4.5273,4.5516,4.6962,4.7803,4.7803,4.8576,4.9001,4.9001,4.9001,4.868,4.8024,4.7939,4.7192,4.5838,4.5737,4.5297,4.4615,4.4615,4.4615,4.4615,4.4615,4.4615,4.4682,4.5415,4.5246,4.4784,4.6143,4.6194,4.5551,4.5551,4.5551,4.5229,4.3234,4.2591,4.2591,4.2591,4.2591,4.2591,4.2591,4.2591,4.2591,4.2591,4.2591,4.2405,4.1677,4.1491,4.1288,4.0553,4.04,4.0367,4.0265,4.0248,4.0248,4.0248,4.0163,4.0096,4.0096,4.0096,4.0096,4.0096,4.0096,4.0096,4.0096,4.0096,4.0096,4.0096,4.0096,4.0343,4.0972,4.0949,4.1228,4.1982,4.246,4.2713,4.2789,4.3268,4.28,4.1407,4.1187,4.038,3.9019,3.8909,3.8799,3.5031,3.5805,3.6132,3.5768,3.4864,3.3712,3.2407,3.0831,2.9581,2.9445,2.8526,2.8321,3.0173,3.0612,3.1674,3.4666,3.5804,3.7648,4.1377,4.1512,4.1938,4.3913,4.4152,4.3932,4.3499,4.4716,4.5703,4.6076,4.6742,4.714,4.7159,4.819,4.8767,4.8767,4.894,4.9001,4.9001,4.9001,4.8934,4.8798,4.8176,4.7462,4.6583,4.5974,4.5297,4.4615,4.4615,4.4615,4.4615,4.4615,4.4615,4.4682,4.5415,4.5246,4.4716,4.5568,4.5415,4.4801,4.4801,4.4801,4.4733,4.4344,4.4209,4.4209,4.4209,4.4209,4.4209,4.4209,4.4209,4.4209,4.4209,4.4209,4.4005,4.3217,4.3003,4.2828,4.2066,4.1941,4.1728,4.1119,4.1018,4.1018,4.1018,4.0493,4.0096,4.0096,4.0096,4.0096,4.0096,4.0096,4.0096,4.0096,4.0096,4.0096,4.0096,4.0096,4.0538,4.1578,4.1178,4.1586,4.3142,4.2865,4.292,4.3357,4.3444,4.3368,4.3075,4.1754,4.0948,4.0673,3.9992,3.9331,3.5207,3.5943,3.6279,3.5633,3.4229,3.2764,3.1695,2.9907,2.8452,2.8336,2.7861,2.7889,2.9244,3.0058,3.115,3.308,3.4562,3.6495,3.9379,4.0113,4.1085,4.306,4.3599,4.3768,4.3838,4.5109,4.616,4.6662,4.7703,4.8338,4.8338,4.8767,4.9001,4.9001,4.9001,4.9001,4.9001,4.9001,4.9001,4.9001,4.8257,4.7513,4.6769,4.6041,4.5297,4.4615,4.4615,4.4835,4.5162,4.5162,4.5399,4.5771,4.6126,4.6058,4.5821,4.6583,4.6633,4.6261,4.5872,4.572,4.563,4.4852,4.4615,4.4615,4.4615,4.4615,4.4615,4.4615,4.4615,4.4615,4.4615,4.4615,4.4412,4.3578,4.3115,4.2726,4.2371,4.2286,4.2185,4.183,4.1762,4.1762,4.1762,4.1153,4.0663,4.0663,4.0367,4.0096,4.0096,4.0096,4.0096,4.0096,4.0096,4.0096,4.0096,4.0096,4.0587,4.1746,4.1534,4.2006,4.3444,4.325,4.3232,4.3479,4.3515,4.3277,4.2873,4.2103,4.1499,4.1095,4.0691,4.0322,3.5019,3.5768,3.6056,3.5458,3.3771,3.2032,3.1209,2.9378,2.7802,2.7636,2.76,2.7809,2.8472,2.9535,3.0567,3.1376,3.2961,3.4801,3.6911,3.8362,3.9933,4.1961,4.3031,4.3841,4.4353,4.5678,4.673,4.7239,4.8347,4.9001,4.9001,4.9001,4.9001,4.9001,4.9001,4.9001,4.9001,4.8849,4.8765,4.8765,4.8189,4.7445,4.6549,4.6126,4.5534,4.4852,4.4852,4.5246,4.594,4.594,4.6278,4.6802,4.6972,4.6938,4.6887,4.7648,4.7787,4.7564,4.6819,4.6549,4.6346,4.5038,4.4615,4.4615,4.4615,4.4615,4.4615,4.4615,4.4615,4.4615,4.4615,4.4615,4.4445,4.3809,4.3217,4.277,4.2574,4.2658,4.2726,4.2574,4.254,4.254,4.254,4.1914,4.139,4.1221,4.0696,4.0282,4.013,4.0096,4.0146,4.0262,4.0171,4.0096,4.0096,4.0096,4.0587,4.1746,4.181,4.2306,4.3444,4.3515,4.3515,4.3515,4.3515,4.3185,4.2561,4.2378,4.1992,4.1352,4.1352,4.126,3.45,3.5157,3.5445,3.4893,3.3594,3.2123,3.0718,2.9178,2.7995,2.7665,2.76,2.7809,2.8472,2.919,3.0073,3.1301,0.0,3.3604,3.6207,3.7674,3.923,4.1235,4.3381,4.4692,4.4754,4.6413,4.7506,4.7538,4.8452,4.9001,4.9001,4.9001,4.9001,4.9001,4.9001,4.9001,4.9001,4.8359,4.799,4.799,4.7922,4.7175,4.5821,4.6413,4.6295,4.5602,4.5602,4.6024,4.6684,4.6684,4.6735,4.6853,4.7547,4.7394,4.6887,4.7648,4.7479,4.6802,4.6058,4.5805,4.5669,4.4869,4.4615,4.4615,4.4615,4.4615,4.4615,4.4615,4.4615,4.4615,4.4615,4.4615,4.4581,4.4513,4.4445,4.4209,4.347,4.3859,4.4164,4.3453,4.3291,4.3291,4.3291,4.2692,4.1965,4.1305,4.1136,4.0849,4.0197,4.0096,4.0286,4.078,4.0392,4.0096,4.0096,4.0096,4.0587,4.1746,4.181,4.2306,4.3444,4.3515,4.3515,4.3515,4.3515,4.346,4.3404,4.2653,4.2268,4.2194,4.2194,4.1809,3.283,3.411,3.4793,3.3947,3.2647,3.1228,3.0099,2.8675,2.7601,2.7586,2.76,2.7675,2.7959,2.8888,2.9786,3.0268,0.0,0.0,3.4427,3.5818,3.7539,3.9918,4.2224,4.3919,4.4734,4.6504,4.7836,4.8401,4.8798,4.9001,4.9001,4.9001,4.9001,4.9001,4.8578,4.8359,4.8359,4.7614,4.7462,4.7889,4.7462,4.7158,4.7039,4.687,4.6633,4.6363,4.6363,4.6786,4.7462,4.7462,4.7716,4.8105,4.797,4.7703,4.7513,4.777,4.7733,4.7361,4.6616,4.6363,4.616,4.4987,4.4615,4.4615,4.4615,4.4615,4.4615,4.4615,4.4615,4.4615,4.4615,4.4615,4.4615,4.4615,4.4615,4.4513,4.4181,4.435,4.4513,4.4181,4.4113,4.4113,4.4113,4.3098,4.2202,4.1914,4.1102,4.0434,4.0146,4.0368,4.0655,4.088,4.0726,4.0577,4.0577,4.0914,4.1308,4.1771,4.2142,4.2694,4.3462,4.3515,4.3515,4.3515,4.3515,4.3515,4.3515,4.3167,4.302,4.302,4.302,4.2837,3.0884,3.2536,3.3759,3.2817,3.1667,3.0463,2.9496,2.8285,2.7416,2.7573,2.76,2.76,2.76,2.8708,2.9606,0.0,0.0,3.2146,3.3066,3.4894,3.6814,3.864,4.1239,4.345,4.482,4.6826,4.8289,4.894,4.9001,4.9001,4.9001,4.9001,4.9001,4.9001,4.8511,4.8108,4.7889,4.7394,4.7175,4.7259,4.7175,4.7175,4.7259,4.7158,4.7124,4.7124,4.7124,4.7547,4.824,4.824,4.8545,4.8934,4.8176,4.8022,4.8145,4.7911,4.7955,4.8037,4.7294,4.7037,4.6803,4.5343,4.4998,4.5062,4.4692,4.4615,4.4615,4.4615,4.4615,4.4615,4.4615,4.4615,4.4615,4.4615,4.4615,4.4615,4.4615,4.4615,4.4654,4.4841,4.472,4.4654,4.4841,4.382,4.2895,4.2658,4.1707,4.0932,4.0711,4.0959,4.1228,4.1424,4.1424,4.1358,4.1178,4.1556,4.1874,4.2041,4.246,4.2939,4.3479,4.3515,4.3515,4.3515,4.3515,4.3515,4.3515,4.3515,4.3515,4.3515,4.3515,4.3515,2.8775,3.057,3.2102,3.1549,3.0857,3.0038,2.8971,2.8126,2.76,2.76,2.76,2.76,2.76,2.8708,2.9606,2.9606,3.1277,0.0,3.2511,3.5492,3.765,3.7639,4.0871,4.3695,4.5253,4.7579,4.9001,4.9001,4.9001,4.9001,4.9001,4.9001,4.9001,4.9001,4.9001,4.8646,4.7889,4.7889,4.7175,4.5737,4.7179,4.7141,4.5771,4.7242,4.7872,4.7872,4.7872,4.8325,4.8984,4.8984,4.9001,4.8934,4.8176,4.828,4.8702,4.7976,4.8137,4.8579,4.7844,4.7579,4.7357,4.596,4.589,4.6143,4.4944,4.4615,4.4615,4.4615,4.4615,4.4615,4.4615,4.4615,4.4615,4.4615,4.4615,4.4615,4.4615,4.4615,4.4776,4.5355,4.4998,4.4786,4.5399,4.4981,4.4327,4.3521,4.3263,4.2898,4.2171,4.1911,4.2021,4.2616,4.2674,4.244,4.1853,4.181,4.2041,4.2655,4.2711,4.2939,4.3479,4.3515,4.3515,4.3515,4.3515,4.3515,4.3515,4.3515,4.3515,4.3515,4.3515,4.3515,2.5828,2.7472,2.8888,2.8802,2.8777,2.864,2.834,2.7937,2.76,2.76,2.76,2.76,2.76,2.8708,2.9756,3.0148,3.1974,0.0,3.3207,3.5458,3.7591,3.9008,4.3327,4.6627,4.7759,4.856,4.9001,4.9001,4.9001,4.9001,4.9001,4.9001,4.9001,4.9001,4.8528,4.7902,4.7158,4.7141,4.6904,4.6464,4.7445,4.7936,4.797,4.8443,4.8663,4.8663,4.8663,4.8781,4.9001,4.9001,4.8714,4.8304,4.9059,4.8838,4.8199,4.8934,4.9017,4.8679,4.7875,4.7586,4.7437,4.6431,4.624,4.6336,4.594,4.5833,4.5732,4.532,4.4934,4.4615,4.4615,4.4906,4.5115,4.4692,4.5232,4.5597,4.4786,4.4934,4.5267,4.5459,4.5346,4.5284,4.5459,4.4941,4.4397,4.4113,4.3602,4.3141,4.2756,4.3024,4.3093,4.2746,4.3032,4.3032,4.2462,4.2752,4.2902,4.2711,4.3032,4.3321,4.3479,4.3515,4.3515,4.3515,4.3515,4.3515,4.3515,4.3515,4.3515,4.3515,4.3515,4.3515,0.0,2.5641,2.7173,2.7301,2.752,2.7684,2.7782,2.77,2.76,2.76,2.76,2.7675,2.7944,2.9078,3.0175,3.08,3.2663,3.4016,3.3944,3.6082,3.8526,4.0938,4.4826,4.755,4.8095,4.868,4.9001,4.9001,4.9001,4.9001,4.9001,4.9001,4.9001,4.9001,4.8562,4.797,4.7225,4.7479,4.7344,4.6802,4.7834,4.8426,4.8595,4.8883,4.9001,4.9001,4.9256,4.9389,0.0,4.9681,4.9505,4.9166,4.9754,4.9389,4.8584,4.9195,4.9055,4.8551,4.8044,4.7864,4.7747,4.7007,4.6618,4.6501,4.6959,4.6778,4.6336,4.594,4.5571,4.5267,4.5267,4.5545,4.5732,4.5372,4.584,4.6192,4.5433,4.5571,4.5915,4.6161,4.6014,4.5933,4.6161,4.5611,4.5149,4.5149,4.4718,4.435,4.4228,4.4189,4.4013,4.3504,4.3468,4.3356,4.3032,4.3322,4.3357,4.3014,4.3322,4.3515,4.3515,4.3515,4.3515,4.3515,4.3515,4.3515,4.3515,4.3515,4.3515,4.3515,4.3515,4.3515,0.0,2.4803,2.6481,2.6681,2.6876,2.7052,2.7275,2.7471,0.0,2.76,2.76,2.7835,2.855,2.9725,3.0835,3.1622,3.3448,3.4775,3.4848,3.7409,4.0324,4.3054,4.55,4.6904,4.6802,4.8139,4.9001,4.9001,4.9001,4.8984,4.8934,4.8968,4.8951,4.8849,4.89,4.8595,4.7889,4.8595,4.824,4.6887,4.8369,4.869,4.8064,4.8833,4.9168,4.9182,4.9792,5.009,5.0129,5.0823,5.1076,5.097,5.0366,4.9972,4.9636,4.8981,4.8618,4.8379,4.8324,4.8306,4.821,4.7635,4.7044,4.6756,4.7957,4.7409,4.6407,4.6454,4.6454,4.6407,4.6407,4.643,4.6454,4.6407,4.6478,4.6524,4.643,4.6454,4.6664,4.7281,4.691,4.6664,4.7299,4.6869,4.6478,4.6478,4.6368,4.6266,4.6199,4.5347,4.4745,4.4635,4.3956,4.3515,4.3515,4.3515,4.3515,4.3515,4.3515,4.3515,4.3515,4.3515,4.3515,4.3515,4.3515,4.3515,4.3515,4.3515,4.3515,4.3515,4.3515,4.3515,2.2733,0.0,2.3883,2.4935,2.56,2.6234,0.0,0.0,0.0,0.0,0.0,2.7956,2.9147,3.0035,3.117,3.2869,3.4908,3.6264,3.624,3.9773,4.2615,4.3308,4.6413,4.8037,4.6904,4.8139,4.9001,4.9001,4.9001,4.8765,4.8176,4.8697,4.8477,4.7344,4.7868,4.8075,4.7889,4.8058,4.7973,4.7665,4.9076,4.9677,4.9522,5.0282,5.0599,5.0626,5.077,5.085,5.085,5.1034,5.0775,5.033,5.1238,5.086,4.9838,5.0159,4.9858,4.9187,4.8526,4.8306,4.8287,4.8114,4.7977,4.7899,4.821,4.7409,4.6501,4.7021,4.6796,4.6407,4.6407,4.6778,4.7039,4.6524,4.7154,4.7575,4.6618,4.6801,4.7216,4.7363,4.7259,4.7216,4.7363,4.7259,4.7172,4.7172,4.7137,4.6827,4.6081,4.5755,4.5149,4.3901,4.3608,4.3515,4.3515,4.3515,4.3515,4.3515,4.3515,4.3515,4.3515,4.3515,4.3515,4.3515,4.3515,4.3515,4.3515,4.3515,4.3515,4.3515,4.3515,4.3515,2.3411,2.3567,2.3825,2.4846,2.5586,2.6318,2.736,0.0,0.0,0.0,0.0,2.8431,2.9807,3.0819,3.2144,3.4223,3.5836,3.7127,3.8103,4.0935,4.3284,4.4333,4.6549,4.7936,4.7817,4.8528,4.9001,4.9001,4.9001,4.868,4.7922,4.8261,4.797,4.6836,4.687,4.7212,4.7889,4.7889,4.8235,4.888,4.9631,5.0185,5.0527,5.055,5.075,5.1094,5.1044,5.1222,5.1551,5.1545,5.1267,5.0953,5.1361,5.0762,4.9752,5.0114,4.9719,4.893,4.8471,4.8306,4.8306,4.8306,4.8306,4.8306,4.8306,4.7818,4.7345,4.7697,4.7554,4.7263,4.7263,4.7533,4.7718,4.7367,4.8109,4.859,4.7521,4.7862,4.8291,4.7891,4.7818,4.7818,4.7818,4.7818,4.7818,4.7818,4.7818,4.7627,4.7075,4.6691,4.5993,4.4727,4.4268,4.3901,4.3533,4.3515,4.3515,4.3515,4.3515,4.3515,4.3515,4.3515,4.3515,4.3515,4.3515,4.3515,4.3515,4.3515,4.3515,4.3515,4.3515,4.3515,2.4275,2.4679,2.4903,2.56,2.6183,2.6791,2.745,0.0,0.0,0.0,0.0,2.9111,3.0629,3.195,3.3492,3.553,3.6678,3.8048,4.0146,4.1796,4.3487,4.5314,4.6481,4.753,4.8562,4.8781,4.8832,4.8832,4.8731,4.8342,4.7584,4.7652,4.7374,4.6639,4.6112,4.6481,4.7839,4.7857,4.8585,4.9983,5.0095,5.046,5.1045,5.0357,5.0407,5.1044,5.1058,5.1452,5.2082,5.2026,5.1995,5.1903,5.1114,5.0306,4.961,4.9739,4.9242,4.8508,4.8508,4.8416,4.8306,4.8306,4.8306,4.8306,4.8306,4.8306,4.8306,4.8306,4.8306,4.8306,4.8306,4.8306,4.8306,4.8306,4.8857,4.9187,4.8471,4.8875,4.9169,4.8434,4.8306,4.8306,4.8306,4.8306,4.8306,4.8306,4.8306,4.8269,4.8141,4.7516,4.6746,4.5828,4.5112,4.4378,4.357,4.3515,4.3515,4.3515,4.3515,4.3515,4.3515,4.3515,4.3515,4.3515,4.3515,4.3515,4.3515,4.3515,4.3515,4.3515,4.3515,4.3515,2.4388,2.5008,2.5615,2.6273,2.6512,2.6791,2.745,0.0,0.0,0.0,0.0,0.0,3.1876,3.3393,3.4871,3.6377,3.8314,4.0155,4.1728,4.3809,4.5077,4.4818,4.7056,4.8257,4.7242,4.7716,4.8058,4.8058,4.7496,4.6819,4.6092,4.6633,4.6584,4.5743,4.6192,4.6847,4.7633,4.7759,4.8508,4.9924,5.0495,5.0826,5.0921,5.0737,5.0717,5.0863,5.1535,5.1907,5.1998,5.2011,5.1995,5.1903,5.1114,5.0306,4.9684,5.0362,5.0086,4.9408,4.9408,4.8912,4.8306,4.8306,4.8306,4.8306,4.8306,4.8306,4.8306,4.8306,4.8306,4.8306,4.8306,4.8306,4.8306,4.8306,4.8398,4.8471,4.8343,4.8416,4.8471,4.8343,4.8306,4.8306,4.8306,4.8306,4.8306,4.8306,4.8306,4.8048,4.7369,4.7186,4.6526,4.5057,4.4782,4.4378,4.357,4.3515,4.3515,4.3515,4.3515,4.3515,4.3515,4.3515,4.3515,4.3515,4.3515,4.3515,4.3515,4.3515,4.3515,4.3515,4.3515,4.3515,2.4425,2.5083,2.5764,2.6422,2.6881,2.733,2.8004,2.8415,0.0,0.0,0.0,0.0,3.2856,3.4226,3.5931,3.8203,3.9766,4.1085,4.2151,4.32,4.4045,4.4547,4.5788,4.6667,4.6786,4.7107,4.731,4.731,4.6989,4.6481,4.5737,4.6311,4.634,4.552,4.6139,4.6817,4.7504,4.7974,4.8757,4.9806,5.0111,5.0466,5.0827,5.035,5.038,5.0802,5.0729,5.0949,5.1316,5.0875,5.0712,5.062,4.9774,4.9224,4.893,4.9315,4.9499,4.9537,4.9058,4.893,4.8912,4.8453,4.8306,4.8306,4.8306,4.8306,4.8306,4.8306,4.8306,4.8306,4.8306,4.8306,4.8306,4.8306,4.8655,4.8875,4.8398,4.8673,4.8857,4.8398,4.8306,4.8306,4.8306,4.8306,4.8306,4.8306,4.8306,4.8177,4.7791,4.7736,4.7296,4.6122,4.5608,4.5021,4.4213,4.3736,4.3515,4.3515,4.3515,4.3515,4.3515,4.3515,4.3515,4.3515,4.3515,4.3515,4.3515,4.3515,4.3515,4.3515,4.3515,4.3515,2.4649,2.5307,2.6004,2.6686,0.0,2.7824,2.8637,2.9353,3.0142,0.0,0.0,3.3456,3.3958,3.5193,3.6935,3.9453,4.0747,4.1644,4.2219,4.276,4.3521,4.4733,4.5021,4.5579,4.6684,4.6633,4.6532,4.6532,4.638,4.6094,4.5688,4.6092,4.6126,4.5688,4.6118,4.6664,4.7322,4.7738,4.8535,4.9673,4.9673,4.9965,5.049,4.9664,4.9627,5.0196,4.9794,4.9939,5.0472,4.9867,4.961,4.9519,4.8636,4.8416,4.86,4.86,4.915,4.9776,4.8893,4.904,4.95,4.882,4.86,4.86,4.86,4.86,4.8563,4.8361,4.8306,4.8306,4.8306,4.8306,4.8306,4.8306,4.8802,4.9095,4.8434,4.882,4.9095,4.8434,4.8306,4.8306,4.8306,4.8306,4.8306,4.8306,4.8306,4.8306,4.8306,4.8306,4.7975,4.7186,4.6379,4.5498,4.4507,4.3846,4.3515,4.3515,4.3515,4.3515,4.3515,4.3515,4.3515,4.3515,4.3515,4.3515,4.3515,4.3515,4.3515,4.3515,4.3515,4.3548,2.5337,2.6019,2.6701,2.736,2.7555,2.7944,2.9232,3.0077,0.0,3.2997,0.0,3.5592,3.5481,3.6692,3.8041,3.892,4.0832,4.2236,4.2286,4.4113,4.55,4.5618,4.6227,4.6667,4.6786,4.6177,4.5788,4.5788,4.5145,4.4977,4.5494,4.5572,4.5751,4.6151,4.6197,4.6506,4.7129,4.6452,4.7277,4.9606,4.9606,4.9644,4.9665,4.8783,4.8434,4.8526,4.928,4.9629,4.9684,4.9629,4.961,4.9519,4.8636,4.8783,4.9519,4.9519,5.0013,5.06,4.9794,4.9555,4.9592,4.9537,4.9519,4.9519,4.9519,4.9519,4.9353,4.8526,4.8306,4.8306,4.8306,4.8306,4.8306,4.8306,4.8361,4.8379,4.8324,4.8361,4.8379,4.8324,4.8306,4.8306,4.8306,4.8306,4.8306,4.8306,4.8306,4.8306,4.8306,4.8306,4.7975,4.7186,4.6379,4.5259,4.3718,4.3533,4.3515,4.3515,4.3515,4.3515,4.3515,4.3515,4.3515,4.3515,4.3515,4.3515,4.3515,4.3515,4.3515,4.3515,4.3515,4.3679,2.4799,2.548,2.6138,2.6821,2.7285,0.0,0.0,3.144,3.2638,3.5089,3.6431,3.7127,3.7047,3.7889,3.8819,3.9571,4.0764,4.1948,4.2861,4.3335,4.3944,4.4891,4.4823,4.4891,4.5365,4.519,4.501,4.501,4.5115,4.5241,4.5485,4.5793,4.6025,4.6188,4.6065,4.6118,4.6361,4.6049,4.6361,4.7315,4.781,4.8049,4.8049,4.8233,4.8031,4.759,4.8434,4.8783,4.8783,4.8783,4.8783,4.8765,4.8434,4.8508,4.8783,4.8783,4.9334,4.9921,4.9077,4.9462,5.016,4.9132,4.917,4.95,4.8948,4.8783,4.8728,4.8398,4.8691,4.8967,4.8434,4.8306,4.8306,4.8306,4.8306,4.8306,4.8306,4.8306,4.8306,4.8306,4.8306,4.8306,4.8306,4.8306,4.8306,4.8306,4.8306,4.8306,4.8306,4.8306,4.8196,4.7865,4.6691,4.5443,4.4342,4.3791,4.3515,4.3515,4.3515,4.3515,4.3515,4.3515,4.3515,4.3515,4.3515,4.3515,4.3515,4.3515,4.3515,4.3515,4.371,4.3881,2.4784,2.557,2.6381,2.7049,0.0,0.0,3.1972,3.2846,3.3971,3.7176,3.8054,3.8261,3.8261,3.8464,3.8886,3.9639,4.0561,4.1559,4.2547,4.2472,4.2675,4.3768,4.3386,4.3369,4.4147,4.4215,4.4309,4.4494,4.4897,4.5196,4.5337,4.5654,4.5805,4.5731,4.5589,4.5516,4.5516,4.5259,4.5388,4.5902,4.6195,4.647,4.6727,4.7297,4.7241,4.6746,4.7315,4.77,4.7921,4.7921,4.8086,4.8306,4.8306,4.8306,4.8306,4.8306,4.8838,4.9482,4.86,4.9242,5.0233,4.9077,4.9279,4.9831,4.8967,4.8893,4.8985,4.8453,4.8728,4.9114,4.8783,4.871,4.8636,4.8379,4.8306,4.8306,4.8306,4.8306,4.8306,4.8306,4.8306,4.8306,4.8306,4.8306,4.8306,4.8306,4.8306,4.8306,4.8306,4.8306,4.8214,4.7957,4.6709,4.5571,4.4782,4.3956,4.3515,4.3515,4.3515,4.3515,4.3515,4.3515,4.3515,4.3515,4.3515,4.3515,4.3515,4.3614,4.3662,4.3679,4.4016,4.4247,2.5615,2.6596,2.7745,2.8359,0.0,0.0,3.3931,3.426,3.5026,3.9227,3.9508,3.9005,3.8988,3.8413,3.8159,3.887,4.024,4.1187,4.1204,4.1813,4.2269,4.2286,4.2286,4.2574,4.3335,4.3403,4.3639,4.4249,4.4292,4.4493,4.4975,4.5001,4.4897,4.4709,4.4691,4.4691,4.4691,4.3901,4.4287,4.5865,4.5076,4.5112,4.5883,4.5902,4.5902,4.5883,4.5902,4.6361,4.7094,4.7113,4.7571,4.8306,4.8306,4.8306,4.8306,4.8306,4.8838,4.9463,4.86,4.8875,4.961,4.9592,5.0123,5.0637,4.9831,5.0141,5.0435,4.8783,4.8324,4.8508,4.939,4.961,4.939,4.8526,4.8324,4.8324,4.8306,4.8306,4.8306,4.8306,4.8306,4.8306,4.8306,4.8306,4.8306,4.8306,4.8306,4.8306,4.8306,4.8306,4.7975,4.7186,4.6379,4.5571,4.4782,4.3956,4.3515,4.3515,4.3515,4.3515,4.3515,4.3515,4.3515,4.3515,4.3496,4.3496,4.3515,4.3833,4.4016,4.4031,4.4419,4.4769,2.6152,2.7203,2.8339,2.9081,3.0146,3.1799,0.0,3.5407,0.0,3.9435,3.9927,3.9622,3.9089,3.9266,3.9368,3.9039,3.9783,4.0595,4.1136,4.0933,4.1145,4.2168,4.183,4.1979,4.316,4.3254,4.3496,4.405,4.4533,4.4839,4.4998,4.4868,4.4766,4.4691,4.4158,4.3864,4.3864,4.3608,4.3753,4.4195,4.3975,4.4287,4.5094,4.5645,4.559,4.5094,4.5645,4.6361,4.7131,4.77,4.7736,4.7498,4.8067,4.8306,4.8306,4.8306,4.8471,4.8655,4.8398,4.8875,4.95,4.8875,4.926,4.9812,4.893,4.8857,4.8948,4.8453,4.8746,4.928,4.9537,5.0033,5.0233,4.9407,4.9225,4.904,4.8434,4.8306,4.8306,4.8306,4.8306,4.8306,4.8306,4.8306,4.8306,4.8306,4.8306,4.8306,4.8306,4.8306,4.7975,4.7186,4.6379,4.5571,4.4782,4.3956,4.3515,4.3515,4.3515,4.3515,4.3515,4.3515,4.3515,4.3515,4.3742,4.3849,4.3849,4.4237,4.4414,4.4433,4.4781,4.5,2.7179,2.8243,2.9467,3.0504,3.1814,3.3582,3.6479,3.7594,3.8413,3.98,4.0113,3.9952,3.9512,3.9571,3.9622,3.9469,3.9808,4.0265,4.0696,4.0383,4.0434,4.1331,4.1214,4.154,4.2649,4.2967,4.3307,4.3889,4.4289,4.4485,4.4393,4.4291,4.4213,4.4213,4.3754,4.3515,4.3515,4.3515,4.3515,4.3515,4.3515,4.3754,4.425,4.4727,4.4672,4.4268,4.5076,4.57,4.6214,4.7021,4.7241,4.7149,4.7626,4.8012,4.8306,4.8306,4.8306,4.8306,4.8306,4.8636,4.8985,4.8471,4.8893,4.9445,4.8563,4.8545,4.8746,4.8398,4.8673,4.915,4.9519,4.9978,5.0196,4.9721,4.961,4.9372,4.8489,4.8306,4.8306,4.8306,4.8306,4.8306,4.8306,4.8306,4.8306,4.8306,4.8306,4.8306,4.8306,4.8012,4.7626,4.7149,4.6104,4.5241,4.4745,4.3956,4.3515,4.3515,4.3515,4.3515,4.3515,4.3515,4.3546,4.3712,4.3912,4.4073,4.4233,4.4618,4.48,4.4812,4.514,4.5302,2.8485,2.9546,3.0975,3.2186,3.377,3.5723,3.8484,4.0138,4.0916,4.0248,4.0104,4.0104,4.0113,3.9554,3.9334,3.9994,4.0096,4.0096,4.0096,4.0096,4.0121,4.0171,4.0601,4.1221,4.2061,4.2607,4.3134,4.372,4.376,4.3683,4.3498,4.3515,4.3515,4.3515,4.3515,4.3515,4.3515,4.3515,4.3515,4.3515,4.3515,4.3515,4.3515,4.3515,4.3515,4.3551,4.436,4.4672,4.4672,4.5535,4.6305,4.6892,4.6947,4.748,4.8196,4.8196,4.8251,4.8306,4.8306,4.8306,4.8306,4.8306,4.8838,4.9335,4.8545,4.8838,4.9335,4.8526,4.8306,4.8508,4.9372,4.961,4.961,4.961,4.961,4.9372,4.8489,4.8306,4.8306,4.8306,4.8306,4.8306,4.8306,4.8306,4.8306,4.8306,4.8306,4.8269,4.8214,4.7553,4.7039,4.6892,4.5572,4.4654,4.4617,4.392,4.3515,4.3515,4.3515,4.3513,4.3548,4.3548,4.3677,4.3982,4.4058,4.4276,4.4663,4.4977,4.5159,4.514,4.5467,4.5594,2.9177,3.0516,3.2013,3.2403,3.4868,3.7677,3.9478,4.0113,4.0299,4.013,4.0113,4.0113,4.0096,3.9977,3.9926,4.0079,4.0096,4.0096,4.0096,4.0096,4.0254,4.0679,4.0827,4.1338,4.2471,4.2671,4.2967,4.3524,4.3559,4.3558,4.3497,4.3515,4.3515,4.3515,4.3515,4.3515,4.3515,4.3515,4.3515,4.3515,4.3515,4.3515,4.3515,4.3515,4.3515,4.3551,4.436,4.4342,4.3864,4.5314,4.5626,4.5278,4.592,4.6654,4.7351,4.7351,4.7755,4.8306,4.8306,4.8306,4.8306,4.8306,4.8434,4.8545,4.8361,4.8434,4.8545,4.8361,4.8306,4.8508,4.9372,4.961,4.961,4.961,4.961,4.9372,4.8489,4.8306,4.8306,4.8306,4.8306,4.8306,4.8306,4.8306,4.8306,4.8306,4.8306,4.8086,4.7443,4.7204,4.6617,4.5351,4.4911,4.4452,4.3809,4.3606,4.3515,4.3515,4.3515,4.3631,4.3881,4.3896,4.3924,4.4001,4.4574,4.4919,4.4988,4.5332,4.5495,4.5495,4.5568,4.5594,3.0236,3.1525,3.3107,3.4276,3.6495,3.8633,3.9394,3.9859,4.0096,4.0096,4.0096,4.0096,4.0096,4.0096,4.0096,4.0096,4.0096,4.0096,4.0096,4.0336,4.0601,4.0856,4.1424,4.2,4.2635,4.2939,4.3196,4.3479,4.3515,4.3515,4.3515,4.3515,4.3515,4.3515,4.3515,4.3515,4.3515,4.3515,4.3515,4.3515,4.3515,4.3515,4.3515,4.3515,4.3515,4.3533,4.3938,4.3883,4.357,4.4397,4.4727,4.4745,4.5168,4.5828,4.6562,4.6947,4.7113,4.726,4.8031,4.8048,4.7791,4.8177,4.8306,4.8306,4.8306,4.8306,4.8306,4.8306,4.8306,4.8398,4.8857,4.8967,4.8967,4.8967,4.9317,4.9372,4.8489,4.8306,4.8306,4.8306,4.8306,4.8306,4.8306,4.8306,4.8177,4.7773,4.7718,4.7424,4.6636,4.6177,4.5627,4.4783,4.436,4.3956,4.3551,4.3515,4.3563,4.3726,4.3742,4.3896,4.4261,4.4441,4.4535,4.4535,4.49,4.518,4.5342,4.5513,4.5594,4.5594,4.5594,4.5594,3.119,3.2273,3.3914,3.6045,3.7601,3.8684,3.8937,3.9462,3.996,4.0079,4.0096,4.0096,4.0096,4.0096,4.0096,4.0096,4.0096,4.0121,4.0229,4.0607,4.0972,4.1201,4.2101,4.275,4.2826,4.3232,4.3515,4.3515,4.3515,4.3515,4.3515,4.3515,4.3515,4.3515,4.3515,4.3515,4.3515,4.3515,4.3515,4.3515,4.3515,4.3515,4.3515,4.3515,4.3515,4.3515,4.3515,4.3515,4.3515,4.3515,4.3883,4.4488,4.4488,4.4984,4.5773,4.6434,4.6342,4.6085,4.7425,4.7535,4.7204,4.7865,4.8196,4.8306,4.8306,4.8306,4.8306,4.8306,4.8306,4.8306,4.8306,4.8306,4.8306,4.8306,4.8838,4.9169,4.8471,4.8306,4.8306,4.8306,4.8306,4.8306,4.8306,4.8306,4.8086,4.7406,4.7314,4.6966,4.6012,4.5333,4.48,4.4525,4.3901,4.3515,4.3515,4.3546,4.371,4.3986,4.4076,4.4276,4.467,4.4943,4.5137,4.5191,4.5191,4.5322,4.5594,4.5594,4.5594,4.5594,4.5594,4.5594,3.119,3.2273,3.3795,3.5346,3.6434,3.7438,3.87,3.9073,3.9326,3.9977,4.0096,4.0096,4.0096,4.0096,4.0096,4.0096,4.0096,4.0262,4.0726,4.0856,4.1291,4.2342,4.2596,4.2883,4.3357,4.3444,4.3515,4.3515,4.3515,4.3515,4.3515,4.3515,4.3515,4.3515,4.3515,4.3515,4.3515,4.3515,4.3515,4.3515,4.3515,4.3515,4.3515,4.3515,4.3515,4.3515,4.3515,4.3515,4.3515,4.3515,4.3552,4.3644,4.3644,4.4158,4.4856,4.4966,4.5388,4.592,4.614,4.6617,4.7113,4.7223,4.7718,4.8306,4.8306,4.8306,4.8306,4.8306,4.8306,4.8306,4.8306,4.8306,4.8306,4.8306,4.8398,4.8434,4.8343,4.8306,4.8306,4.8306,4.8306,4.8306,4.8306,4.8306,4.8269,4.8159,4.8141,4.7609,4.6085,4.581,4.5204,4.3809,4.3552,4.3515,4.3515,4.3775,4.3955,4.4001,4.4337,4.467,4.503,4.5074,4.5232,4.5522,4.5522,4.5559,4.5594,4.5594,4.5594,4.5594,4.5594,4.5594,3.1701,3.2594,3.366,3.4726,3.5893,3.6981,3.7625,3.8091,3.8481,3.8802,3.887,3.9106,3.996,4.0096,4.0096,4.0096,3.9978,4.012,4.0804,4.1064,4.1566,4.2581,4.2958,4.3232,4.3479,4.3515,4.3515,4.3515,4.3515,4.3515,4.3515,4.3515,4.3515,4.3515,4.3515,4.3515,4.3515,4.3515,4.3515,4.3515,4.3515,4.3515,4.3515,4.3515,4.3515,4.3515,4.3515,4.3515,4.3515,4.3515,4.3515,4.3515,4.3515,4.3718,4.4085,4.4544,4.4635,4.4672,4.559,4.614,4.6507,4.6947,4.7626,4.8306,4.8306,4.8306,4.8306,4.8306,4.8306,4.8306,4.8306,4.8306,4.8306,4.8306,4.8306,4.8306,4.8306,4.8306,4.8306,4.8306,4.8306,4.8306,4.8306,4.8306,4.8159,4.77,4.7626,4.7039,4.5443,4.5396,4.5068,4.3902,4.3974,4.4125,4.4125,4.4252,4.4414,4.4612,4.4781,4.5041,4.5381,4.539,4.5448,4.5594,4.5594,4.5594,4.5594,4.5594,4.5594,4.5594,4.5594,4.5594,3.187,3.2544,3.3305,3.4032,3.5238,3.6321,3.6711,3.7212,3.7669,3.7872,3.7905,3.8244,3.9351,3.9529,3.9529,3.9529,3.9453,3.969,4.0426,4.0862,4.1467,4.2484,4.2958,4.3277,4.3478,4.3515,4.3515,4.3515,4.3515,4.3515,4.3515,4.3515,4.3515,4.3515,4.3515,4.3515,4.3515,4.3515,4.3515,4.3515,4.3515,4.3548,4.3631,4.3631,4.3679,4.3775,4.3679,4.3631,4.3629,4.3744,4.3728,4.3631,4.3631,4.358,4.357,4.4176,4.4011,4.368,4.4874,4.5553,4.5993,4.6599,4.7333,4.8031,4.8251,4.8159,4.8049,4.8251,4.8306,4.8306,4.8306,4.8306,4.8306,4.8306,4.8306,4.8306,4.8306,4.8306,4.8306,4.8306,4.8306,4.8306,4.8306,4.8306,4.8104,4.7498,4.7482,4.6984,4.5345,4.5451,4.5268,4.4258,4.4433,4.4593,4.4593,4.467,4.4837,4.5085,4.5191,4.5342,4.5586,4.5594,4.5594,4.5594,4.5594,4.5594,4.5594,4.5594,4.5594,4.5594,4.5594,4.5594,3.1241,3.1802,3.253,3.3271,3.4032,3.5018,3.6474,3.6829,3.7066,3.777,3.7905,3.7922,3.8007,3.8024,3.8024,3.8024,3.838,3.8855,3.9476,3.9975,4.0764,4.2165,4.2343,4.2653,4.3441,4.3515,4.3515,4.3515,4.3515,4.3515,4.3515,4.3515,4.3515,4.3515,4.3515,4.3515,4.3515,4.3515,4.3515,4.3515,4.3515,4.3679,4.3971,4.3971,4.4175,4.4514,4.415,4.3971,4.4001,4.4392,4.4323,4.3971,4.3971,4.3772,4.3515,4.3551,4.3551,4.3515,4.3606,4.4617,4.5902,4.5957,4.6526,4.7296,4.8086,4.7755,4.7314,4.8104,4.8306,4.8306,4.8306,4.8306,4.8306,4.8306,4.8306,4.8306,4.8306,4.8306,4.8306,4.8306,4.8306,4.8306,4.8306,4.8306,4.8306,4.8251,4.8566,4.8211,4.6525,4.6652,4.6307,4.4736,4.458,4.4593,4.4593,4.4896,4.5085,4.5096,4.54,4.5577,4.5594,4.5594,4.5594,4.5594,4.5594,4.5594,4.5594,4.5594,4.5594,4.5594,4.5594,4.5594,3.119,3.1752,3.2361,3.2632,3.3592,3.4624,3.5204,3.569,3.6113,3.636,3.6411,3.6411,3.6411,3.7246,3.799,3.8317,3.8382,3.8785,3.9795,3.9967,4.0382,4.1409,4.1534,4.1864,4.2653,4.2727,4.2928,4.346,4.3515,4.3515,4.3515,4.3515,4.3515,4.3515,4.3515,4.3515,4.3515,4.371,4.3836,4.3818,4.4095,4.4266,4.4392,4.4392,4.4474,4.4593,4.4682,4.4587,4.4406,4.454,4.4514,4.4392,4.4392,4.4308,4.4213,4.4213,4.405,4.3836,4.3836,4.4398,4.5223,4.5736,4.6452,4.7241,4.8067,4.8104,4.792,4.8233,4.8306,4.8306,4.8306,4.8306,4.8306,4.8306,4.8306,4.8306,4.8306,4.8306,4.8306,4.8306,4.8306,4.8306,4.8306,4.8513,4.8692,4.8692,4.9029,4.8679,4.6993,4.7089,4.6902,4.5805,4.5423,4.5472,4.6027,4.5678,4.5419,4.5419,4.5522,4.5594,4.5594,4.5594,4.5594,4.5594,4.5594,4.5594,4.5594,4.5594,4.5594,4.5594,4.5594,4.5594,3.119,0.0,3.1989,3.2242,3.3038,3.3833,3.4066,3.4709,3.5228,3.5228,3.543,3.56,3.56,3.6428,3.7296,3.7776,3.8033,3.847,3.9302,3.9462,3.979,4.0598,4.0708,4.102,4.1827,4.2139,4.2525,4.3057,4.3349,4.3515,4.3515,4.3515,4.3515,4.3515,4.3515,4.3546,4.3679,4.3896,4.4058,4.4204,4.4474,4.4644,4.4776,4.4776,4.4837,4.4954,4.5161,4.5085,4.4788,4.4896,4.4872,4.4776,4.4776,4.4695,4.4593,4.4593,4.4433,4.419,4.419,4.4773,4.5543,4.5946,4.6448,4.702,4.7683,4.7719,4.7553,4.7829,4.8104,4.8344,4.8477,4.8604,4.8692,4.8692,4.8604,4.8495,4.8495,4.8402,4.8306,4.8306,4.8402,4.8495,4.8495,4.8847,4.9092,4.9092,4.9445,4.9194,4.7793,4.7929,4.7709,4.6621,4.6225,4.6144,4.6432,4.5932,4.5594,4.5594,4.5594,4.5594,4.5594,4.5594,4.5594,4.5594,4.5594,4.5594,4.5594,4.5594,4.5594,4.5594,4.5594,4.5594,0.0,0.0,0.0,3.209,3.2297,3.2517,3.3224,3.399,3.4532,3.4532,3.5103,3.5627,3.5622,3.5667,3.5832,3.6354,3.7249,3.7894,3.7929,3.8366,3.9001,3.9772,3.9845,4.0175,4.0985,4.1772,4.2249,4.2304,4.302,4.3478,4.3515,4.3515,4.3515,4.3515,4.3496,4.3679,4.4001,4.4013,4.4219,4.4606,4.4618,4.4812,4.5107,4.5107,4.5302,4.5594,4.5594,4.5419,4.5129,4.5476,4.541,4.5107,4.5107,4.4919,4.4618,4.4618,4.4618,4.4606,4.4606,4.5631,4.6869,4.6529,4.6456,4.6576,4.7021,4.6599,4.6103,4.6948,4.772,4.8384,4.8812,4.9202,4.9489,4.9489,4.9202,4.8913,4.8913,4.8622,4.8344,4.8325,4.8639,4.8913,4.8913,4.9249,4.9504,4.9504,4.9853,4.9799,4.8929,4.9147,4.8779,4.7163,4.6942,4.6605,4.5787,4.5691,4.5671,4.5633,4.5633,4.5633,4.5594,4.5594,4.5594,4.5594,4.5594,4.5594,4.5594,4.5594,4.5594,4.5594,4.5594,4.5594,3.119,0.0,0.0,0.0,0.0,0.0,3.3051,3.4361,3.5418,3.507,3.5943,3.6643,3.6249,3.6768,3.7306,3.7452,3.7433,3.7649,3.8366,3.8611,3.8781,3.9019,3.9038,3.935,4.0157,4.0432,4.1038,4.2213,4.2506,4.2892,4.3478,4.3515,4.3515,4.3515,4.3742,4.3912,4.4001,4.4535,4.4853,4.4954,4.5211,4.5371,4.5457,4.5457,4.5513,4.5594,4.5594,4.5559,4.5476,4.5568,4.555,4.5457,4.5457,4.541,4.5313,4.5313,4.5161,4.4954,4.4954,4.5097,4.5434,4.6492,4.645,4.6346,4.825,4.7829,4.6989,4.8425,4.8537,4.8403,4.9126,4.9416,4.9489,4.9489,4.9416,4.9341,4.9341,4.9249,4.9094,4.8796,4.9062,4.9341,4.9341,4.9678,4.9936,4.9936,5.0272,5.0207,4.9344,4.9327,4.9221,4.8759,4.8144,4.7932,4.8317,4.7778,4.7163,4.6586,4.6547,4.6259,4.5633,4.5594,4.5594,4.5594,4.5594,4.5594,4.5594,4.5594,4.5594,4.5594,4.5594,4.5594,0.0,0.0,0.0,3.2653,0.0,0.0,3.3281,3.4163,3.4976,3.5012,3.5905,3.6653,3.6713,3.721,3.7667,3.7859,3.7667,3.7773,3.8596,3.8707,3.8707,3.8707,3.8707,3.8891,3.935,3.9698,4.0286,4.1222,4.1919,4.2653,4.346,4.3515,4.3515,4.3515,4.3836,4.4073,4.4247,4.4818,4.518,4.5312,4.5504,4.5594,4.5594,4.5594,4.5594,4.5594,4.5594,4.5594,4.5594,4.5594,4.5594,4.5594,4.5594,4.5594,4.5594,4.5594,4.5485,4.5312,4.5312,4.542,4.5693,4.6449,4.6392,4.6253,4.755,4.7269,4.6689,4.7683,4.8186,4.8653,4.9519,4.9866,4.9987,4.9987,4.9866,4.9746,4.9746,4.9746,4.9617,4.9234,4.9475,4.9746,4.9746,5.008,5.0347,5.0347,5.0554,5.0519,5.001,4.9933,4.9798,4.9433,4.8952,4.8702,4.8856,4.8394,4.7894,4.7432,4.7077,4.6682,4.6163,4.5787,4.5594,4.5594,4.5594,4.5594,4.5594,4.5594,4.5594,4.5594,4.5594,4.5594,0.0,0.0,0.0,3.4711,3.4408,0.0,3.3804,3.384,3.4054,3.464,3.5386,3.6149,3.6876,3.7126,3.7363,3.7802,3.7925,3.8167,3.8627,3.8707,3.8707,3.8707,3.8707,3.8707,3.8707,3.935,3.979,3.9882,4.1387,4.2653,4.346,4.3515,4.3515,4.3515,4.3865,4.4233,4.4612,4.4966,4.5312,4.5594,4.5594,4.5594,4.5594,4.5594,4.5594,4.5594,4.5594,4.5594,4.5594,4.5594,4.5594,4.5594,4.5594,4.5594,4.5594,4.5594,4.5594,4.5594,4.5594,4.6105,4.6713,4.6445,4.6304,4.6233,4.6209,4.5993,4.5823,4.6012,4.7415,4.906,4.993,5.0432,5.0712,5.0712,5.0421,5.0171,5.0171,5.0171,5.0068,4.9706,4.9924,5.0171,5.0171,5.0472,5.0712,5.0712,5.0712,5.0712,5.0712,5.0712,5.0404,4.9625,4.9529,4.9221,4.8452,4.8394,4.8355,4.8259,4.7567,4.7077,4.6904,4.6163,4.571,4.5594,4.5594,4.5594,4.5594,4.5594,4.5594,4.5594,4.5594,4.5652,3.45,3.4658,3.4694,3.4871,3.5074,0.0,3.4407,3.5054,3.5521,3.4605,3.5385,3.6142,3.5882,3.6721,3.7481,3.7558,3.8107,3.8578,3.8692,3.8707,3.8707,3.8707,3.8707,3.8707,3.8707,3.8836,3.9203,3.9845,4.1387,4.2653,4.346,4.3515,4.3515,4.3515,4.4154,4.4527,4.4593,4.5211,4.555,4.5594,4.5594,4.5594,4.5594,4.5594,4.5594,4.5594,4.5594,4.5594,4.5594,4.5594,4.5594,4.5594,4.5594,4.5594,4.5594,4.5594,4.5594,4.5594,4.5594,4.571,4.5962,4.6579,4.6301,4.6109,4.8105,4.727,4.5918,4.726,4.8432,4.947,5.0363,5.0634,5.0712,5.0712,5.0634,5.0575,5.0575,5.0575,5.0554,5.0483,5.0534,5.0575,5.0575,5.0653,5.0712,5.0712,5.0712,5.0712,5.0712,5.0712,5.0635,5.0462,5.0462,5.0385,5.0212,5.0183,4.9894,4.9183,4.899,4.8317,4.6962,4.674,4.6317,4.5614,4.5594,4.5594,4.5594,4.5594,4.5594,4.5594,4.5594,4.597,3.5968,3.619,3.628,3.6696,3.666,0.0,0.0,3.5787,3.5571,3.5347,3.5499,3.5699,3.5872,3.6775,3.7492,3.7492,3.8175,3.8707,3.8707,3.8707,3.8707,3.8707,3.8707,3.8707,3.8707,3.8707,3.9038,3.9827,4.102,4.2047,4.2855,4.3277,4.358,4.374,4.4308,4.467,4.4849,4.5352,4.5594,4.5594,4.5594,4.5594,4.5594,4.5594,4.5594,4.5594,4.5594,4.5594,4.5594,4.5594,4.5594,4.5594,4.5594,4.5594,4.5594,4.5594,4.5594,4.5594,4.5594,4.5594,4.5671,4.6105,4.5951,4.5845,4.7134,4.6614,4.596,4.7625,4.8413,4.8952,4.9817,5.0366,5.0596,5.0173,5.0385,5.0712,5.0712,5.0712,5.0712,5.0712,5.0712,5.0712,5.0712,5.0712,5.0712,5.0712,5.0712,5.0712,5.0712,5.0712,5.0712,5.0712,5.0712,5.0712,5.0712,5.0712,5.0519,5.0067,4.9644,4.9029,4.8182,4.774,4.7105,4.6259,4.624,4.6028,4.5594,4.5594,4.5594,4.5614,4.6047,4.649,3.7424,3.7731,3.7896,3.8542,3.8212,3.7694,0.0,0.0,0.0,3.6193,3.5752,3.5463,3.6174,3.696,3.7345,3.6868,3.7734,3.8303,3.7826,3.8028,3.8358,3.867,3.8707,3.8707,3.8707,3.8707,3.9038,3.9827,4.0506,4.1295,4.2249,4.291,4.3496,4.3982,4.4392,4.4745,4.5096,4.5429,4.5594,4.5594,4.5594,4.5594,4.5594,4.5594,4.5594,4.5594,4.5594,4.5594,4.5594,4.5594,4.5594,4.5594,4.5594,4.5594,4.5594,4.5594,4.5594,4.5594,4.5594,4.5594,4.5594,4.5594,4.571,4.5825,4.5652,4.5729,4.6124,4.749,4.7875,4.8067,4.8933,4.9798,5.0269,4.9567,5.0067,5.0712,5.0712,5.0712,5.0712,5.0712,5.0712,5.0712,5.0712,5.0712,5.0712,5.0712,5.0712,5.0712,5.0712,5.0712,5.0712,5.0712,5.0712,5.0712,5.0712,5.0712,5.0712,5.0712,5.0029,4.9586,4.9413,4.8567,4.7798,4.7135,4.7135,4.6778,4.6075,4.6075,4.5998,4.5883,4.6567,4.7058,3.8397,3.856,3.8597,3.8689,3.8634,3.8377,3.7658,0.0,3.7052,3.6431,0.0,3.6174,3.6266,0.0,0.0,3.4578,3.6152,3.6868,3.4669,3.5642,3.7092,3.8542,3.8707,3.8707,3.8707,3.8707,3.9038,3.9827,3.9974,4.0689,4.2213,4.2396,4.2908,4.3982,4.4392,4.4745,4.5096,4.5429,4.5594,4.5594,4.5594,4.5594,4.5594,4.5594,4.5594,4.5594,4.5594,4.5594,4.5594,4.5594,4.5594,4.5594,4.5594,4.5594,4.5594,4.5594,4.5594,4.5594,4.5594,4.5594,4.5594,4.5594,4.6124,4.6605,4.5825,4.6144,4.6797,4.6981,4.7038,4.7212,4.8048,4.8894,4.951,4.9413,5.0067,5.0712,5.0712,5.0712,5.0712,5.0712,5.0712,5.0712,5.0712,5.0712,5.0712,5.0712,5.0712,5.0712,5.0712,5.0712,5.0712,5.0712,5.0712,5.0712,5.0712,5.0712,5.0712,5.0712,5.0616,5.0212,4.9433,4.8567,4.8067,4.7971,4.7971,4.7913,4.7817,4.7817,4.7451,4.6759,4.6846,4.7702,3.8643,3.8707,3.8707,3.8707,3.8707,3.8615,3.8267,3.7841,3.7401,3.707,0.0,0.0,0.0,0.0,0.0,0.0,3.6813,3.7144,3.6097,3.6138,3.6541,3.7221,3.7716,3.8193,3.8652,3.8707,3.8836,3.9184,3.9643,4.0175,4.0873,4.1538,4.2415,4.3562,4.3957,4.4538,4.5371,4.5522,4.5594,4.5594,4.5594,4.5594,4.5594,4.5594,4.5594,4.5594,4.5594,4.5594,4.5594,4.5594,4.5594,4.5594,4.5594,4.5594,4.5594,4.5594,4.5594,4.5594,4.5594,4.5594,4.5594,4.5594,4.5845,4.6086,4.571,4.5864,4.624,4.6759,4.6904,4.6981,4.7317,4.8394,4.926,4.8779,4.9702,5.0712,5.0712,5.0712,5.0712,5.0712,5.0712,5.0712,5.0712,5.0712,5.0712,5.0712,5.0712,5.0712,5.0712,5.0712,5.0712,5.0712,5.0712,5.0712,5.0712,5.0712,5.0712,5.0712,5.0712,5.0539,5.0173,4.9798,4.9375,4.8856,4.8856,4.8606,4.8105,4.8105,4.8202,4.8355,4.8355,4.8721,3.9038,3.9203,3.9313,3.9074,3.9038,3.8964,3.8762,3.8248,3.7841,3.7841,3.7349,0.0,0.0,0.0,3.7621,0.0,0.0,3.6942,3.6262,3.5844,3.5789,3.6248,3.6831,3.7386,3.7991,3.8046,3.8138,3.8358,3.8909,3.9423,3.9879,4.0763,4.1875,4.3253,4.3627,4.4382,4.5594,4.5594,4.5594,4.5594,4.5594,4.5594,4.5594,4.5594,4.5594,4.5594,4.5594,4.5594,4.5594,4.5594,4.5594,4.5594,4.5594,4.5594,4.5594,4.5594,4.5594,4.5594,4.5594,4.5594,4.5594,4.5594,4.5594,4.5594,4.5594,4.5594,4.5729,4.6374,4.6547,4.6605,4.6827,4.7971,4.8933,4.8548,4.9606,5.0712,5.0712,5.0712,5.0712,5.0712,5.0712,5.0712,5.0712,5.0712,5.0712,5.0712,5.0712,5.0712,5.0712,5.0712,5.0712,5.0712,5.0712,5.0712,5.0712,5.0712,5.0712,5.0712,5.0712,5.0712,5.0712,5.0712,5.0404,4.976,4.976,4.9433,4.8817,4.8817,4.9144,4.974,4.951,4.9529,3.9845,4.0432,4.0838,4.0065,3.9845,3.9662,3.8891,3.8689,3.867,3.867,3.8652,3.8615,3.8615,3.8652,0.0,0.0,0.0,0.0,0.0,3.3421,3.4486,3.6101,3.6321,3.634,3.6376,3.6376,3.6688,3.7474,3.7566,3.8264,3.9808,4.0174,4.1258,4.3234,4.3627,4.4382,4.5594,4.5594,4.5594,4.5594,4.5594,4.5594,4.5594,4.5594,4.5594,4.5594,4.5594,4.5594,4.5594,4.5594,4.5594,4.5594,4.5594,4.5594,4.5594,4.5594,4.5594,4.5594,4.5594,4.5594,4.5594,4.5594,4.5594,4.5594,4.5594,4.5594,4.5614,4.5633,4.5633,4.5845,4.6682,4.7528,4.8355,4.9163,5.0048,5.0712,5.0712,5.0712,5.0712,5.0712,5.0712,5.0712,5.0712,5.0712,5.0712,5.0712,5.0712,5.0712,5.0712,5.0712,5.0712,5.0712,5.0712,5.0712,5.0712,5.0712,5.0712,5.0712,5.0712,5.0712,5.0712,5.0712,5.0693,5.0654,5.0654,5.0635,5.0616,5.0616,5.0635,5.0635,4.9779,4.9856,3.99,3.9717,3.957,3.9827,3.9496,3.9166,3.9423,3.9074,3.8707,3.8707,3.8707,3.8707,3.8707,3.8707,0.0,0.0,0.0,0.0,0.0,3.4784,3.4802,3.5371,3.5445,3.5665,3.6229,3.6303,3.6615,3.7437,3.7492,3.797,3.9056,4.0122,4.1249,4.2466,4.3555,4.4602,4.5594,4.5594,4.5594,4.5594,4.5594,4.5594,4.5594,4.5594,4.5594,4.5594,4.5594,4.5594,4.5594,4.5594,4.5594,4.5594,4.5594,4.5594,4.5594,4.5594,4.5594,4.5594,4.5594,4.5594,4.5594,4.5594,4.5594,4.5594,4.5594,4.5594,4.5594,4.5594,4.5594,4.5806,4.6682,4.7509,4.8317,4.9183,5.0067,5.0712,5.0712,5.0712,5.0712,5.0712,5.0712,5.0712,5.0712,5.0712,5.0712,5.0712,5.0712,5.0712,5.0712,5.0712,5.0712,5.0712,5.0712,5.0712,5.0712,5.0712,5.0712,5.0712,5.0712,5.0712,5.0712,5.0712,5.0712,5.0712,5.0712,5.0712,5.0712,5.0712,5.0712,5.0693,5.0404,5.0423,4.0744,4.0579,4.0396,4.0341,3.9937,3.9551,3.9496,3.9074,3.8707,3.8707,3.8707,3.8707,3.8707,3.8792,0.0,0.0,0.0,0.0,0.0,3.5781,3.5539,3.5341,3.5251,3.5358,3.5803,3.5662,3.5984,3.6997,3.707,3.7551,3.8652,4.0093,4.1257,4.2082,4.3522,4.472,4.5594,4.5594,4.5594,4.5594,4.5594,4.5594,4.5594,4.5594,4.5594,4.5594,4.5594,4.5594,4.5594,4.5594,4.5594,4.5594,4.5594,4.5594,4.5594,4.5594,4.5594,4.5594,4.5594,4.5594,4.5594,4.5594,4.5594,4.5594,4.5594,4.5594,4.5594,4.5594,4.5825,4.6259,4.7105,4.7952,4.8779,4.9663,5.0289,5.0712,5.0712,5.0712,5.0712,5.0712,5.0712,5.0712,5.0712,5.0712,5.0712,5.0712,5.0712,5.0712,5.0712,5.0712,5.0712,5.0712,5.0712,5.0712,5.0712,5.0712,5.0712,5.0712,5.0712,5.0712,5.0712,5.0712,5.0827,5.1125,5.0846,5.0846,5.1125,5.0846,5.0712,5.0712,5.0712,5.0712]}]]